<?xml version="1.0" encoding="UTF-8"?>
<gpx xmlns="http://www.topografix.com/GPX/1/1" xmlns:dkl="http://www.gpsware.de/DKL/1/1" xmlns:rtx="http://www.bike-gps.de/RTX/1/1" version="1.1" creator="KOMPASS Digital Map" xmlns:xsi="http://www.w3.org/2001/XMLSchema-instance" xsi:schemaLocation="http://www.topografix.com/GPX/1/1 http://www.topografix.com/GPX/1/1/gpx.xsd">
 <metadata>
 <name>KOMPASS Digital Map Track</name>
 <desc> </desc>
 <time>2010-08-08T11:56:57Z</time>
 <bounds minlat="47.234222" minlon="13.191807" maxlat="47.421871" maxlon="13.270703"/>
 </metadata>
 <trk>
 <name>2010_Großarl_Ellmautal</name>
 <cmt>Ellmautal - Großarl</cmt>
 <extensions>
 <dkl:dkl>
 <dkl:format_version>1.1</dkl:format_version>
 <dkl:format>
 <dkl:color>FF0000</dkl:color>
 <dkl:style>00000000</dkl:style>
 <dkl:strength>3</dkl:strength>
 <dkl:transparent>0</dkl:transparent>
 </dkl:format>
 </dkl:dkl>
 </extensions>
 <trkseg>
 <trkpt lat="47.419861" lon="13.220673">
 <ele>480.82</ele>
 <time>2010-08-08T06:07:41Z</time>
 </trkpt>
 <trkpt lat="47.419582" lon="13.220600">
 <ele>480.95</ele>
 <time>2010-08-08T06:07:49Z</time>
 </trkpt>
 <trkpt lat="47.419456" lon="13.220580">
 <ele>481.08</ele>
 <time>2010-08-08T06:07:52Z</time>
 </trkpt>
 <trkpt lat="47.419258" lon="13.219388">
 <ele>481.12</ele>
 <time>2010-08-08T06:07:57Z</time>
 </trkpt>
 <trkpt lat="47.419220" lon="13.219391">
 <ele>481.29</ele>
 <time>2010-08-08T06:07:58Z</time>
 </trkpt>
 <trkpt lat="47.418831" lon="13.219400">
 <ele>482.28</ele>
 <time>2010-08-08T06:08:08Z</time>
 </trkpt>
 <trkpt lat="47.418655" lon="13.219393">
 <ele>481.95</ele>
 <time>2010-08-08T06:08:13Z</time>
 </trkpt>
 <trkpt lat="47.418625" lon="13.219392">
 <ele>482.11</ele>
 <time>2010-08-08T06:08:17Z</time>
 </trkpt>
 <trkpt lat="47.418541" lon="13.219389">
 <ele>482.20</ele>
 <time>2010-08-08T06:08:22Z</time>
 </trkpt>
 <trkpt lat="47.418522" lon="13.219388">
 <ele>482.25</ele>
 <time>2010-08-08T06:08:23Z</time>
 </trkpt>
 <trkpt lat="47.418465" lon="13.219386">
 <ele>482.32</ele>
 <time>2010-08-08T06:08:28Z</time>
 </trkpt>
 <trkpt lat="47.418465" lon="13.219386">
 <ele>482.24</ele>
 <time>2010-08-08T06:08:29Z</time>
 </trkpt>
 <trkpt lat="47.418465" lon="13.219386">
 <ele>482.23</ele>
 <time>2010-08-08T06:08:36Z</time>
 </trkpt>
 <trkpt lat="47.418362" lon="13.220882">
 <ele>481.93</ele>
 <time>2010-08-08T06:08:40Z</time>
 </trkpt>
 <trkpt lat="47.418308" lon="13.221213">
 <ele>481.81</ele>
 <time>2010-08-08T06:08:44Z</time>
 </trkpt>
 <trkpt lat="47.418190" lon="13.221527">
 <ele>481.36</ele>
 <time>2010-08-08T06:08:47Z</time>
 </trkpt>
 <trkpt lat="47.417877" lon="13.221511">
 <ele>480.70</ele>
 <time>2010-08-08T06:08:55Z</time>
 </trkpt>
 <trkpt lat="47.417484" lon="13.221453">
 <ele>481.44</ele>
 <time>2010-08-08T06:09:04Z</time>
 </trkpt>
 <trkpt lat="47.417439" lon="13.221446">
 <ele>481.48</ele>
 <time>2010-08-08T06:09:05Z</time>
 </trkpt>
 <trkpt lat="47.417267" lon="13.221420">
 <ele>481.81</ele>
 <time>2010-08-08T06:09:09Z</time>
 </trkpt>
 <trkpt lat="47.416908" lon="13.221364">
 <ele>481.69</ele>
 <time>2010-08-08T06:09:17Z</time>
 </trkpt>
 <trkpt lat="47.416534" lon="13.221342">
 <ele>481.74</ele>
 <time>2010-08-08T06:09:25Z</time>
 </trkpt>
 <trkpt lat="47.416115" lon="13.221349">
 <ele>482.49</ele>
 <time>2010-08-08T06:09:34Z</time>
 </trkpt>
 <trkpt lat="47.415791" lon="13.221355">
 <ele>482.86</ele>
 <time>2010-08-08T06:09:41Z</time>
 </trkpt>
 <trkpt lat="47.415745" lon="13.221356">
 <ele>482.98</ele>
 <time>2010-08-08T06:09:42Z</time>
 </trkpt>
 <trkpt lat="47.415562" lon="13.221359">
 <ele>483.17</ele>
 <time>2010-08-08T06:09:46Z</time>
 </trkpt>
 <trkpt lat="47.415188" lon="13.221359">
 <ele>483.42</ele>
 <time>2010-08-08T06:09:54Z</time>
 </trkpt>
 <trkpt lat="47.414833" lon="13.221359">
 <ele>484.28</ele>
 <time>2010-08-08T06:10:02Z</time>
 </trkpt>
 <trkpt lat="47.414742" lon="13.221359">
 <ele>484.26</ele>
 <time>2010-08-08T06:10:06Z</time>
 </trkpt>
 <trkpt lat="47.414387" lon="13.221335">
 <ele>484.96</ele>
 <time>2010-08-08T06:10:13Z</time>
 </trkpt>
 <trkpt lat="47.413933" lon="13.221318">
 <ele>484.95</ele>
 <time>2010-08-08T06:10:22Z</time>
 </trkpt>
 <trkpt lat="47.413723" lon="13.221312">
 <ele>485.03</ele>
 <time>2010-08-08T06:10:26Z</time>
 </trkpt>
 <trkpt lat="47.413372" lon="13.221302">
 <ele>484.82</ele>
 <time>2010-08-08T06:10:33Z</time>
 </trkpt>
 <trkpt lat="47.413101" lon="13.221315">
 <ele>485.70</ele>
 <time>2010-08-08T06:10:39Z</time>
 </trkpt>
 <trkpt lat="47.412895" lon="13.221397">
 <ele>486.77</ele>
 <time>2010-08-08T06:10:44Z</time>
 </trkpt>
 <trkpt lat="47.412586" lon="13.221506">
 <ele>487.03</ele>
 <time>2010-08-08T06:10:51Z</time>
 </trkpt>
 <trkpt lat="47.412437" lon="13.221543">
 <ele>487.31</ele>
 <time>2010-08-08T06:10:55Z</time>
 </trkpt>
 <trkpt lat="47.412327" lon="13.221549">
 <ele>487.53</ele>
 <time>2010-08-08T06:10:59Z</time>
 </trkpt>
 <trkpt lat="47.412327" lon="13.221549">
 <ele>487.50</ele>
 <time>2010-08-08T06:11:00Z</time>
 </trkpt>
 <trkpt lat="47.412289" lon="13.221547">
 <ele>489.50</ele>
 <time>2010-08-08T06:12:03Z</time>
 </trkpt>
 <trkpt lat="47.412216" lon="13.221544">
 <ele>489.50</ele>
 <time>2010-08-08T06:12:07Z</time>
 </trkpt>
 <trkpt lat="47.412079" lon="13.221537">
 <ele>489.40</ele>
 <time>2010-08-08T06:12:11Z</time>
 </trkpt>
 <trkpt lat="47.411671" lon="13.221463">
 <ele>489.17</ele>
 <time>2010-08-08T06:12:19Z</time>
 </trkpt>
 <trkpt lat="47.411266" lon="13.221195">
 <ele>488.63</ele>
 <time>2010-08-08T06:12:27Z</time>
 </trkpt>
 <trkpt lat="47.410778" lon="13.220772">
 <ele>488.16</ele>
 <time>2010-08-08T06:12:37Z</time>
 </trkpt>
 <trkpt lat="47.410297" lon="13.220308">
 <ele>488.98</ele>
 <time>2010-08-08T06:12:48Z</time>
 </trkpt>
 <trkpt lat="47.409859" lon="13.219981">
 <ele>489.60</ele>
 <time>2010-08-08T06:12:58Z</time>
 </trkpt>
 <trkpt lat="47.409443" lon="13.219873">
 <ele>490.09</ele>
 <time>2010-08-08T06:13:07Z</time>
 </trkpt>
 <trkpt lat="47.409107" lon="13.219864">
 <ele>490.56</ele>
 <time>2010-08-08T06:13:14Z</time>
 </trkpt>
 <trkpt lat="47.408661" lon="13.219881">
 <ele>491.13</ele>
 <time>2010-08-08T06:13:24Z</time>
 </trkpt>
 <trkpt lat="47.408295" lon="13.220068">
 <ele>491.63</ele>
 <time>2010-08-08T06:13:32Z</time>
 </trkpt>
 <trkpt lat="47.407936" lon="13.220378">
 <ele>491.86</ele>
 <time>2010-08-08T06:13:41Z</time>
 </trkpt>
 <trkpt lat="47.407589" lon="13.220768">
 <ele>492.19</ele>
 <time>2010-08-08T06:13:50Z</time>
 </trkpt>
 <trkpt lat="47.407379" lon="13.221021">
 <ele>493.25</ele>
 <time>2010-08-08T06:13:56Z</time>
 </trkpt>
 <trkpt lat="47.407188" lon="13.221252">
 <ele>495.86</ele>
 <time>2010-08-08T06:14:03Z</time>
 </trkpt>
 <trkpt lat="47.407089" lon="13.221381">
 <ele>497.17</ele>
 <time>2010-08-08T06:14:07Z</time>
 </trkpt>
 <trkpt lat="47.407001" lon="13.220951">
 <ele>497.73</ele>
 <time>2010-08-08T06:14:11Z</time>
 </trkpt>
 <trkpt lat="47.406979" lon="13.220915">
 <ele>498.15</ele>
 <time>2010-08-08T06:14:13Z</time>
 </trkpt>
 <trkpt lat="47.407078" lon="13.220999">
 <ele>499.35</ele>
 <time>2010-08-08T06:14:21Z</time>
 </trkpt>
 <trkpt lat="47.406841" lon="13.220688">
 <ele>499.60</ele>
 <time>2010-08-08T06:14:25Z</time>
 </trkpt>
 <trkpt lat="47.406616" lon="13.220346">
 <ele>499.83</ele>
 <time>2010-08-08T06:14:34Z</time>
 </trkpt>
 <trkpt lat="47.406464" lon="13.220113">
 <ele>500.02</ele>
 <time>2010-08-08T06:14:40Z</time>
 </trkpt>
 <trkpt lat="47.406437" lon="13.220072">
 <ele>499.66</ele>
 <time>2010-08-08T06:14:43Z</time>
 </trkpt>
 <trkpt lat="47.406353" lon="13.220131">
 <ele>499.35</ele>
 <time>2010-08-08T06:14:47Z</time>
 </trkpt>
 <trkpt lat="47.406319" lon="13.220154">
 <ele>499.29</ele>
 <time>2010-08-08T06:14:48Z</time>
 </trkpt>
 <trkpt lat="47.405979" lon="13.220398">
 <ele>499.60</ele>
 <time>2010-08-08T06:14:58Z</time>
 </trkpt>
 <trkpt lat="47.405617" lon="13.220726">
 <ele>499.80</ele>
 <time>2010-08-08T06:15:07Z</time>
 </trkpt>
 <trkpt lat="47.405334" lon="13.221017">
 <ele>499.90</ele>
 <time>2010-08-08T06:15:14Z</time>
 </trkpt>
 <trkpt lat="47.405060" lon="13.221288">
 <ele>499.89</ele>
 <time>2010-08-08T06:15:21Z</time>
 </trkpt>
 <trkpt lat="47.404911" lon="13.221424">
 <ele>500.27</ele>
 <time>2010-08-08T06:15:25Z</time>
 </trkpt>
 <trkpt lat="47.404911" lon="13.221424">
 <ele>499.87</ele>
 <time>2010-08-08T06:15:38Z</time>
 </trkpt>
 <trkpt lat="47.403587" lon="13.221878">
 <ele>500.26</ele>
 <time>2010-08-08T06:15:48Z</time>
 </trkpt>
 <trkpt lat="47.403236" lon="13.222376">
 <ele>500.55</ele>
 <time>2010-08-08T06:15:58Z</time>
 </trkpt>
 <trkpt lat="47.402935" lon="13.222726">
 <ele>500.83</ele>
 <time>2010-08-08T06:16:07Z</time>
 </trkpt>
 <trkpt lat="47.402496" lon="13.223190">
 <ele>501.27</ele>
 <time>2010-08-08T06:16:18Z</time>
 </trkpt>
 <trkpt lat="47.402122" lon="13.223521">
 <ele>501.59</ele>
 <time>2010-08-08T06:16:28Z</time>
 </trkpt>
 <trkpt lat="47.401733" lon="13.223842">
 <ele>501.66</ele>
 <time>2010-08-08T06:16:37Z</time>
 </trkpt>
 <trkpt lat="47.401318" lon="13.224123">
 <ele>502.01</ele>
 <time>2010-08-08T06:16:48Z</time>
 </trkpt>
 <trkpt lat="47.400810" lon="13.224403">
 <ele>502.18</ele>
 <time>2010-08-08T06:16:59Z</time>
 </trkpt>
 <trkpt lat="47.400322" lon="13.224556">
 <ele>502.82</ele>
 <time>2010-08-08T06:17:11Z</time>
 </trkpt>
 <trkpt lat="47.399940" lon="13.224657">
 <ele>503.25</ele>
 <time>2010-08-08T06:17:19Z</time>
 </trkpt>
 <trkpt lat="47.399555" lon="13.224675">
 <ele>502.85</ele>
 <time>2010-08-08T06:17:28Z</time>
 </trkpt>
 <trkpt lat="47.399006" lon="13.224661">
 <ele>503.38</ele>
 <time>2010-08-08T06:17:40Z</time>
 </trkpt>
 <trkpt lat="47.398563" lon="13.224614">
 <ele>503.75</ele>
 <time>2010-08-08T06:17:49Z</time>
 </trkpt>
 <trkpt lat="47.398270" lon="13.224504">
 <ele>504.01</ele>
 <time>2010-08-08T06:17:59Z</time>
 </trkpt>
 <trkpt lat="47.397461" lon="13.226379">
 <ele>504.11</ele>
 <time>2010-08-08T06:18:10Z</time>
 </trkpt>
 <trkpt lat="47.396870" lon="13.226263">
 <ele>504.52</ele>
 <time>2010-08-08T06:18:20Z</time>
 </trkpt>
 <trkpt lat="47.396420" lon="13.226106">
 <ele>504.62</ele>
 <time>2010-08-08T06:18:29Z</time>
 </trkpt>
 <trkpt lat="47.395981" lon="13.225863">
 <ele>504.91</ele>
 <time>2010-08-08T06:18:36Z</time>
 </trkpt>
 <trkpt lat="47.395802" lon="13.225734">
 <ele>505.06</ele>
 <time>2010-08-08T06:18:40Z</time>
 </trkpt>
 <trkpt lat="47.395607" lon="13.225595">
 <ele>505.20</ele>
 <time>2010-08-08T06:18:45Z</time>
 </trkpt>
 <trkpt lat="47.395374" lon="13.225372">
 <ele>505.82</ele>
 <time>2010-08-08T06:18:49Z</time>
 </trkpt>
 <trkpt lat="47.395279" lon="13.223226">
 <ele>506.28</ele>
 <time>2010-08-08T06:18:55Z</time>
 </trkpt>
 <trkpt lat="47.395718" lon="13.223743">
 <ele>506.49</ele>
 <time>2010-08-08T06:18:59Z</time>
 </trkpt>
 <trkpt lat="47.395279" lon="13.223226">
 <ele>506.34</ele>
 <time>2010-08-08T06:19:03Z</time>
 </trkpt>
 <trkpt lat="47.395042" lon="13.225014">
 <ele>506.09</ele>
 <time>2010-08-08T06:19:07Z</time>
 </trkpt>
 <trkpt lat="47.394840" lon="13.224734">
 <ele>505.92</ele>
 <time>2010-08-08T06:19:10Z</time>
 </trkpt>
 <trkpt lat="47.394745" lon="13.224568">
 <ele>505.88</ele>
 <time>2010-08-08T06:19:13Z</time>
 </trkpt>
 <trkpt lat="47.394402" lon="13.223920">
 <ele>506.17</ele>
 <time>2010-08-08T06:19:21Z</time>
 </trkpt>
 <trkpt lat="47.394169" lon="13.222884">
 <ele>506.26</ele>
 <time>2010-08-08T06:19:29Z</time>
 </trkpt>
 <trkpt lat="47.394180" lon="13.222199">
 <ele>506.37</ele>
 <time>2010-08-08T06:19:38Z</time>
 </trkpt>
 <trkpt lat="47.394215" lon="13.221555">
 <ele>506.64</ele>
 <time>2010-08-08T06:19:46Z</time>
 </trkpt>
 <trkpt lat="47.395088" lon="13.220904">
 <ele>506.91</ele>
 <time>2010-08-08T06:19:55Z</time>
 </trkpt>
 <trkpt lat="47.394886" lon="13.220184">
 <ele>507.28</ele>
 <time>2010-08-08T06:20:05Z</time>
 </trkpt>
 <trkpt lat="47.394653" lon="13.219598">
 <ele>507.70</ele>
 <time>2010-08-08T06:20:14Z</time>
 </trkpt>
 <trkpt lat="47.394295" lon="13.218959">
 <ele>507.72</ele>
 <time>2010-08-08T06:20:25Z</time>
 </trkpt>
 <trkpt lat="47.393955" lon="13.218522">
 <ele>508.01</ele>
 <time>2010-08-08T06:20:34Z</time>
 </trkpt>
 <trkpt lat="47.393574" lon="13.218193">
 <ele>508.33</ele>
 <time>2010-08-08T06:20:43Z</time>
 </trkpt>
 <trkpt lat="47.393154" lon="13.217935">
 <ele>508.34</ele>
 <time>2010-08-08T06:20:52Z</time>
 </trkpt>
 <trkpt lat="47.392693" lon="13.217654">
 <ele>508.77</ele>
 <time>2010-08-08T06:21:02Z</time>
 </trkpt>
 <trkpt lat="47.392277" lon="13.217411">
 <ele>508.86</ele>
 <time>2010-08-08T06:21:11Z</time>
 </trkpt>
 <trkpt lat="47.391762" lon="13.217148">
 <ele>509.64</ele>
 <time>2010-08-08T06:21:22Z</time>
 </trkpt>
 <trkpt lat="47.391106" lon="13.216812">
 <ele>509.66</ele>
 <time>2010-08-08T06:21:36Z</time>
 </trkpt>
 <trkpt lat="47.390591" lon="13.216520">
 <ele>510.30</ele>
 <time>2010-08-08T06:21:47Z</time>
 </trkpt>
 <trkpt lat="47.390125" lon="13.216145">
 <ele>510.60</ele>
 <time>2010-08-08T06:21:58Z</time>
 </trkpt>
 <trkpt lat="47.389759" lon="13.215796">
 <ele>510.99</ele>
 <time>2010-08-08T06:22:07Z</time>
 </trkpt>
 <trkpt lat="47.389397" lon="13.215426">
 <ele>511.03</ele>
 <time>2010-08-08T06:22:16Z</time>
 </trkpt>
 <trkpt lat="47.388973" lon="13.214935">
 <ele>511.51</ele>
 <time>2010-08-08T06:22:27Z</time>
 </trkpt>
 <trkpt lat="47.388588" lon="13.214486">
 <ele>511.62</ele>
 <time>2010-08-08T06:22:37Z</time>
 </trkpt>
 <trkpt lat="47.388206" lon="13.214036">
 <ele>511.89</ele>
 <time>2010-08-08T06:22:47Z</time>
 </trkpt>
 <trkpt lat="47.387882" lon="13.213674">
 <ele>512.55</ele>
 <time>2010-08-08T06:22:56Z</time>
 </trkpt>
 <trkpt lat="47.387749" lon="13.213559">
 <ele>514.46</ele>
 <time>2010-08-08T06:23:01Z</time>
 </trkpt>
 <trkpt lat="47.387707" lon="13.213525">
 <ele>515.25</ele>
 <time>2010-08-08T06:23:03Z</time>
 </trkpt>
 <trkpt lat="47.387634" lon="13.213463">
 <ele>515.77</ele>
 <time>2010-08-08T06:23:07Z</time>
 </trkpt>
 <trkpt lat="47.387691" lon="13.213354">
 <ele>515.77</ele>
 <time>2010-08-08T06:23:08Z</time>
 </trkpt>
 <trkpt lat="47.387451" lon="13.213624">
 <ele>516.25</ele>
 <time>2010-08-08T06:23:16Z</time>
 </trkpt>
 <trkpt lat="47.387161" lon="13.213951">
 <ele>516.18</ele>
 <time>2010-08-08T06:23:24Z</time>
 </trkpt>
 <trkpt lat="47.386982" lon="13.214097">
 <ele>515.76</ele>
 <time>2010-08-08T06:23:28Z</time>
 </trkpt>
 <trkpt lat="47.386696" lon="13.214257">
 <ele>515.08</ele>
 <time>2010-08-08T06:23:35Z</time>
 </trkpt>
 <trkpt lat="47.386200" lon="13.214458">
 <ele>513.96</ele>
 <time>2010-08-08T06:23:43Z</time>
 </trkpt>
 <trkpt lat="47.385750" lon="13.214580">
 <ele>513.85</ele>
 <time>2010-08-08T06:23:51Z</time>
 </trkpt>
 <trkpt lat="47.385345" lon="13.214723">
 <ele>514.25</ele>
 <time>2010-08-08T06:23:59Z</time>
 </trkpt>
 <trkpt lat="47.384899" lon="13.214879">
 <ele>514.84</ele>
 <time>2010-08-08T06:24:08Z</time>
 </trkpt>
 <trkpt lat="47.384403" lon="13.215054">
 <ele>515.48</ele>
 <time>2010-08-08T06:24:18Z</time>
 </trkpt>
 <trkpt lat="47.383915" lon="13.215271">
 <ele>516.13</ele>
 <time>2010-08-08T06:24:28Z</time>
 </trkpt>
 <trkpt lat="47.383415" lon="13.215485">
 <ele>516.34</ele>
 <time>2010-08-08T06:24:38Z</time>
 </trkpt>
 <trkpt lat="47.382851" lon="13.215777">
 <ele>516.09</ele>
 <time>2010-08-08T06:24:49Z</time>
 </trkpt>
 <trkpt lat="47.382252" lon="13.216100">
 <ele>516.66</ele>
 <time>2010-08-08T06:25:01Z</time>
 </trkpt>
 <trkpt lat="47.381748" lon="13.216430">
 <ele>517.59</ele>
 <time>2010-08-08T06:25:12Z</time>
 </trkpt>
 <trkpt lat="47.381256" lon="13.216736">
 <ele>518.65</ele>
 <time>2010-08-08T06:25:23Z</time>
 </trkpt>
 <trkpt lat="47.380817" lon="13.216851">
 <ele>519.58</ele>
 <time>2010-08-08T06:25:32Z</time>
 </trkpt>
 <trkpt lat="47.380470" lon="13.216815">
 <ele>520.16</ele>
 <time>2010-08-08T06:25:39Z</time>
 </trkpt>
 <trkpt lat="47.380157" lon="13.216625">
 <ele>521.29</ele>
 <time>2010-08-08T06:25:46Z</time>
 </trkpt>
 <trkpt lat="47.379826" lon="13.216353">
 <ele>521.98</ele>
 <time>2010-08-08T06:25:54Z</time>
 </trkpt>
 <trkpt lat="47.379440" lon="13.215868">
 <ele>523.41</ele>
 <time>2010-08-08T06:26:05Z</time>
 </trkpt>
 <trkpt lat="47.379021" lon="13.215624">
 <ele>524.90</ele>
 <time>2010-08-08T06:26:15Z</time>
 </trkpt>
 <trkpt lat="47.378723" lon="13.215451">
 <ele>525.81</ele>
 <time>2010-08-08T06:26:22Z</time>
 </trkpt>
 <trkpt lat="47.378296" lon="13.215195">
 <ele>526.56</ele>
 <time>2010-08-08T06:26:32Z</time>
 </trkpt>
 <trkpt lat="47.377922" lon="13.214938">
 <ele>527.26</ele>
 <time>2010-08-08T06:26:41Z</time>
 </trkpt>
 <trkpt lat="47.377548" lon="13.214619">
 <ele>527.82</ele>
 <time>2010-08-08T06:26:50Z</time>
 </trkpt>
 <trkpt lat="47.377174" lon="13.214301">
 <ele>527.70</ele>
 <time>2010-08-08T06:26:59Z</time>
 </trkpt>
 <trkpt lat="47.376831" lon="13.214154">
 <ele>527.40</ele>
 <time>2010-08-08T06:27:06Z</time>
 </trkpt>
 <trkpt lat="47.376499" lon="13.214082">
 <ele>526.85</ele>
 <time>2010-08-08T06:27:12Z</time>
 </trkpt>
 <trkpt lat="47.376148" lon="13.213889">
 <ele>525.30</ele>
 <time>2010-08-08T06:27:18Z</time>
 </trkpt>
 <trkpt lat="47.375751" lon="13.213668">
 <ele>523.12</ele>
 <time>2010-08-08T06:27:24Z</time>
 </trkpt>
 <trkpt lat="47.375305" lon="13.213434">
 <ele>522.37</ele>
 <time>2010-08-08T06:27:31Z</time>
 </trkpt>
 <trkpt lat="47.374840" lon="13.213159">
 <ele>522.34</ele>
 <time>2010-08-08T06:27:39Z</time>
 </trkpt>
 <trkpt lat="47.374332" lon="13.212947">
 <ele>522.34</ele>
 <time>2010-08-08T06:27:48Z</time>
 </trkpt>
 <trkpt lat="47.373920" lon="13.212847">
 <ele>522.87</ele>
 <time>2010-08-08T06:27:56Z</time>
 </trkpt>
 <trkpt lat="47.373505" lon="13.212863">
 <ele>523.17</ele>
 <time>2010-08-08T06:28:04Z</time>
 </trkpt>
 <trkpt lat="47.372810" lon="13.212891">
 <ele>523.48</ele>
 <time>2010-08-08T06:28:17Z</time>
 </trkpt>
 <trkpt lat="47.372391" lon="13.212905">
 <ele>523.54</ele>
 <time>2010-08-08T06:28:25Z</time>
 </trkpt>
 <trkpt lat="47.371887" lon="13.212659">
 <ele>524.14</ele>
 <time>2010-08-08T06:28:35Z</time>
 </trkpt>
 <trkpt lat="47.371601" lon="13.212510">
 <ele>524.13</ele>
 <time>2010-08-08T06:28:41Z</time>
 </trkpt>
 <trkpt lat="47.371159" lon="13.212282">
 <ele>524.31</ele>
 <time>2010-08-08T06:28:50Z</time>
 </trkpt>
 <trkpt lat="47.370773" lon="13.212089">
 <ele>524.64</ele>
 <time>2010-08-08T06:28:58Z</time>
 </trkpt>
 <trkpt lat="47.370327" lon="13.211813">
 <ele>524.97</ele>
 <time>2010-08-08T06:29:08Z</time>
 </trkpt>
 <trkpt lat="47.370113" lon="13.211514">
 <ele>525.31</ele>
 <time>2010-08-08T06:29:14Z</time>
 </trkpt>
 <trkpt lat="47.369976" lon="13.211317">
 <ele>525.77</ele>
 <time>2010-08-08T06:29:18Z</time>
 </trkpt>
 <trkpt lat="47.369682" lon="13.210907">
 <ele>527.15</ele>
 <time>2010-08-08T06:29:27Z</time>
 </trkpt>
 <trkpt lat="47.369648" lon="13.210859">
 <ele>527.23</ele>
 <time>2010-08-08T06:29:28Z</time>
 </trkpt>
 <trkpt lat="47.369492" lon="13.210753">
 <ele>527.14</ele>
 <time>2010-08-08T06:29:32Z</time>
 </trkpt>
 <trkpt lat="47.369293" lon="13.210701">
 <ele>526.95</ele>
 <time>2010-08-08T06:29:36Z</time>
 </trkpt>
 <trkpt lat="47.368771" lon="13.210562">
 <ele>526.65</ele>
 <time>2010-08-08T06:29:46Z</time>
 </trkpt>
 <trkpt lat="47.368279" lon="13.210537">
 <ele>526.96</ele>
 <time>2010-08-08T06:29:55Z</time>
 </trkpt>
 <trkpt lat="47.367893" lon="13.210325">
 <ele>527.36</ele>
 <time>2010-08-08T06:30:03Z</time>
 </trkpt>
 <trkpt lat="47.367558" lon="13.210139">
 <ele>527.82</ele>
 <time>2010-08-08T06:30:10Z</time>
 </trkpt>
 <trkpt lat="47.367092" lon="13.210137">
 <ele>528.04</ele>
 <time>2010-08-08T06:30:19Z</time>
 </trkpt>
 <trkpt lat="47.366508" lon="13.210137">
 <ele>528.01</ele>
 <time>2010-08-08T06:30:30Z</time>
 </trkpt>
 <trkpt lat="47.365864" lon="13.210129">
 <ele>528.62</ele>
 <time>2010-08-08T06:30:42Z</time>
 </trkpt>
 <trkpt lat="47.365566" lon="13.209980">
 <ele>528.71</ele>
 <time>2010-08-08T06:30:48Z</time>
 </trkpt>
 <trkpt lat="47.365070" lon="13.209762">
 <ele>530.06</ele>
 <time>2010-08-08T06:30:58Z</time>
 </trkpt>
 <trkpt lat="47.364635" lon="13.209506">
 <ele>529.77</ele>
 <time>2010-08-08T06:31:07Z</time>
 </trkpt>
 <trkpt lat="47.364307" lon="13.209298">
 <ele>530.30</ele>
 <time>2010-08-08T06:31:14Z</time>
 </trkpt>
 <trkpt lat="47.363926" lon="13.209164">
 <ele>531.09</ele>
 <time>2010-08-08T06:31:22Z</time>
 </trkpt>
 <trkpt lat="47.363560" lon="13.209047">
 <ele>530.40</ele>
 <time>2010-08-08T06:31:29Z</time>
 </trkpt>
 <trkpt lat="47.363235" lon="13.208956">
 <ele>530.04</ele>
 <time>2010-08-08T06:31:35Z</time>
 </trkpt>
 <trkpt lat="47.362858" lon="13.208774">
 <ele>530.59</ele>
 <time>2010-08-08T06:31:43Z</time>
 </trkpt>
 <trkpt lat="47.362423" lon="13.208517">
 <ele>531.88</ele>
 <time>2010-08-08T06:31:53Z</time>
 </trkpt>
 <trkpt lat="47.362007" lon="13.208479">
 <ele>532.45</ele>
 <time>2010-08-08T06:32:02Z</time>
 </trkpt>
 <trkpt lat="47.361591" lon="13.208450">
 <ele>532.94</ele>
 <time>2010-08-08T06:32:11Z</time>
 </trkpt>
 <trkpt lat="47.361176" lon="13.208421">
 <ele>533.44</ele>
 <time>2010-08-08T06:32:20Z</time>
 </trkpt>
 <trkpt lat="47.360729" lon="13.208280">
 <ele>534.37</ele>
 <time>2010-08-08T06:32:29Z</time>
 </trkpt>
 <trkpt lat="47.360447" lon="13.208016">
 <ele>534.33</ele>
 <time>2010-08-08T06:32:36Z</time>
 </trkpt>
 <trkpt lat="47.360176" lon="13.207766">
 <ele>533.56</ele>
 <time>2010-08-08T06:32:42Z</time>
 </trkpt>
 <trkpt lat="47.360004" lon="13.207606">
 <ele>533.27</ele>
 <time>2010-08-08T06:32:47Z</time>
 </trkpt>
 <trkpt lat="47.359974" lon="13.207578">
 <ele>533.20</ele>
 <time>2010-08-08T06:32:48Z</time>
 </trkpt>
 <trkpt lat="47.359722" lon="13.207348">
 <ele>533.40</ele>
 <time>2010-08-08T06:32:55Z</time>
 </trkpt>
 <trkpt lat="47.359547" lon="13.206658">
 <ele>533.60</ele>
 <time>2010-08-08T06:33:04Z</time>
 </trkpt>
 <trkpt lat="47.359486" lon="13.206575">
 <ele>534.42</ele>
 <time>2010-08-08T06:33:11Z</time>
 </trkpt>
 <trkpt lat="47.359108" lon="13.206052">
 <ele>533.99</ele>
 <time>2010-08-08T06:33:19Z</time>
 </trkpt>
 <trkpt lat="47.358868" lon="13.205710">
 <ele>533.92</ele>
 <time>2010-08-08T06:33:26Z</time>
 </trkpt>
 <trkpt lat="47.358555" lon="13.205169">
 <ele>534.16</ele>
 <time>2010-08-08T06:33:36Z</time>
 </trkpt>
 <trkpt lat="47.358303" lon="13.204741">
 <ele>534.59</ele>
 <time>2010-08-08T06:33:44Z</time>
 </trkpt>
 <trkpt lat="47.358013" lon="13.204376">
 <ele>534.28</ele>
 <time>2010-08-08T06:33:52Z</time>
 </trkpt>
 <trkpt lat="47.357670" lon="13.203947">
 <ele>534.31</ele>
 <time>2010-08-08T06:34:01Z</time>
 </trkpt>
 <trkpt lat="47.357243" lon="13.203510">
 <ele>534.92</ele>
 <time>2010-08-08T06:34:12Z</time>
 </trkpt>
 <trkpt lat="47.356918" lon="13.203253">
 <ele>535.39</ele>
 <time>2010-08-08T06:34:20Z</time>
 </trkpt>
 <trkpt lat="47.356537" lon="13.203021">
 <ele>535.65</ele>
 <time>2010-08-08T06:34:29Z</time>
 </trkpt>
 <trkpt lat="47.356201" lon="13.202863">
 <ele>535.94</ele>
 <time>2010-08-08T06:34:37Z</time>
 </trkpt>
 <trkpt lat="47.355961" lon="13.202749">
 <ele>537.65</ele>
 <time>2010-08-08T06:34:44Z</time>
 </trkpt>
 <trkpt lat="47.355850" lon="13.202695">
 <ele>538.63</ele>
 <time>2010-08-08T06:34:49Z</time>
 </trkpt>
 <trkpt lat="47.355675" lon="13.202610">
 <ele>538.34</ele>
 <time>2010-08-08T06:34:54Z</time>
 </trkpt>
 <trkpt lat="47.355358" lon="13.202459">
 <ele>536.75</ele>
 <time>2010-08-08T06:35:00Z</time>
 </trkpt>
 <trkpt lat="47.354954" lon="13.202268">
 <ele>536.39</ele>
 <time>2010-08-08T06:35:08Z</time>
 </trkpt>
 <trkpt lat="47.354588" lon="13.202067">
 <ele>536.96</ele>
 <time>2010-08-08T06:35:16Z</time>
 </trkpt>
 <trkpt lat="47.354202" lon="13.201795">
 <ele>537.19</ele>
 <time>2010-08-08T06:35:25Z</time>
 </trkpt>
 <trkpt lat="47.353806" lon="13.201487">
 <ele>537.21</ele>
 <time>2010-08-08T06:35:34Z</time>
 </trkpt>
 <trkpt lat="47.353447" lon="13.201216">
 <ele>537.27</ele>
 <time>2010-08-08T06:35:42Z</time>
 </trkpt>
 <trkpt lat="47.353058" lon="13.200930">
 <ele>537.68</ele>
 <time>2010-08-08T06:35:51Z</time>
 </trkpt>
 <trkpt lat="47.352676" lon="13.200612">
 <ele>537.82</ele>
 <time>2010-08-08T06:36:00Z</time>
 </trkpt>
 <trkpt lat="47.352352" lon="13.200301">
 <ele>538.26</ele>
 <time>2010-08-08T06:36:08Z</time>
 </trkpt>
 <trkpt lat="47.352116" lon="13.200057">
 <ele>538.00</ele>
 <time>2010-08-08T06:36:14Z</time>
 </trkpt>
 <trkpt lat="47.351814" lon="13.199727">
 <ele>538.48</ele>
 <time>2010-08-08T06:36:22Z</time>
 </trkpt>
 <trkpt lat="47.351681" lon="13.199550">
 <ele>538.85</ele>
 <time>2010-08-08T06:36:26Z</time>
 </trkpt>
 <trkpt lat="47.351456" lon="13.199255">
 <ele>537.77</ele>
 <time>2010-08-08T06:36:32Z</time>
 </trkpt>
 <trkpt lat="47.351173" lon="13.198791">
 <ele>537.83</ele>
 <time>2010-08-08T06:36:40Z</time>
 </trkpt>
 <trkpt lat="47.350880" lon="13.198255">
 <ele>537.82</ele>
 <time>2010-08-08T06:36:49Z</time>
 </trkpt>
 <trkpt lat="47.350597" lon="13.197725">
 <ele>538.43</ele>
 <time>2010-08-08T06:36:58Z</time>
 </trkpt>
 <trkpt lat="47.350384" lon="13.197328">
 <ele>538.52</ele>
 <time>2010-08-08T06:37:05Z</time>
 </trkpt>
 <trkpt lat="47.350002" lon="13.196878">
 <ele>539.21</ele>
 <time>2010-08-08T06:37:14Z</time>
 </trkpt>
 <trkpt lat="47.349533" lon="13.196545">
 <ele>539.39</ele>
 <time>2010-08-08T06:37:23Z</time>
 </trkpt>
 <trkpt lat="47.349091" lon="13.196332">
 <ele>540.76</ele>
 <time>2010-08-08T06:37:33Z</time>
 </trkpt>
 <trkpt lat="47.348675" lon="13.196162">
 <ele>541.42</ele>
 <time>2010-08-08T06:37:42Z</time>
 </trkpt>
 <trkpt lat="47.348251" lon="13.196009">
 <ele>541.43</ele>
 <time>2010-08-08T06:37:51Z</time>
 </trkpt>
 <trkpt lat="47.347908" lon="13.195902">
 <ele>540.79</ele>
 <time>2010-08-08T06:37:58Z</time>
 </trkpt>
 <trkpt lat="47.347477" lon="13.195769">
 <ele>540.64</ele>
 <time>2010-08-08T06:38:07Z</time>
 </trkpt>
 <trkpt lat="47.347149" lon="13.195696">
 <ele>541.93</ele>
 <time>2010-08-08T06:38:13Z</time>
 </trkpt>
 <trkpt lat="47.347057" lon="13.196216">
 <ele>542.64</ele>
 <time>2010-08-08T06:38:17Z</time>
 </trkpt>
 <trkpt lat="47.346973" lon="13.196489">
 <ele>543.93</ele>
 <time>2010-08-08T06:38:24Z</time>
 </trkpt>
 <trkpt lat="47.346832" lon="13.196835">
 <ele>544.08</ele>
 <time>2010-08-08T06:38:32Z</time>
 </trkpt>
 <trkpt lat="47.346760" lon="13.197020">
 <ele>544.55</ele>
 <time>2010-08-08T06:38:37Z</time>
 </trkpt>
 <trkpt lat="47.346657" lon="13.197033">
 <ele>544.96</ele>
 <time>2010-08-08T06:38:42Z</time>
 </trkpt>
 <trkpt lat="47.346535" lon="13.196977">
 <ele>545.00</ele>
 <time>2010-08-08T06:38:46Z</time>
 </trkpt>
 <trkpt lat="47.346439" lon="13.196935">
 <ele>544.95</ele>
 <time>2010-08-08T06:38:49Z</time>
 </trkpt>
 <trkpt lat="47.346355" lon="13.196898">
 <ele>544.96</ele>
 <time>2010-08-08T06:38:53Z</time>
 </trkpt>
 <trkpt lat="47.346020" lon="13.197157">
 <ele>545.55</ele>
 <time>2010-08-08T06:39:03Z</time>
 </trkpt>
 <trkpt lat="47.345749" lon="13.197374">
 <ele>546.69</ele>
 <time>2010-08-08T06:39:12Z</time>
 </trkpt>
 <trkpt lat="47.345646" lon="13.197577">
 <ele>547.06</ele>
 <time>2010-08-08T06:39:17Z</time>
 </trkpt>
 <trkpt lat="47.345539" lon="13.197778">
 <ele>547.82</ele>
 <time>2010-08-08T06:39:23Z</time>
 </trkpt>
 <trkpt lat="47.345413" lon="13.198118">
 <ele>549.39</ele>
 <time>2010-08-08T06:39:31Z</time>
 </trkpt>
 <trkpt lat="47.345329" lon="13.198376">
 <ele>550.62</ele>
 <time>2010-08-08T06:39:37Z</time>
 </trkpt>
 <trkpt lat="47.345200" lon="13.198677">
 <ele>551.50</ele>
 <time>2010-08-08T06:39:44Z</time>
 </trkpt>
 <trkpt lat="47.345081" lon="13.198950">
 <ele>551.24</ele>
 <time>2010-08-08T06:39:50Z</time>
 </trkpt>
 <trkpt lat="47.344929" lon="13.199304">
 <ele>551.61</ele>
 <time>2010-08-08T06:39:57Z</time>
 </trkpt>
 <trkpt lat="47.344765" lon="13.199686">
 <ele>551.96</ele>
 <time>2010-08-08T06:40:05Z</time>
 </trkpt>
 <trkpt lat="47.344688" lon="13.199865">
 <ele>552.18</ele>
 <time>2010-08-08T06:40:09Z</time>
 </trkpt>
 <trkpt lat="47.344463" lon="13.199880">
 <ele>552.32</ele>
 <time>2010-08-08T06:40:14Z</time>
 </trkpt>
 <trkpt lat="47.344376" lon="13.199865">
 <ele>552.03</ele>
 <time>2010-08-08T06:40:16Z</time>
 </trkpt>
 <trkpt lat="47.344059" lon="13.199730">
 <ele>551.55</ele>
 <time>2010-08-08T06:40:23Z</time>
 </trkpt>
 <trkpt lat="47.343723" lon="13.199656">
 <ele>551.90</ele>
 <time>2010-08-08T06:40:30Z</time>
 </trkpt>
 <trkpt lat="47.343403" lon="13.199701">
 <ele>552.54</ele>
 <time>2010-08-08T06:40:37Z</time>
 </trkpt>
 <trkpt lat="47.343262" lon="13.199686">
 <ele>552.84</ele>
 <time>2010-08-08T06:40:40Z</time>
 </trkpt>
 <trkpt lat="47.343048" lon="13.199584">
 <ele>553.43</ele>
 <time>2010-08-08T06:40:45Z</time>
 </trkpt>
 <trkpt lat="47.342915" lon="13.199336">
 <ele>554.02</ele>
 <time>2010-08-08T06:40:50Z</time>
 </trkpt>
 <trkpt lat="47.342827" lon="13.199010">
 <ele>554.74</ele>
 <time>2010-08-08T06:40:56Z</time>
 </trkpt>
 <trkpt lat="47.342724" lon="13.198789">
 <ele>555.11</ele>
 <time>2010-08-08T06:41:01Z</time>
 </trkpt>
 <trkpt lat="47.342575" lon="13.198746">
 <ele>555.37</ele>
 <time>2010-08-08T06:41:05Z</time>
 </trkpt>
 <trkpt lat="47.342148" lon="13.198839">
 <ele>555.01</ele>
 <time>2010-08-08T06:41:15Z</time>
 </trkpt>
 <trkpt lat="47.341675" lon="13.198954">
 <ele>554.91</ele>
 <time>2010-08-08T06:41:25Z</time>
 </trkpt>
 <trkpt lat="47.341209" lon="13.199022">
 <ele>554.26</ele>
 <time>2010-08-08T06:41:34Z</time>
 </trkpt>
 <trkpt lat="47.340748" lon="13.198912">
 <ele>553.88</ele>
 <time>2010-08-08T06:41:43Z</time>
 </trkpt>
 <trkpt lat="47.340324" lon="13.198757">
 <ele>554.29</ele>
 <time>2010-08-08T06:41:52Z</time>
 </trkpt>
 <trkpt lat="47.339874" lon="13.198590">
 <ele>556.06</ele>
 <time>2010-08-08T06:42:03Z</time>
 </trkpt>
 <trkpt lat="47.339592" lon="13.198483">
 <ele>557.17</ele>
 <time>2010-08-08T06:42:11Z</time>
 </trkpt>
 <trkpt lat="47.339355" lon="13.198272">
 <ele>558.02</ele>
 <time>2010-08-08T06:42:19Z</time>
 </trkpt>
 <trkpt lat="47.339314" lon="13.198238">
 <ele>558.21</ele>
 <time>2010-08-08T06:42:21Z</time>
 </trkpt>
 <trkpt lat="47.339203" lon="13.198349">
 <ele>558.63</ele>
 <time>2010-08-08T06:42:26Z</time>
 </trkpt>
 <trkpt lat="47.339081" lon="13.198588">
 <ele>560.10</ele>
 <time>2010-08-08T06:42:34Z</time>
 </trkpt>
 <trkpt lat="47.338978" lon="13.198794">
 <ele>561.13</ele>
 <time>2010-08-08T06:42:41Z</time>
 </trkpt>
 <trkpt lat="47.338829" lon="13.199094">
 <ele>563.28</ele>
 <time>2010-08-08T06:42:52Z</time>
 </trkpt>
 <trkpt lat="47.338642" lon="13.199369">
 <ele>565.07</ele>
 <time>2010-08-08T06:43:04Z</time>
 </trkpt>
 <trkpt lat="47.338505" lon="13.199561">
 <ele>566.63</ele>
 <time>2010-08-08T06:43:13Z</time>
 </trkpt>
 <trkpt lat="47.338322" lon="13.199766">
 <ele>567.90</ele>
 <time>2010-08-08T06:43:24Z</time>
 </trkpt>
 <trkpt lat="47.338150" lon="13.199914">
 <ele>569.42</ele>
 <time>2010-08-08T06:43:34Z</time>
 </trkpt>
 <trkpt lat="47.338024" lon="13.200020">
 <ele>571.07</ele>
 <time>2010-08-08T06:43:41Z</time>
 </trkpt>
 <trkpt lat="47.337822" lon="13.200194">
 <ele>573.07</ele>
 <time>2010-08-08T06:43:53Z</time>
 </trkpt>
 <trkpt lat="47.337631" lon="13.200263">
 <ele>574.87</ele>
 <time>2010-08-08T06:44:03Z</time>
 </trkpt>
 <trkpt lat="47.337444" lon="13.200325">
 <ele>577.01</ele>
 <time>2010-08-08T06:44:14Z</time>
 </trkpt>
 <trkpt lat="47.337238" lon="13.200318">
 <ele>578.49</ele>
 <time>2010-08-08T06:44:25Z</time>
 </trkpt>
 <trkpt lat="47.337067" lon="13.200306">
 <ele>580.46</ele>
 <time>2010-08-08T06:44:35Z</time>
 </trkpt>
 <trkpt lat="47.336876" lon="13.200293">
 <ele>582.21</ele>
 <time>2010-08-08T06:44:46Z</time>
 </trkpt>
 <trkpt lat="47.336617" lon="13.200187">
 <ele>584.82</ele>
 <time>2010-08-08T06:45:00Z</time>
 </trkpt>
 <trkpt lat="47.336433" lon="13.200089">
 <ele>586.80</ele>
 <time>2010-08-08T06:45:11Z</time>
 </trkpt>
 <trkpt lat="47.336224" lon="13.199961">
 <ele>588.93</ele>
 <time>2010-08-08T06:45:23Z</time>
 </trkpt>
 <trkpt lat="47.336079" lon="13.199791">
 <ele>590.64</ele>
 <time>2010-08-08T06:45:34Z</time>
 </trkpt>
 <trkpt lat="47.335941" lon="13.199630">
 <ele>592.45</ele>
 <time>2010-08-08T06:45:44Z</time>
 </trkpt>
 <trkpt lat="47.335789" lon="13.199453">
 <ele>594.23</ele>
 <time>2010-08-08T06:45:55Z</time>
 </trkpt>
 <trkpt lat="47.335632" lon="13.199275">
 <ele>596.27</ele>
 <time>2010-08-08T06:46:06Z</time>
 </trkpt>
 <trkpt lat="47.335484" lon="13.199100">
 <ele>597.79</ele>
 <time>2010-08-08T06:46:17Z</time>
 </trkpt>
 <trkpt lat="47.335316" lon="13.198889">
 <ele>599.47</ele>
 <time>2010-08-08T06:46:29Z</time>
 </trkpt>
 <trkpt lat="47.335178" lon="13.198710">
 <ele>601.07</ele>
 <time>2010-08-08T06:46:39Z</time>
 </trkpt>
 <trkpt lat="47.335018" lon="13.198504">
 <ele>602.42</ele>
 <time>2010-08-08T06:46:50Z</time>
 </trkpt>
 <trkpt lat="47.334869" lon="13.198421">
 <ele>603.64</ele>
 <time>2010-08-08T06:47:00Z</time>
 </trkpt>
 <trkpt lat="47.334686" lon="13.198333">
 <ele>605.21</ele>
 <time>2010-08-08T06:47:11Z</time>
 </trkpt>
 <trkpt lat="47.334538" lon="13.198260">
 <ele>606.33</ele>
 <time>2010-08-08T06:47:20Z</time>
 </trkpt>
 <trkpt lat="47.334381" lon="13.198185">
 <ele>608.04</ele>
 <time>2010-08-08T06:47:31Z</time>
 </trkpt>
 <trkpt lat="47.334381" lon="13.198185">
 <ele>609.27</ele>
 <time>2010-08-08T06:47:41Z</time>
 </trkpt>
 <trkpt lat="47.334007" lon="13.198209">
 <ele>610.48</ele>
 <time>2010-08-08T06:47:51Z</time>
 </trkpt>
 <trkpt lat="47.333794" lon="13.198223">
 <ele>612.15</ele>
 <time>2010-08-08T06:48:03Z</time>
 </trkpt>
 <trkpt lat="47.333561" lon="13.198239">
 <ele>613.80</ele>
 <time>2010-08-08T06:48:16Z</time>
 </trkpt>
 <trkpt lat="47.333378" lon="13.198248">
 <ele>615.68</ele>
 <time>2010-08-08T06:48:27Z</time>
 </trkpt>
 <trkpt lat="47.333195" lon="13.198229">
 <ele>617.32</ele>
 <time>2010-08-08T06:48:38Z</time>
 </trkpt>
 <trkpt lat="47.333096" lon="13.198219">
 <ele>618.29</ele>
 <time>2010-08-08T06:48:44Z</time>
 </trkpt>
 <trkpt lat="47.332973" lon="13.198207">
 <ele>618.97</ele>
 <time>2010-08-08T06:48:51Z</time>
 </trkpt>
 <trkpt lat="47.332817" lon="13.198191">
 <ele>620.00</ele>
 <time>2010-08-08T06:49:00Z</time>
 </trkpt>
 <trkpt lat="47.332600" lon="13.198168">
 <ele>621.89</ele>
 <time>2010-08-08T06:49:12Z</time>
 </trkpt>
 <trkpt lat="47.332401" lon="13.198148">
 <ele>623.17</ele>
 <time>2010-08-08T06:49:23Z</time>
 </trkpt>
 <trkpt lat="47.332211" lon="13.198077">
 <ele>624.88</ele>
 <time>2010-08-08T06:49:33Z</time>
 </trkpt>
 <trkpt lat="47.332016" lon="13.197997">
 <ele>626.64</ele>
 <time>2010-08-08T06:49:44Z</time>
 </trkpt>
 <trkpt lat="47.331791" lon="13.197910">
 <ele>628.63</ele>
 <time>2010-08-08T06:49:57Z</time>
 </trkpt>
 <trkpt lat="47.331654" lon="13.197857">
 <ele>629.76</ele>
 <time>2010-08-08T06:50:05Z</time>
 </trkpt>
 <trkpt lat="47.331444" lon="13.197785">
 <ele>631.06</ele>
 <time>2010-08-08T06:50:17Z</time>
 </trkpt>
 <trkpt lat="47.331219" lon="13.197736">
 <ele>632.68</ele>
 <time>2010-08-08T06:50:29Z</time>
 </trkpt>
 <trkpt lat="47.330982" lon="13.197684">
 <ele>634.53</ele>
 <time>2010-08-08T06:50:42Z</time>
 </trkpt>
 <trkpt lat="47.330791" lon="13.197643">
 <ele>635.86</ele>
 <time>2010-08-08T06:50:52Z</time>
 </trkpt>
 <trkpt lat="47.330612" lon="13.197602">
 <ele>637.24</ele>
 <time>2010-08-08T06:51:02Z</time>
 </trkpt>
 <trkpt lat="47.330425" lon="13.197553">
 <ele>638.79</ele>
 <time>2010-08-08T06:51:12Z</time>
 </trkpt>
 <trkpt lat="47.330208" lon="13.197496">
 <ele>640.54</ele>
 <time>2010-08-08T06:51:24Z</time>
 </trkpt>
 <trkpt lat="47.330006" lon="13.197443">
 <ele>641.88</ele>
 <time>2010-08-08T06:51:35Z</time>
 </trkpt>
 <trkpt lat="47.329769" lon="13.197381">
 <ele>643.66</ele>
 <time>2010-08-08T06:51:48Z</time>
 </trkpt>
 <trkpt lat="47.329548" lon="13.197323">
 <ele>645.40</ele>
 <time>2010-08-08T06:52:00Z</time>
 </trkpt>
 <trkpt lat="47.329327" lon="13.197265">
 <ele>647.21</ele>
 <time>2010-08-08T06:52:12Z</time>
 </trkpt>
 <trkpt lat="47.329075" lon="13.197225">
 <ele>648.83</ele>
 <time>2010-08-08T06:52:25Z</time>
 </trkpt>
 <trkpt lat="47.328861" lon="13.197191">
 <ele>649.96</ele>
 <time>2010-08-08T06:52:36Z</time>
 </trkpt>
 <trkpt lat="47.328621" lon="13.197153">
 <ele>651.67</ele>
 <time>2010-08-08T06:52:48Z</time>
 </trkpt>
 <trkpt lat="47.328426" lon="13.197123">
 <ele>652.66</ele>
 <time>2010-08-08T06:52:58Z</time>
 </trkpt>
 <trkpt lat="47.328239" lon="13.197093">
 <ele>654.07</ele>
 <time>2010-08-08T06:53:08Z</time>
 </trkpt>
 <trkpt lat="47.328064" lon="13.197076">
 <ele>655.03</ele>
 <time>2010-08-08T06:53:17Z</time>
 </trkpt>
 <trkpt lat="47.327881" lon="13.197059">
 <ele>656.63</ele>
 <time>2010-08-08T06:53:27Z</time>
 </trkpt>
 <trkpt lat="47.327686" lon="13.197041">
 <ele>658.11</ele>
 <time>2010-08-08T06:53:37Z</time>
 </trkpt>
 <trkpt lat="47.327496" lon="13.197023">
 <ele>659.42</ele>
 <time>2010-08-08T06:53:47Z</time>
 </trkpt>
 <trkpt lat="47.327282" lon="13.196994">
 <ele>660.83</ele>
 <time>2010-08-08T06:53:58Z</time>
 </trkpt>
 <trkpt lat="47.327129" lon="13.196895">
 <ele>662.09</ele>
 <time>2010-08-08T06:54:07Z</time>
 </trkpt>
 <trkpt lat="47.326954" lon="13.196780">
 <ele>663.82</ele>
 <time>2010-08-08T06:54:17Z</time>
 </trkpt>
 <trkpt lat="47.326778" lon="13.196666">
 <ele>665.34</ele>
 <time>2010-08-08T06:54:28Z</time>
 </trkpt>
 <trkpt lat="47.326649" lon="13.196582">
 <ele>666.29</ele>
 <time>2010-08-08T06:54:36Z</time>
 </trkpt>
 <trkpt lat="47.326488" lon="13.196479">
 <ele>667.45</ele>
 <time>2010-08-08T06:54:45Z</time>
 </trkpt>
 <trkpt lat="47.326321" lon="13.196371">
 <ele>669.12</ele>
 <time>2010-08-08T06:54:55Z</time>
 </trkpt>
 <trkpt lat="47.326172" lon="13.196274">
 <ele>670.26</ele>
 <time>2010-08-08T06:55:04Z</time>
 </trkpt>
 <trkpt lat="47.326035" lon="13.196148">
 <ele>671.32</ele>
 <time>2010-08-08T06:55:13Z</time>
 </trkpt>
 <trkpt lat="47.325871" lon="13.195989">
 <ele>672.88</ele>
 <time>2010-08-08T06:55:23Z</time>
 </trkpt>
 <trkpt lat="47.325630" lon="13.195754">
 <ele>674.61</ele>
 <time>2010-08-08T06:55:38Z</time>
 </trkpt>
 <trkpt lat="47.325462" lon="13.195589">
 <ele>676.27</ele>
 <time>2010-08-08T06:55:49Z</time>
 </trkpt>
 <trkpt lat="47.325314" lon="13.195443">
 <ele>677.64</ele>
 <time>2010-08-08T06:55:58Z</time>
 </trkpt>
 <trkpt lat="47.325161" lon="13.195292">
 <ele>679.04</ele>
 <time>2010-08-08T06:56:08Z</time>
 </trkpt>
 <trkpt lat="47.325035" lon="13.195169">
 <ele>679.98</ele>
 <time>2010-08-08T06:56:16Z</time>
 </trkpt>
 <trkpt lat="47.324871" lon="13.195032">
 <ele>681.52</ele>
 <time>2010-08-08T06:56:26Z</time>
 </trkpt>
 <trkpt lat="47.324673" lon="13.194907">
 <ele>683.31</ele>
 <time>2010-08-08T06:56:38Z</time>
 </trkpt>
 <trkpt lat="47.324432" lon="13.194758">
 <ele>684.87</ele>
 <time>2010-08-08T06:56:52Z</time>
 </trkpt>
 <trkpt lat="47.324196" lon="13.194610">
 <ele>686.79</ele>
 <time>2010-08-08T06:57:06Z</time>
 </trkpt>
 <trkpt lat="47.323994" lon="13.194484">
 <ele>688.30</ele>
 <time>2010-08-08T06:57:18Z</time>
 </trkpt>
 <trkpt lat="47.323788" lon="13.194357">
 <ele>690.01</ele>
 <time>2010-08-08T06:57:30Z</time>
 </trkpt>
 <trkpt lat="47.323589" lon="13.194234">
 <ele>691.86</ele>
 <time>2010-08-08T06:57:42Z</time>
 </trkpt>
 <trkpt lat="47.323399" lon="13.194115">
 <ele>693.90</ele>
 <time>2010-08-08T06:57:54Z</time>
 </trkpt>
 <trkpt lat="47.323215" lon="13.194001">
 <ele>695.11</ele>
 <time>2010-08-08T06:58:05Z</time>
 </trkpt>
 <trkpt lat="47.323071" lon="13.193910">
 <ele>696.58</ele>
 <time>2010-08-08T06:58:14Z</time>
 </trkpt>
 <trkpt lat="47.322868" lon="13.193784">
 <ele>698.90</ele>
 <time>2010-08-08T06:58:26Z</time>
 </trkpt>
 <trkpt lat="47.322720" lon="13.193691">
 <ele>700.18</ele>
 <time>2010-08-08T06:58:35Z</time>
 </trkpt>
 <trkpt lat="47.322552" lon="13.193586">
 <ele>701.91</ele>
 <time>2010-08-08T06:58:45Z</time>
 </trkpt>
 <trkpt lat="47.322342" lon="13.193456">
 <ele>704.05</ele>
 <time>2010-08-08T06:58:58Z</time>
 </trkpt>
 <trkpt lat="47.322147" lon="13.193371">
 <ele>705.98</ele>
 <time>2010-08-08T06:59:09Z</time>
 </trkpt>
 <trkpt lat="47.321957" lon="13.193365">
 <ele>707.25</ele>
 <time>2010-08-08T06:59:19Z</time>
 </trkpt>
 <trkpt lat="47.321804" lon="13.193428">
 <ele>708.55</ele>
 <time>2010-08-08T06:59:28Z</time>
 </trkpt>
 <trkpt lat="47.321636" lon="13.193632">
 <ele>709.82</ele>
 <time>2010-08-08T06:59:40Z</time>
 </trkpt>
 <trkpt lat="47.321541" lon="13.193875">
 <ele>710.88</ele>
 <time>2010-08-08T06:59:51Z</time>
 </trkpt>
 <trkpt lat="47.321499" lon="13.194001">
 <ele>711.58</ele>
 <time>2010-08-08T06:59:58Z</time>
 </trkpt>
 <trkpt lat="47.321472" lon="13.194067">
 <ele>712.59</ele>
 <time>2010-08-08T07:02:10Z</time>
 </trkpt>
 <trkpt lat="47.321415" lon="13.194203">
 <ele>713.28</ele>
 <time>2010-08-08T07:02:17Z</time>
 </trkpt>
 <trkpt lat="47.321312" lon="13.194366">
 <ele>713.99</ele>
 <time>2010-08-08T07:02:25Z</time>
 </trkpt>
 <trkpt lat="47.321228" lon="13.194494">
 <ele>714.33</ele>
 <time>2010-08-08T07:02:32Z</time>
 </trkpt>
 <trkpt lat="47.321095" lon="13.194581">
 <ele>715.67</ele>
 <time>2010-08-08T07:02:41Z</time>
 </trkpt>
 <trkpt lat="47.320934" lon="13.194682">
 <ele>716.40</ele>
 <time>2010-08-08T07:02:51Z</time>
 </trkpt>
 <trkpt lat="47.320797" lon="13.194738">
 <ele>718.93</ele>
 <time>2010-08-08T07:03:00Z</time>
 </trkpt>
 <trkpt lat="47.320606" lon="13.194760">
 <ele>720.94</ele>
 <time>2010-08-08T07:03:12Z</time>
 </trkpt>
 <trkpt lat="47.320419" lon="13.194785">
 <ele>723.13</ele>
 <time>2010-08-08T07:03:24Z</time>
 </trkpt>
 <trkpt lat="47.320232" lon="13.194813">
 <ele>725.43</ele>
 <time>2010-08-08T07:03:36Z</time>
 </trkpt>
 <trkpt lat="47.320084" lon="13.194835">
 <ele>727.15</ele>
 <time>2010-08-08T07:03:46Z</time>
 </trkpt>
 <trkpt lat="47.319962" lon="13.194910">
 <ele>728.50</ele>
 <time>2010-08-08T07:03:55Z</time>
 </trkpt>
 <trkpt lat="47.319801" lon="13.195021">
 <ele>730.76</ele>
 <time>2010-08-08T07:04:07Z</time>
 </trkpt>
 <trkpt lat="47.319611" lon="13.195154">
 <ele>733.11</ele>
 <time>2010-08-08T07:04:21Z</time>
 </trkpt>
 <trkpt lat="47.319424" lon="13.195282">
 <ele>735.42</ele>
 <time>2010-08-08T07:04:34Z</time>
 </trkpt>
 <trkpt lat="47.319275" lon="13.195385">
 <ele>737.36</ele>
 <time>2010-08-08T07:04:45Z</time>
 </trkpt>
 <trkpt lat="47.319111" lon="13.195489">
 <ele>739.57</ele>
 <time>2010-08-08T07:04:57Z</time>
 </trkpt>
 <trkpt lat="47.318970" lon="13.195560">
 <ele>741.59</ele>
 <time>2010-08-08T07:05:07Z</time>
 </trkpt>
 <trkpt lat="47.318817" lon="13.195639">
 <ele>743.40</ele>
 <time>2010-08-08T07:05:18Z</time>
 </trkpt>
 <trkpt lat="47.318626" lon="13.195737">
 <ele>745.57</ele>
 <time>2010-08-08T07:05:31Z</time>
 </trkpt>
 <trkpt lat="47.318459" lon="13.195823">
 <ele>747.50</ele>
 <time>2010-08-08T07:05:43Z</time>
 </trkpt>
 <trkpt lat="47.318321" lon="13.195941">
 <ele>749.34</ele>
 <time>2010-08-08T07:05:54Z</time>
 </trkpt>
 <trkpt lat="47.318218" lon="13.196080">
 <ele>751.08</ele>
 <time>2010-08-08T07:06:04Z</time>
 </trkpt>
 <trkpt lat="47.318100" lon="13.196244">
 <ele>752.97</ele>
 <time>2010-08-08T07:06:15Z</time>
 </trkpt>
 <trkpt lat="47.317955" lon="13.196445">
 <ele>754.95</ele>
 <time>2010-08-08T07:06:28Z</time>
 </trkpt>
 <trkpt lat="47.317818" lon="13.196556">
 <ele>756.54</ele>
 <time>2010-08-08T07:06:38Z</time>
 </trkpt>
 <trkpt lat="47.317646" lon="13.196625">
 <ele>758.35</ele>
 <time>2010-08-08T07:06:49Z</time>
 </trkpt>
 <trkpt lat="47.317509" lon="13.196569">
 <ele>759.89</ele>
 <time>2010-08-08T07:06:58Z</time>
 </trkpt>
 <trkpt lat="47.317329" lon="13.196409">
 <ele>761.96</ele>
 <time>2010-08-08T07:07:10Z</time>
 </trkpt>
 <trkpt lat="47.317192" lon="13.196335">
 <ele>763.15</ele>
 <time>2010-08-08T07:07:19Z</time>
 </trkpt>
 <trkpt lat="47.317059" lon="13.196297">
 <ele>764.25</ele>
 <time>2010-08-08T07:07:27Z</time>
 </trkpt>
 <trkpt lat="47.316902" lon="13.196260">
 <ele>765.62</ele>
 <time>2010-08-08T07:07:36Z</time>
 </trkpt>
 <trkpt lat="47.316746" lon="13.196349">
 <ele>766.91</ele>
 <time>2010-08-08T07:07:46Z</time>
 </trkpt>
 <trkpt lat="47.316593" lon="13.196434">
 <ele>767.94</ele>
 <time>2010-08-08T07:07:55Z</time>
 </trkpt>
 <trkpt lat="47.316372" lon="13.196563">
 <ele>769.23</ele>
 <time>2010-08-08T07:08:07Z</time>
 </trkpt>
 <trkpt lat="47.316223" lon="13.196811">
 <ele>770.31</ele>
 <time>2010-08-08T07:08:19Z</time>
 </trkpt>
 <trkpt lat="47.316116" lon="13.197007">
 <ele>771.18</ele>
 <time>2010-08-08T07:08:29Z</time>
 </trkpt>
 <trkpt lat="47.316078" lon="13.197296">
 <ele>772.55</ele>
 <time>2010-08-08T07:08:40Z</time>
 </trkpt>
 <trkpt lat="47.316063" lon="13.197545">
 <ele>774.05</ele>
 <time>2010-08-08T07:08:50Z</time>
 </trkpt>
 <trkpt lat="47.316078" lon="13.197793">
 <ele>775.09</ele>
 <time>2010-08-08T07:09:00Z</time>
 </trkpt>
 <trkpt lat="47.316097" lon="13.198051">
 <ele>777.03</ele>
 <time>2010-08-08T07:09:11Z</time>
 </trkpt>
 <trkpt lat="47.316074" lon="13.198291">
 <ele>778.93</ele>
 <time>2010-08-08T07:09:21Z</time>
 </trkpt>
 <trkpt lat="47.316044" lon="13.198549">
 <ele>780.92</ele>
 <time>2010-08-08T07:09:32Z</time>
 </trkpt>
 <trkpt lat="47.315952" lon="13.198799">
 <ele>782.83</ele>
 <time>2010-08-08T07:09:43Z</time>
 </trkpt>
 <trkpt lat="47.315861" lon="13.198980">
 <ele>784.32</ele>
 <time>2010-08-08T07:09:52Z</time>
 </trkpt>
 <trkpt lat="47.315716" lon="13.199146">
 <ele>786.07</ele>
 <time>2010-08-08T07:10:02Z</time>
 </trkpt>
 <trkpt lat="47.315540" lon="13.199285">
 <ele>787.62</ele>
 <time>2010-08-08T07:10:13Z</time>
 </trkpt>
 <trkpt lat="47.315353" lon="13.199301">
 <ele>789.30</ele>
 <time>2010-08-08T07:10:23Z</time>
 </trkpt>
 <trkpt lat="47.315193" lon="13.199301">
 <ele>790.64</ele>
 <time>2010-08-08T07:10:32Z</time>
 </trkpt>
 <trkpt lat="47.314999" lon="13.199191">
 <ele>792.26</ele>
 <time>2010-08-08T07:10:44Z</time>
 </trkpt>
 <trkpt lat="47.314850" lon="13.199093">
 <ele>793.49</ele>
 <time>2010-08-08T07:10:53Z</time>
 </trkpt>
 <trkpt lat="47.314697" lon="13.198980">
 <ele>794.85</ele>
 <time>2010-08-08T07:11:03Z</time>
 </trkpt>
 <trkpt lat="47.314529" lon="13.198857">
 <ele>796.49</ele>
 <time>2010-08-08T07:11:14Z</time>
 </trkpt>
 <trkpt lat="47.314327" lon="13.198727">
 <ele>798.24</ele>
 <time>2010-08-08T07:11:27Z</time>
 </trkpt>
 <trkpt lat="47.314156" lon="13.198618">
 <ele>800.16</ele>
 <time>2010-08-08T07:11:38Z</time>
 </trkpt>
 <trkpt lat="47.313953" lon="13.198490">
 <ele>801.66</ele>
 <time>2010-08-08T07:11:51Z</time>
 </trkpt>
 <trkpt lat="47.313820" lon="13.198394">
 <ele>802.92</ele>
 <time>2010-08-08T07:12:00Z</time>
 </trkpt>
 <trkpt lat="47.313656" lon="13.198216">
 <ele>804.76</ele>
 <time>2010-08-08T07:12:12Z</time>
 </trkpt>
 <trkpt lat="47.313511" lon="13.198058">
 <ele>806.35</ele>
 <time>2010-08-08T07:12:23Z</time>
 </trkpt>
 <trkpt lat="47.313358" lon="13.197876">
 <ele>808.17</ele>
 <time>2010-08-08T07:12:35Z</time>
 </trkpt>
 <trkpt lat="47.313290" lon="13.197752">
 <ele>809.15</ele>
 <time>2010-08-08T07:12:42Z</time>
 </trkpt>
 <trkpt lat="47.313190" lon="13.197578">
 <ele>810.34</ele>
 <time>2010-08-08T07:12:51Z</time>
 </trkpt>
 <trkpt lat="47.313080" lon="13.197374">
 <ele>812.10</ele>
 <time>2010-08-08T07:13:02Z</time>
 </trkpt>
 <trkpt lat="47.313000" lon="13.197183">
 <ele>813.29</ele>
 <time>2010-08-08T07:13:11Z</time>
 </trkpt>
 <trkpt lat="47.312920" lon="13.196956">
 <ele>815.03</ele>
 <time>2010-08-08T07:13:21Z</time>
 </trkpt>
 <trkpt lat="47.312820" lon="13.196684">
 <ele>816.74</ele>
 <time>2010-08-08T07:13:33Z</time>
 </trkpt>
 <trkpt lat="47.312740" lon="13.196441">
 <ele>818.06</ele>
 <time>2010-08-08T07:13:43Z</time>
 </trkpt>
 <trkpt lat="47.312679" lon="13.196145">
 <ele>819.96</ele>
 <time>2010-08-08T07:13:55Z</time>
 </trkpt>
 <trkpt lat="47.312626" lon="13.195884">
 <ele>821.83</ele>
 <time>2010-08-08T07:14:06Z</time>
 </trkpt>
 <trkpt lat="47.312569" lon="13.195631">
 <ele>823.57</ele>
 <time>2010-08-08T07:14:17Z</time>
 </trkpt>
 <trkpt lat="47.312523" lon="13.195398">
 <ele>824.97</ele>
 <time>2010-08-08T07:14:26Z</time>
 </trkpt>
 <trkpt lat="47.312454" lon="13.195138">
 <ele>826.92</ele>
 <time>2010-08-08T07:14:37Z</time>
 </trkpt>
 <trkpt lat="47.312359" lon="13.194845">
 <ele>828.61</ele>
 <time>2010-08-08T07:14:49Z</time>
 </trkpt>
 <trkpt lat="47.312275" lon="13.194583">
 <ele>830.10</ele>
 <time>2010-08-08T07:15:00Z</time>
 </trkpt>
 <trkpt lat="47.312210" lon="13.194380">
 <ele>831.62</ele>
 <time>2010-08-08T07:15:09Z</time>
 </trkpt>
 <trkpt lat="47.312145" lon="13.194179">
 <ele>833.08</ele>
 <time>2010-08-08T07:15:18Z</time>
 </trkpt>
 <trkpt lat="47.312099" lon="13.194031">
 <ele>834.18</ele>
 <time>2010-08-08T07:15:25Z</time>
 </trkpt>
 <trkpt lat="47.312035" lon="13.193831">
 <ele>835.75</ele>
 <time>2010-08-08T07:15:34Z</time>
 </trkpt>
 <trkpt lat="47.311974" lon="13.193647">
 <ele>836.87</ele>
 <time>2010-08-08T07:15:42Z</time>
 </trkpt>
 <trkpt lat="47.311928" lon="13.193501">
 <ele>838.39</ele>
 <time>2010-08-08T07:15:48Z</time>
 </trkpt>
 <trkpt lat="47.311863" lon="13.193295">
 <ele>839.94</ele>
 <time>2010-08-08T07:15:57Z</time>
 </trkpt>
 <trkpt lat="47.311790" lon="13.193094">
 <ele>841.34</ele>
 <time>2010-08-08T07:16:06Z</time>
 </trkpt>
 <trkpt lat="47.311687" lon="13.192917">
 <ele>843.11</ele>
 <time>2010-08-08T07:16:16Z</time>
 </trkpt>
 <trkpt lat="47.311573" lon="13.192742">
 <ele>844.56</ele>
 <time>2010-08-08T07:16:25Z</time>
 </trkpt>
 <trkpt lat="47.311413" lon="13.192636">
 <ele>846.05</ele>
 <time>2010-08-08T07:16:35Z</time>
 </trkpt>
 <trkpt lat="47.311207" lon="13.192611">
 <ele>847.74</ele>
 <time>2010-08-08T07:16:45Z</time>
 </trkpt>
 <trkpt lat="47.311031" lon="13.192691">
 <ele>849.49</ele>
 <time>2010-08-08T07:16:54Z</time>
 </trkpt>
 <trkpt lat="47.310863" lon="13.192819">
 <ele>851.40</ele>
 <time>2010-08-08T07:17:04Z</time>
 </trkpt>
 <trkpt lat="47.310760" lon="13.193006">
 <ele>853.06</ele>
 <time>2010-08-08T07:17:13Z</time>
 </trkpt>
 <trkpt lat="47.310707" lon="13.193099">
 <ele>853.90</ele>
 <time>2010-08-08T07:17:20Z</time>
 </trkpt>
 <trkpt lat="47.310684" lon="13.193141">
 <ele>854.69</ele>
 <time>2010-08-08T07:18:11Z</time>
 </trkpt>
 <trkpt lat="47.310623" lon="13.193251">
 <ele>855.22</ele>
 <time>2010-08-08T07:18:18Z</time>
 </trkpt>
 <trkpt lat="47.310547" lon="13.193386">
 <ele>856.40</ele>
 <time>2010-08-08T07:18:24Z</time>
 </trkpt>
 <trkpt lat="47.310455" lon="13.193550">
 <ele>857.58</ele>
 <time>2010-08-08T07:18:31Z</time>
 </trkpt>
 <trkpt lat="47.310455" lon="13.193550">
 <ele>858.51</ele>
 <time>2010-08-08T07:18:39Z</time>
 </trkpt>
 <trkpt lat="47.310326" lon="13.193743">
 <ele>859.77</ele>
 <time>2010-08-08T07:18:50Z</time>
 </trkpt>
 <trkpt lat="47.310020" lon="13.194186">
 <ele>860.59</ele>
 <time>2010-08-08T07:18:58Z</time>
 </trkpt>
 <trkpt lat="47.309883" lon="13.194397">
 <ele>861.13</ele>
 <time>2010-08-08T07:19:06Z</time>
 </trkpt>
 <trkpt lat="47.309738" lon="13.194775">
 <ele>862.14</ele>
 <time>2010-08-08T07:19:16Z</time>
 </trkpt>
 <trkpt lat="47.309544" lon="13.195121">
 <ele>863.49</ele>
 <time>2010-08-08T07:19:26Z</time>
 </trkpt>
 <trkpt lat="47.309341" lon="13.195476">
 <ele>865.16</ele>
 <time>2010-08-08T07:19:37Z</time>
 </trkpt>
 <trkpt lat="47.309219" lon="13.195835">
 <ele>866.44</ele>
 <time>2010-08-08T07:19:47Z</time>
 </trkpt>
 <trkpt lat="47.309162" lon="13.196123">
 <ele>866.98</ele>
 <time>2010-08-08T07:19:54Z</time>
 </trkpt>
 <trkpt lat="47.309135" lon="13.196412">
 <ele>867.61</ele>
 <time>2010-08-08T07:20:01Z</time>
 </trkpt>
 <trkpt lat="47.309120" lon="13.196801">
 <ele>868.77</ele>
 <time>2010-08-08T07:20:10Z</time>
 </trkpt>
 <trkpt lat="47.309090" lon="13.197199">
 <ele>869.64</ele>
 <time>2010-08-08T07:20:19Z</time>
 </trkpt>
 <trkpt lat="47.308971" lon="13.197703">
 <ele>871.53</ele>
 <time>2010-08-08T07:20:31Z</time>
 </trkpt>
 <trkpt lat="47.308857" lon="13.198012">
 <ele>872.29</ele>
 <time>2010-08-08T07:20:39Z</time>
 </trkpt>
 <trkpt lat="47.308720" lon="13.198351">
 <ele>873.05</ele>
 <time>2010-08-08T07:20:48Z</time>
 </trkpt>
 <trkpt lat="47.308464" lon="13.198717">
 <ele>875.11</ele>
 <time>2010-08-08T07:21:00Z</time>
 </trkpt>
 <trkpt lat="47.308315" lon="13.198989">
 <ele>875.77</ele>
 <time>2010-08-08T07:21:08Z</time>
 </trkpt>
 <trkpt lat="47.308163" lon="13.199271">
 <ele>876.66</ele>
 <time>2010-08-08T07:21:16Z</time>
 </trkpt>
 <trkpt lat="47.308041" lon="13.199555">
 <ele>877.65</ele>
 <time>2010-08-08T07:21:24Z</time>
 </trkpt>
 <trkpt lat="47.307873" lon="13.199940">
 <ele>878.55</ele>
 <time>2010-08-08T07:21:34Z</time>
 </trkpt>
 <trkpt lat="47.307690" lon="13.200264">
 <ele>879.06</ele>
 <time>2010-08-08T07:21:43Z</time>
 </trkpt>
 <trkpt lat="47.307541" lon="13.200457">
 <ele>880.08</ele>
 <time>2010-08-08T07:21:49Z</time>
 </trkpt>
 <trkpt lat="47.307228" lon="13.200784">
 <ele>881.08</ele>
 <time>2010-08-08T07:22:00Z</time>
 </trkpt>
 <trkpt lat="47.306984" lon="13.201089">
 <ele>882.91</ele>
 <time>2010-08-08T07:22:10Z</time>
 </trkpt>
 <trkpt lat="47.306843" lon="13.201295">
 <ele>884.13</ele>
 <time>2010-08-08T07:22:18Z</time>
 </trkpt>
 <trkpt lat="47.306732" lon="13.201579">
 <ele>886.05</ele>
 <time>2010-08-08T07:22:29Z</time>
 </trkpt>
 <trkpt lat="47.306686" lon="13.201812">
 <ele>887.48</ele>
 <time>2010-08-08T07:22:37Z</time>
 </trkpt>
 <trkpt lat="47.306702" lon="13.202066">
 <ele>889.27</ele>
 <time>2010-08-08T07:22:46Z</time>
 </trkpt>
 <trkpt lat="47.306732" lon="13.202316">
 <ele>890.42</ele>
 <time>2010-08-08T07:22:54Z</time>
 </trkpt>
 <trkpt lat="47.306755" lon="13.202616">
 <ele>892.28</ele>
 <time>2010-08-08T07:23:04Z</time>
 </trkpt>
 <trkpt lat="47.306740" lon="13.202885">
 <ele>893.58</ele>
 <time>2010-08-08T07:23:12Z</time>
 </trkpt>
 <trkpt lat="47.306664" lon="13.203101">
 <ele>895.15</ele>
 <time>2010-08-08T07:23:20Z</time>
 </trkpt>
 <trkpt lat="47.306656" lon="13.203120">
 <ele>897.30</ele>
 <time>2010-08-08T07:23:30Z</time>
 </trkpt>
 <trkpt lat="47.306370" lon="13.203412">
 <ele>898.84</ele>
 <time>2010-08-08T07:23:39Z</time>
 </trkpt>
 <trkpt lat="47.306183" lon="13.203490">
 <ele>901.19</ele>
 <time>2010-08-08T07:23:50Z</time>
 </trkpt>
 <trkpt lat="47.306000" lon="13.203566">
 <ele>902.96</ele>
 <time>2010-08-08T07:24:01Z</time>
 </trkpt>
 <trkpt lat="47.305859" lon="13.203653">
 <ele>905.13</ele>
 <time>2010-08-08T07:24:11Z</time>
 </trkpt>
 <trkpt lat="47.305737" lon="13.203820">
 <ele>907.20</ele>
 <time>2010-08-08T07:24:21Z</time>
 </trkpt>
 <trkpt lat="47.305649" lon="13.203961">
 <ele>908.35</ele>
 <time>2010-08-08T07:24:29Z</time>
 </trkpt>
 <trkpt lat="47.305542" lon="13.204170">
 <ele>909.84</ele>
 <time>2010-08-08T07:24:39Z</time>
 </trkpt>
 <trkpt lat="47.305397" lon="13.204464">
 <ele>911.59</ele>
 <time>2010-08-08T07:24:52Z</time>
 </trkpt>
 <trkpt lat="47.305229" lon="13.204657">
 <ele>912.36</ele>
 <time>2010-08-08T07:25:01Z</time>
 </trkpt>
 <trkpt lat="47.305176" lon="13.204708">
 <ele>912.51</ele>
 <time>2010-08-08T07:25:07Z</time>
 </trkpt>
 <trkpt lat="47.305050" lon="13.204751">
 <ele>912.49</ele>
 <time>2010-08-08T07:25:12Z</time>
 </trkpt>
 <trkpt lat="47.304779" lon="13.204548">
 <ele>912.24</ele>
 <time>2010-08-08T07:25:17Z</time>
 </trkpt>
 <trkpt lat="47.304611" lon="13.204423">
 <ele>912.22</ele>
 <time>2010-08-08T07:25:23Z</time>
 </trkpt>
 <trkpt lat="47.304417" lon="13.204350">
 <ele>912.12</ele>
 <time>2010-08-08T07:25:29Z</time>
 </trkpt>
 <trkpt lat="47.304108" lon="13.204270">
 <ele>912.50</ele>
 <time>2010-08-08T07:25:38Z</time>
 </trkpt>
 <trkpt lat="47.303841" lon="13.204109">
 <ele>913.49</ele>
 <time>2010-08-08T07:25:47Z</time>
 </trkpt>
 <trkpt lat="47.303501" lon="13.203902">
 <ele>914.41</ele>
 <time>2010-08-08T07:25:58Z</time>
 </trkpt>
 <trkpt lat="47.303375" lon="13.203828">
 <ele>915.45</ele>
 <time>2010-08-08T07:26:05Z</time>
 </trkpt>
 <trkpt lat="47.303375" lon="13.203828">
 <ele>915.45</ele>
 <time>2010-08-08T07:26:06Z</time>
 </trkpt>
 <trkpt lat="47.303375" lon="13.203828">
 <ele>915.69</ele>
 <time>2010-08-08T07:26:08Z</time>
 </trkpt>
 <trkpt lat="47.302471" lon="13.203485">
 <ele>918.78</ele>
 <time>2010-08-08T07:26:30Z</time>
 </trkpt>
 <trkpt lat="47.302086" lon="13.203467">
 <ele>919.51</ele>
 <time>2010-08-08T07:26:39Z</time>
 </trkpt>
 <trkpt lat="47.301888" lon="13.203569">
 <ele>920.60</ele>
 <time>2010-08-08T07:26:47Z</time>
 </trkpt>
 <trkpt lat="47.301743" lon="13.203684">
 <ele>921.30</ele>
 <time>2010-08-08T07:26:52Z</time>
 </trkpt>
 <trkpt lat="47.301525" lon="13.204042">
 <ele>922.11</ele>
 <time>2010-08-08T07:27:01Z</time>
 </trkpt>
 <trkpt lat="47.301346" lon="13.204353">
 <ele>921.98</ele>
 <time>2010-08-08T07:27:07Z</time>
 </trkpt>
 <trkpt lat="47.301010" lon="13.204936">
 <ele>922.05</ele>
 <time>2010-08-08T07:27:17Z</time>
 </trkpt>
 <trkpt lat="47.300747" lon="13.205395">
 <ele>921.49</ele>
 <time>2010-08-08T07:27:24Z</time>
 </trkpt>
 <trkpt lat="47.300709" lon="13.205464">
 <ele>921.39</ele>
 <time>2010-08-08T07:27:25Z</time>
 </trkpt>
 <trkpt lat="47.300495" lon="13.205745">
 <ele>920.98</ele>
 <time>2010-08-08T07:27:30Z</time>
 </trkpt>
 <trkpt lat="47.300274" lon="13.205841">
 <ele>920.73</ele>
 <time>2010-08-08T07:27:34Z</time>
 </trkpt>
 <trkpt lat="47.299774" lon="13.205741">
 <ele>918.88</ele>
 <time>2010-08-08T07:27:41Z</time>
 </trkpt>
 <trkpt lat="47.299454" lon="13.205672">
 <ele>916.56</ele>
 <time>2010-08-08T07:27:45Z</time>
 </trkpt>
 <trkpt lat="47.299099" lon="13.205723">
 <ele>914.92</ele>
 <time>2010-08-08T07:27:49Z</time>
 </trkpt>
 <trkpt lat="47.298923" lon="13.205829">
 <ele>914.21</ele>
 <time>2010-08-08T07:27:51Z</time>
 </trkpt>
 <trkpt lat="47.298630" lon="13.206182">
 <ele>911.79</ele>
 <time>2010-08-08T07:27:55Z</time>
 </trkpt>
 <trkpt lat="47.298271" lon="13.206668">
 <ele>908.32</ele>
 <time>2010-08-08T07:28:00Z</time>
 </trkpt>
 <trkpt lat="47.297626" lon="13.207348">
 <ele>900.11</ele>
 <time>2010-08-08T07:28:08Z</time>
 </trkpt>
 <trkpt lat="47.297474" lon="13.207533">
 <ele>898.81</ele>
 <time>2010-08-08T07:28:10Z</time>
 </trkpt>
 <trkpt lat="47.297215" lon="13.207841">
 <ele>893.56</ele>
 <time>2010-08-08T07:28:14Z</time>
 </trkpt>
 <trkpt lat="47.296535" lon="13.209024">
 <ele>887.69</ele>
 <time>2010-08-08T07:28:20Z</time>
 </trkpt>
 <trkpt lat="47.295971" lon="13.210201">
 <ele>880.60</ele>
 <time>2010-08-08T07:28:28Z</time>
 </trkpt>
 <trkpt lat="47.295719" lon="13.211021">
 <ele>876.11</ele>
 <time>2010-08-08T07:28:33Z</time>
 </trkpt>
 <trkpt lat="47.295670" lon="13.211185">
 <ele>875.10</ele>
 <time>2010-08-08T07:28:35Z</time>
 </trkpt>
 <trkpt lat="47.295338" lon="13.211720">
 <ele>872.66</ele>
 <time>2010-08-08T07:28:38Z</time>
 </trkpt>
 <trkpt lat="47.294434" lon="13.212644">
 <ele>865.03</ele>
 <time>2010-08-08T07:28:47Z</time>
 </trkpt>
 <trkpt lat="47.293919" lon="13.213158">
 <ele>860.79</ele>
 <time>2010-08-08T07:28:52Z</time>
 </trkpt>
 <trkpt lat="47.293633" lon="13.213635">
 <ele>858.03</ele>
 <time>2010-08-08T07:28:56Z</time>
 </trkpt>
 <trkpt lat="47.293674" lon="13.213928">
 <ele>857.07</ele>
 <time>2010-08-08T07:28:59Z</time>
 </trkpt>
 <trkpt lat="47.293568" lon="13.214364">
 <ele>855.34</ele>
 <time>2010-08-08T07:29:02Z</time>
 </trkpt>
 <trkpt lat="47.293167" lon="13.214281">
 <ele>854.68</ele>
 <time>2010-08-08T07:29:03Z</time>
 </trkpt>
 <trkpt lat="47.292774" lon="13.214298">
 <ele>851.80</ele>
 <time>2010-08-08T07:29:07Z</time>
 </trkpt>
 <trkpt lat="47.292465" lon="13.214508">
 <ele>850.00</ele>
 <time>2010-08-08T07:29:11Z</time>
 </trkpt>
 <trkpt lat="47.292271" lon="13.214920">
 <ele>848.41</ele>
 <time>2010-08-08T07:29:15Z</time>
 </trkpt>
 <trkpt lat="47.292152" lon="13.215137">
 <ele>847.15</ele>
 <time>2010-08-08T07:29:18Z</time>
 </trkpt>
 <trkpt lat="47.292023" lon="13.215180">
 <ele>846.20</ele>
 <time>2010-08-08T07:29:20Z</time>
 </trkpt>
 <trkpt lat="47.292023" lon="13.215180">
 <ele>845.76</ele>
 <time>2010-08-08T07:29:21Z</time>
 </trkpt>
 <trkpt lat="47.291500" lon="13.214858">
 <ele>843.92</ele>
 <time>2010-08-08T07:29:26Z</time>
 </trkpt>
 <trkpt lat="47.291248" lon="13.214923">
 <ele>842.64</ele>
 <time>2010-08-08T07:29:29Z</time>
 </trkpt>
 <trkpt lat="47.291176" lon="13.214974">
 <ele>842.30</ele>
 <time>2010-08-08T07:29:30Z</time>
 </trkpt>
 <trkpt lat="47.290695" lon="13.215391">
 <ele>842.71</ele>
 <time>2010-08-08T07:29:37Z</time>
 </trkpt>
 <trkpt lat="47.290401" lon="13.215578">
 <ele>844.22</ele>
 <time>2010-08-08T07:29:42Z</time>
 </trkpt>
 <trkpt lat="47.290089" lon="13.215889">
 <ele>845.59</ele>
 <time>2010-08-08T07:29:49Z</time>
 </trkpt>
 <trkpt lat="47.289810" lon="13.216224">
 <ele>847.16</ele>
 <time>2010-08-08T07:29:57Z</time>
 </trkpt>
 <trkpt lat="47.289455" lon="13.216730">
 <ele>849.06</ele>
 <time>2010-08-08T07:30:09Z</time>
 </trkpt>
 <trkpt lat="47.289257" lon="13.217151">
 <ele>850.49</ele>
 <time>2010-08-08T07:30:19Z</time>
 </trkpt>
 <trkpt lat="47.289204" lon="13.217424">
 <ele>851.40</ele>
 <time>2010-08-08T07:30:25Z</time>
 </trkpt>
 <trkpt lat="47.289177" lon="13.217810">
 <ele>852.29</ele>
 <time>2010-08-08T07:30:33Z</time>
 </trkpt>
 <trkpt lat="47.289188" lon="13.218163">
 <ele>853.22</ele>
 <time>2010-08-08T07:30:40Z</time>
 </trkpt>
 <trkpt lat="47.289204" lon="13.218530">
 <ele>854.61</ele>
 <time>2010-08-08T07:30:48Z</time>
 </trkpt>
 <trkpt lat="47.289127" lon="13.218806">
 <ele>856.03</ele>
 <time>2010-08-08T07:30:55Z</time>
 </trkpt>
 <trkpt lat="47.288998" lon="13.218935">
 <ele>857.47</ele>
 <time>2010-08-08T07:31:02Z</time>
 </trkpt>
 <trkpt lat="47.288746" lon="13.218987">
 <ele>858.82</ele>
 <time>2010-08-08T07:31:09Z</time>
 </trkpt>
 <trkpt lat="47.288521" lon="13.218912">
 <ele>860.51</ele>
 <time>2010-08-08T07:31:18Z</time>
 </trkpt>
 <trkpt lat="47.288254" lon="13.218776">
 <ele>862.48</ele>
 <time>2010-08-08T07:31:29Z</time>
 </trkpt>
 <trkpt lat="47.288048" lon="13.218582">
 <ele>864.03</ele>
 <time>2010-08-08T07:31:39Z</time>
 </trkpt>
 <trkpt lat="47.287853" lon="13.218514">
 <ele>865.59</ele>
 <time>2010-08-08T07:31:48Z</time>
 </trkpt>
 <trkpt lat="47.287701" lon="13.218492">
 <ele>867.23</ele>
 <time>2010-08-08T07:31:56Z</time>
 </trkpt>
 <trkpt lat="47.287567" lon="13.218601">
 <ele>868.30</ele>
 <time>2010-08-08T07:32:03Z</time>
 </trkpt>
 <trkpt lat="47.287384" lon="13.218748">
 <ele>869.14</ele>
 <time>2010-08-08T07:32:12Z</time>
 </trkpt>
 <trkpt lat="47.287292" lon="13.219027">
 <ele>870.66</ele>
 <time>2010-08-08T07:32:22Z</time>
 </trkpt>
 <trkpt lat="47.287205" lon="13.219336">
 <ele>871.63</ele>
 <time>2010-08-08T07:32:31Z</time>
 </trkpt>
 <trkpt lat="47.287121" lon="13.219594">
 <ele>872.07</ele>
 <time>2010-08-08T07:32:38Z</time>
 </trkpt>
 <trkpt lat="47.286991" lon="13.219973">
 <ele>872.55</ele>
 <time>2010-08-08T07:32:48Z</time>
 </trkpt>
 <trkpt lat="47.286766" lon="13.220289">
 <ele>872.85</ele>
 <time>2010-08-08T07:32:57Z</time>
 </trkpt>
 <trkpt lat="47.286575" lon="13.220459">
 <ele>873.57</ele>
 <time>2010-08-08T07:33:04Z</time>
 </trkpt>
 <trkpt lat="47.286289" lon="13.220535">
 <ele>874.02</ele>
 <time>2010-08-08T07:33:12Z</time>
 </trkpt>
 <trkpt lat="47.285954" lon="13.220531">
 <ele>874.69</ele>
 <time>2010-08-08T07:33:22Z</time>
 </trkpt>
 <trkpt lat="47.285656" lon="13.220517">
 <ele>874.89</ele>
 <time>2010-08-08T07:33:31Z</time>
 </trkpt>
 <trkpt lat="47.285488" lon="13.220509">
 <ele>874.96</ele>
 <time>2010-08-08T07:33:37Z</time>
 </trkpt>
 <trkpt lat="47.285473" lon="13.220508">
 <ele>874.83</ele>
 <time>2010-08-08T07:33:40Z</time>
 </trkpt>
 <trkpt lat="47.285442" lon="13.220507">
 <ele>874.60</ele>
 <time>2010-08-08T07:34:29Z</time>
 </trkpt>
 <trkpt lat="47.285309" lon="13.220500">
 <ele>874.15</ele>
 <time>2010-08-08T07:34:34Z</time>
 </trkpt>
 <trkpt lat="47.284950" lon="13.220478">
 <ele>873.21</ele>
 <time>2010-08-08T07:34:42Z</time>
 </trkpt>
 <trkpt lat="47.284573" lon="13.220454">
 <ele>870.96</ele>
 <time>2010-08-08T07:34:48Z</time>
 </trkpt>
 <trkpt lat="47.284103" lon="13.220437">
 <ele>868.72</ele>
 <time>2010-08-08T07:34:54Z</time>
 </trkpt>
 <trkpt lat="47.283703" lon="13.220529">
 <ele>866.50</ele>
 <time>2010-08-08T07:34:59Z</time>
 </trkpt>
 <trkpt lat="47.283627" lon="13.220586">
 <ele>866.10</ele>
 <time>2010-08-08T07:35:00Z</time>
 </trkpt>
 <trkpt lat="47.283405" lon="13.220804">
 <ele>864.48</ele>
 <time>2010-08-08T07:35:03Z</time>
 </trkpt>
 <trkpt lat="47.283089" lon="13.221066">
 <ele>861.58</ele>
 <time>2010-08-08T07:35:07Z</time>
 </trkpt>
 <trkpt lat="47.282841" lon="13.220995">
 <ele>859.39</ele>
 <time>2010-08-08T07:35:10Z</time>
 </trkpt>
 <trkpt lat="47.282673" lon="13.220685">
 <ele>857.47</ele>
 <time>2010-08-08T07:35:13Z</time>
 </trkpt>
 <trkpt lat="47.282604" lon="13.220159">
 <ele>856.36</ele>
 <time>2010-08-08T07:35:17Z</time>
 </trkpt>
 <trkpt lat="47.282604" lon="13.219892">
 <ele>856.19</ele>
 <time>2010-08-08T07:35:19Z</time>
 </trkpt>
 <trkpt lat="47.282604" lon="13.219370">
 <ele>855.33</ele>
 <time>2010-08-08T07:35:23Z</time>
 </trkpt>
 <trkpt lat="47.282425" lon="13.219095">
 <ele>853.91</ele>
 <time>2010-08-08T07:35:26Z</time>
 </trkpt>
 <trkpt lat="47.281849" lon="13.218780">
 <ele>851.92</ele>
 <time>2010-08-08T07:35:33Z</time>
 </trkpt>
 <trkpt lat="47.281525" lon="13.218745">
 <ele>851.38</ele>
 <time>2010-08-08T07:35:37Z</time>
 </trkpt>
 <trkpt lat="47.281361" lon="13.218953">
 <ele>851.13</ele>
 <time>2010-08-08T07:35:40Z</time>
 </trkpt>
 <trkpt lat="47.281315" lon="13.219048">
 <ele>850.80</ele>
 <time>2010-08-08T07:35:41Z</time>
 </trkpt>
 <trkpt lat="47.281216" lon="13.219240">
 <ele>850.57</ele>
 <time>2010-08-08T07:35:43Z</time>
 </trkpt>
 <trkpt lat="47.281036" lon="13.219600">
 <ele>849.88</ele>
 <time>2010-08-08T07:35:47Z</time>
 </trkpt>
 <trkpt lat="47.280758" lon="13.219707">
 <ele>849.32</ele>
 <time>2010-08-08T07:35:50Z</time>
 </trkpt>
 <trkpt lat="47.280609" lon="13.219707">
 <ele>848.81</ele>
 <time>2010-08-08T07:35:53Z</time>
 </trkpt>
 <trkpt lat="47.280384" lon="13.219505">
 <ele>848.60</ele>
 <time>2010-08-08T07:35:55Z</time>
 </trkpt>
 <trkpt lat="47.279919" lon="13.218950">
 <ele>846.98</ele>
 <time>2010-08-08T07:36:02Z</time>
 </trkpt>
 <trkpt lat="47.279678" lon="13.218480">
 <ele>843.95</ele>
 <time>2010-08-08T07:36:06Z</time>
 </trkpt>
 <trkpt lat="47.279636" lon="13.218338">
 <ele>843.10</ele>
 <time>2010-08-08T07:36:07Z</time>
 </trkpt>
 <trkpt lat="47.279289" lon="13.217275">
 <ele>838.35</ele>
 <time>2010-08-08T07:36:14Z</time>
 </trkpt>
 <trkpt lat="47.279060" lon="13.216667">
 <ele>834.88</ele>
 <time>2010-08-08T07:36:18Z</time>
 </trkpt>
 <trkpt lat="47.278698" lon="13.215984">
 <ele>831.07</ele>
 <time>2010-08-08T07:36:23Z</time>
 </trkpt>
 <trkpt lat="47.278320" lon="13.215337">
 <ele>829.15</ele>
 <time>2010-08-08T07:36:28Z</time>
 </trkpt>
 <trkpt lat="47.278160" lon="13.215029">
 <ele>828.54</ele>
 <time>2010-08-08T07:36:31Z</time>
 </trkpt>
 <trkpt lat="47.277939" lon="13.214551">
 <ele>828.41</ele>
 <time>2010-08-08T07:36:35Z</time>
 </trkpt>
 <trkpt lat="47.277882" lon="13.214493">
 <ele>828.46</ele>
 <time>2010-08-08T07:36:36Z</time>
 </trkpt>
 <trkpt lat="47.277325" lon="13.214282">
 <ele>827.60</ele>
 <time>2010-08-08T07:36:43Z</time>
 </trkpt>
 <trkpt lat="47.276829" lon="13.214041">
 <ele>827.42</ele>
 <time>2010-08-08T07:36:50Z</time>
 </trkpt>
 <trkpt lat="47.276073" lon="13.213674">
 <ele>828.45</ele>
 <time>2010-08-08T07:37:02Z</time>
 </trkpt>
 <trkpt lat="47.275467" lon="13.213264">
 <ele>829.42</ele>
 <time>2010-08-08T07:37:13Z</time>
 </trkpt>
 <trkpt lat="47.275108" lon="13.213022">
 <ele>829.94</ele>
 <time>2010-08-08T07:37:20Z</time>
 </trkpt>
 <trkpt lat="47.274647" lon="13.212734">
 <ele>830.57</ele>
 <time>2010-08-08T07:37:29Z</time>
 </trkpt>
 <trkpt lat="47.274075" lon="13.212380">
 <ele>830.87</ele>
 <time>2010-08-08T07:37:40Z</time>
 </trkpt>
 <trkpt lat="47.273533" lon="13.212032">
 <ele>831.64</ele>
 <time>2010-08-08T07:37:51Z</time>
 </trkpt>
 <trkpt lat="47.272892" lon="13.211602">
 <ele>832.56</ele>
 <time>2010-08-08T07:38:04Z</time>
 </trkpt>
 <trkpt lat="47.272614" lon="13.211299">
 <ele>833.75</ele>
 <time>2010-08-08T07:38:11Z</time>
 </trkpt>
 <trkpt lat="47.272301" lon="13.210879">
 <ele>835.35</ele>
 <time>2010-08-08T07:38:21Z</time>
 </trkpt>
 <trkpt lat="47.271984" lon="13.210458">
 <ele>836.78</ele>
 <time>2010-08-08T07:38:31Z</time>
 </trkpt>
 <trkpt lat="47.271683" lon="13.210227">
 <ele>837.78</ele>
 <time>2010-08-08T07:38:39Z</time>
 </trkpt>
 <trkpt lat="47.271366" lon="13.210052">
 <ele>838.80</ele>
 <time>2010-08-08T07:38:47Z</time>
 </trkpt>
 <trkpt lat="47.270924" lon="13.209845">
 <ele>839.01</ele>
 <time>2010-08-08T07:38:57Z</time>
 </trkpt>
 <trkpt lat="47.270599" lon="13.209651">
 <ele>839.78</ele>
 <time>2010-08-08T07:39:05Z</time>
 </trkpt>
 <trkpt lat="47.270527" lon="13.209574">
 <ele>839.84</ele>
 <time>2010-08-08T07:39:07Z</time>
 </trkpt>
 <trkpt lat="47.270226" lon="13.209047">
 <ele>839.65</ele>
 <time>2010-08-08T07:39:17Z</time>
 </trkpt>
 <trkpt lat="47.270084" lon="13.208600">
 <ele>840.04</ele>
 <time>2010-08-08T07:39:24Z</time>
 </trkpt>
 <trkpt lat="47.269951" lon="13.208111">
 <ele>840.88</ele>
 <time>2010-08-08T07:39:32Z</time>
 </trkpt>
 <trkpt lat="47.269917" lon="13.207995">
 <ele>840.94</ele>
 <time>2010-08-08T07:39:34Z</time>
 </trkpt>
 <trkpt lat="47.269695" lon="13.207521">
 <ele>841.67</ele>
 <time>2010-08-08T07:39:43Z</time>
 </trkpt>
 <trkpt lat="47.269352" lon="13.206922">
 <ele>841.67</ele>
 <time>2010-08-08T07:39:54Z</time>
 </trkpt>
 <trkpt lat="47.269096" lon="13.206466">
 <ele>842.05</ele>
 <time>2010-08-08T07:40:02Z</time>
 </trkpt>
 <trkpt lat="47.268848" lon="13.205675">
 <ele>843.08</ele>
 <time>2010-08-08T07:40:14Z</time>
 </trkpt>
 <trkpt lat="47.268608" lon="13.205074">
 <ele>844.20</ele>
 <time>2010-08-08T07:40:24Z</time>
 </trkpt>
 <trkpt lat="47.268402" lon="13.204762">
 <ele>845.00</ele>
 <time>2010-08-08T07:40:31Z</time>
 </trkpt>
 <trkpt lat="47.268127" lon="13.204485">
 <ele>845.86</ele>
 <time>2010-08-08T07:40:39Z</time>
 </trkpt>
 <trkpt lat="47.267799" lon="13.204273">
 <ele>846.89</ele>
 <time>2010-08-08T07:40:48Z</time>
 </trkpt>
 <trkpt lat="47.267471" lon="13.204177">
 <ele>848.58</ele>
 <time>2010-08-08T07:40:57Z</time>
 </trkpt>
 <trkpt lat="47.267151" lon="13.204064">
 <ele>849.86</ele>
 <time>2010-08-08T07:41:06Z</time>
 </trkpt>
 <trkpt lat="47.266716" lon="13.203944">
 <ele>850.51</ele>
 <time>2010-08-08T07:41:17Z</time>
 </trkpt>
 <trkpt lat="47.266376" lon="13.203811">
 <ele>850.08</ele>
 <time>2010-08-08T07:41:24Z</time>
 </trkpt>
 <trkpt lat="47.266064" lon="13.203581">
 <ele>849.48</ele>
 <time>2010-08-08T07:41:30Z</time>
 </trkpt>
 <trkpt lat="47.265728" lon="13.203186">
 <ele>848.92</ele>
 <time>2010-08-08T07:41:37Z</time>
 </trkpt>
 <trkpt lat="47.265293" lon="13.202567">
 <ele>848.27</ele>
 <time>2010-08-08T07:41:47Z</time>
 </trkpt>
 <trkpt lat="47.264805" lon="13.201816">
 <ele>848.26</ele>
 <time>2010-08-08T07:41:59Z</time>
 </trkpt>
 <trkpt lat="47.264492" lon="13.201223">
 <ele>848.74</ele>
 <time>2010-08-08T07:42:08Z</time>
 </trkpt>
 <trkpt lat="47.264191" lon="13.200676">
 <ele>849.79</ele>
 <time>2010-08-08T07:42:17Z</time>
 </trkpt>
 <trkpt lat="47.263817" lon="13.200158">
 <ele>850.52</ele>
 <time>2010-08-08T07:42:27Z</time>
 </trkpt>
 <trkpt lat="47.263313" lon="13.199736">
 <ele>851.26</ele>
 <time>2010-08-08T07:42:38Z</time>
 </trkpt>
 <trkpt lat="47.262932" lon="13.199524">
 <ele>852.12</ele>
 <time>2010-08-08T07:42:46Z</time>
 </trkpt>
 <trkpt lat="47.262478" lon="13.199341">
 <ele>852.53</ele>
 <time>2010-08-08T07:42:55Z</time>
 </trkpt>
 <trkpt lat="47.262005" lon="13.199213">
 <ele>853.35</ele>
 <time>2010-08-08T07:43:04Z</time>
 </trkpt>
 <trkpt lat="47.261669" lon="13.199121">
 <ele>854.52</ele>
 <time>2010-08-08T07:43:11Z</time>
 </trkpt>
 <trkpt lat="47.261337" lon="13.199042">
 <ele>856.43</ele>
 <time>2010-08-08T07:43:19Z</time>
 </trkpt>
 <trkpt lat="47.261101" lon="13.198986">
 <ele>858.71</ele>
 <time>2010-08-08T07:43:26Z</time>
 </trkpt>
 <trkpt lat="47.260761" lon="13.198885">
 <ele>861.35</ele>
 <time>2010-08-08T07:43:37Z</time>
 </trkpt>
 <trkpt lat="47.260433" lon="13.198703">
 <ele>862.62</ele>
 <time>2010-08-08T07:43:48Z</time>
 </trkpt>
 <trkpt lat="47.260181" lon="13.198482">
 <ele>862.61</ele>
 <time>2010-08-08T07:43:56Z</time>
 </trkpt>
 <trkpt lat="47.260036" lon="13.198377">
 <ele>862.47</ele>
 <time>2010-08-08T07:44:00Z</time>
 </trkpt>
 <trkpt lat="47.259743" lon="13.198314">
 <ele>862.40</ele>
 <time>2010-08-08T07:44:07Z</time>
 </trkpt>
 <trkpt lat="47.259319" lon="13.198456">
 <ele>862.41</ele>
 <time>2010-08-08T07:44:16Z</time>
 </trkpt>
 <trkpt lat="47.258842" lon="13.198634">
 <ele>862.08</ele>
 <time>2010-08-08T07:44:26Z</time>
 </trkpt>
 <trkpt lat="47.258797" lon="13.198623">
 <ele>862.19</ele>
 <time>2010-08-08T07:44:27Z</time>
 </trkpt>
 <trkpt lat="47.258430" lon="13.198512">
 <ele>862.65</ele>
 <time>2010-08-08T07:44:35Z</time>
 </trkpt>
 <trkpt lat="47.257988" lon="13.198284">
 <ele>862.96</ele>
 <time>2010-08-08T07:44:45Z</time>
 </trkpt>
 <trkpt lat="47.257458" lon="13.198052">
 <ele>863.91</ele>
 <time>2010-08-08T07:44:57Z</time>
 </trkpt>
 <trkpt lat="47.256912" lon="13.197860">
 <ele>864.54</ele>
 <time>2010-08-08T07:45:09Z</time>
 </trkpt>
 <trkpt lat="47.256229" lon="13.197623">
 <ele>865.57</ele>
 <time>2010-08-08T07:45:24Z</time>
 </trkpt>
 <trkpt lat="47.255650" lon="13.197416">
 <ele>866.82</ele>
 <time>2010-08-08T07:45:37Z</time>
 </trkpt>
 <trkpt lat="47.255299" lon="13.197336">
 <ele>867.78</ele>
 <time>2010-08-08T07:45:45Z</time>
 </trkpt>
 <trkpt lat="47.255085" lon="13.197387">
 <ele>868.34</ele>
 <time>2010-08-08T07:45:50Z</time>
 </trkpt>
 <trkpt lat="47.254910" lon="13.197518">
 <ele>868.33</ele>
 <time>2010-08-08T07:45:54Z</time>
 </trkpt>
 <trkpt lat="47.254478" lon="13.198019">
 <ele>868.81</ele>
 <time>2010-08-08T07:46:05Z</time>
 </trkpt>
 <trkpt lat="47.254436" lon="13.198072">
 <ele>868.55</ele>
 <time>2010-08-08T07:46:06Z</time>
 </trkpt>
 <trkpt lat="47.254322" lon="13.198207">
 <ele>867.68</ele>
 <time>2010-08-08T07:46:11Z</time>
 </trkpt>
 <trkpt lat="47.253944" lon="13.198198">
 <ele>867.80</ele>
 <time>2010-08-08T07:46:15Z</time>
 </trkpt>
 <trkpt lat="47.253216" lon="13.197740">
 <ele>868.53</ele>
 <time>2010-08-08T07:46:29Z</time>
 </trkpt>
 <trkpt lat="47.252819" lon="13.197583">
 <ele>869.13</ele>
 <time>2010-08-08T07:46:37Z</time>
 </trkpt>
 <trkpt lat="47.252487" lon="13.197587">
 <ele>870.08</ele>
 <time>2010-08-08T07:46:44Z</time>
 </trkpt>
 <trkpt lat="47.252113" lon="13.197671">
 <ele>871.06</ele>
 <time>2010-08-08T07:46:52Z</time>
 </trkpt>
 <trkpt lat="47.251740" lon="13.197922">
 <ele>870.72</ele>
 <time>2010-08-08T07:47:00Z</time>
 </trkpt>
 <trkpt lat="47.251213" lon="13.198362">
 <ele>870.86</ele>
 <time>2010-08-08T07:47:11Z</time>
 </trkpt>
 <trkpt lat="47.250755" lon="13.198781">
 <ele>871.47</ele>
 <time>2010-08-08T07:47:21Z</time>
 </trkpt>
 <trkpt lat="47.250423" lon="13.198963">
 <ele>871.82</ele>
 <time>2010-08-08T07:47:28Z</time>
 </trkpt>
 <trkpt lat="47.249996" lon="13.199104">
 <ele>873.06</ele>
 <time>2010-08-08T07:47:37Z</time>
 </trkpt>
 <trkpt lat="47.249500" lon="13.199180">
 <ele>874.11</ele>
 <time>2010-08-08T07:47:48Z</time>
 </trkpt>
 <trkpt lat="47.249050" lon="13.199448">
 <ele>875.00</ele>
 <time>2010-08-08T07:47:59Z</time>
 </trkpt>
 <trkpt lat="47.248657" lon="13.199730">
 <ele>875.47</ele>
 <time>2010-08-08T07:48:09Z</time>
 </trkpt>
 <trkpt lat="47.248569" lon="13.199773">
 <ele>875.39</ele>
 <time>2010-08-08T07:48:11Z</time>
 </trkpt>
 <trkpt lat="47.248264" lon="13.199922">
 <ele>875.30</ele>
 <time>2010-08-08T07:48:18Z</time>
 </trkpt>
 <trkpt lat="47.247948" lon="13.199838">
 <ele>875.54</ele>
 <time>2010-08-08T07:48:25Z</time>
 </trkpt>
 <trkpt lat="47.247589" lon="13.199610">
 <ele>876.56</ele>
 <time>2010-08-08T07:48:34Z</time>
 </trkpt>
 <trkpt lat="47.247520" lon="13.199558">
 <ele>877.23</ele>
 <time>2010-08-08T07:48:36Z</time>
 </trkpt>
 <trkpt lat="47.247360" lon="13.199462">
 <ele>877.83</ele>
 <time>2010-08-08T07:48:40Z</time>
 </trkpt>
 <trkpt lat="47.246964" lon="13.199332">
 <ele>878.27</ele>
 <time>2010-08-08T07:48:49Z</time>
 </trkpt>
 <trkpt lat="47.246799" lon="13.199272">
 <ele>878.45</ele>
 <time>2010-08-08T07:48:53Z</time>
 </trkpt>
 <trkpt lat="47.246700" lon="13.199521">
 <ele>878.49</ele>
 <time>2010-08-08T07:48:57Z</time>
 </trkpt>
 <trkpt lat="47.246571" lon="13.199724">
 <ele>877.88</ele>
 <time>2010-08-08T07:49:01Z</time>
 </trkpt>
 <trkpt lat="47.246113" lon="13.199956">
 <ele>877.03</ele>
 <time>2010-08-08T07:49:10Z</time>
 </trkpt>
 <trkpt lat="47.245819" lon="13.199999">
 <ele>877.17</ele>
 <time>2010-08-08T07:49:16Z</time>
 </trkpt>
 <trkpt lat="47.245396" lon="13.200023">
 <ele>878.14</ele>
 <time>2010-08-08T07:49:25Z</time>
 </trkpt>
 <trkpt lat="47.244987" lon="13.200008">
 <ele>878.19</ele>
 <time>2010-08-08T07:49:34Z</time>
 </trkpt>
 <trkpt lat="47.244694" lon="13.199999">
 <ele>878.53</ele>
 <time>2010-08-08T07:49:41Z</time>
 </trkpt>
 <trkpt lat="47.244305" lon="13.199975">
 <ele>878.44</ele>
 <time>2010-08-08T07:49:49Z</time>
 </trkpt>
 <trkpt lat="47.243912" lon="13.199892">
 <ele>878.63</ele>
 <time>2010-08-08T07:49:57Z</time>
 </trkpt>
 <trkpt lat="47.243526" lon="13.199817">
 <ele>878.66</ele>
 <time>2010-08-08T07:50:05Z</time>
 </trkpt>
 <trkpt lat="47.242954" lon="13.199849">
 <ele>879.04</ele>
 <time>2010-08-08T07:50:17Z</time>
 </trkpt>
 <trkpt lat="47.242573" lon="13.199868">
 <ele>879.34</ele>
 <time>2010-08-08T07:50:25Z</time>
 </trkpt>
 <trkpt lat="47.242115" lon="13.199889">
 <ele>880.49</ele>
 <time>2010-08-08T07:50:35Z</time>
 </trkpt>
 <trkpt lat="47.241711" lon="13.199907">
 <ele>881.45</ele>
 <time>2010-08-08T07:50:45Z</time>
 </trkpt>
 <trkpt lat="47.241348" lon="13.199918">
 <ele>883.22</ele>
 <time>2010-08-08T07:50:55Z</time>
 </trkpt>
 <trkpt lat="47.241070" lon="13.199971">
 <ele>884.59</ele>
 <time>2010-08-08T07:51:04Z</time>
 </trkpt>
 <trkpt lat="47.240730" lon="13.200084">
 <ele>885.98</ele>
 <time>2010-08-08T07:51:16Z</time>
 </trkpt>
 <trkpt lat="47.240471" lon="13.200095">
 <ele>887.49</ele>
 <time>2010-08-08T07:51:25Z</time>
 </trkpt>
 <trkpt lat="47.240200" lon="13.200116">
 <ele>889.21</ele>
 <time>2010-08-08T07:51:35Z</time>
 </trkpt>
 <trkpt lat="47.239906" lon="13.200211">
 <ele>890.99</ele>
 <time>2010-08-08T07:51:47Z</time>
 </trkpt>
 <trkpt lat="47.239723" lon="13.200298">
 <ele>892.18</ele>
 <time>2010-08-08T07:51:55Z</time>
 </trkpt>
 <trkpt lat="47.239479" lon="13.200403">
 <ele>893.45</ele>
 <time>2010-08-08T07:52:05Z</time>
 </trkpt>
 <trkpt lat="47.239304" lon="13.200442">
 <ele>894.35</ele>
 <time>2010-08-08T07:52:12Z</time>
 </trkpt>
 <trkpt lat="47.239113" lon="13.200483">
 <ele>894.84</ele>
 <time>2010-08-08T07:52:19Z</time>
 </trkpt>
 <trkpt lat="47.238834" lon="13.200543">
 <ele>895.41</ele>
 <time>2010-08-08T07:52:29Z</time>
 </trkpt>
 <trkpt lat="47.238628" lon="13.200592">
 <ele>895.63</ele>
 <time>2010-08-08T07:52:36Z</time>
 </trkpt>
 <trkpt lat="47.238441" lon="13.200643">
 <ele>896.13</ele>
 <time>2010-08-08T07:52:43Z</time>
 </trkpt>
 <trkpt lat="47.238293" lon="13.200684">
 <ele>896.50</ele>
 <time>2010-08-08T07:52:48Z</time>
 </trkpt>
 <trkpt lat="47.238106" lon="13.200780">
 <ele>896.61</ele>
 <time>2010-08-08T07:52:55Z</time>
 </trkpt>
 <trkpt lat="47.238022" lon="13.200829">
 <ele>897.08</ele>
 <time>2010-08-08T07:53:00Z</time>
 </trkpt>
 <trkpt lat="47.237953" lon="13.200909">
 <ele>897.36</ele>
 <time>2010-08-08T07:53:04Z</time>
 </trkpt>
 <trkpt lat="47.237785" lon="13.201166">
 <ele>898.07</ele>
 <time>2010-08-08T07:53:12Z</time>
 </trkpt>
 <trkpt lat="47.237774" lon="13.201182">
 <ele>898.32</ele>
 <time>2010-08-08T07:53:15Z</time>
 </trkpt>
 <trkpt lat="47.237705" lon="13.201271">
 <ele>898.54</ele>
 <time>2010-08-08T07:53:34Z</time>
 </trkpt>
 <trkpt lat="47.237686" lon="13.201296">
 <ele>898.65</ele>
 <time>2010-08-08T07:53:35Z</time>
 </trkpt>
 <trkpt lat="47.237480" lon="13.201407">
 <ele>898.92</ele>
 <time>2010-08-08T07:53:43Z</time>
 </trkpt>
 <trkpt lat="47.237309" lon="13.201369">
 <ele>899.24</ele>
 <time>2010-08-08T07:53:50Z</time>
 </trkpt>
 <trkpt lat="47.237370" lon="13.201425">
 <ele>899.40</ele>
 <time>2010-08-08T07:53:55Z</time>
 </trkpt>
 <trkpt lat="47.237370" lon="13.201425">
 <ele>900.11</ele>
 <time>2010-08-08T07:53:58Z</time>
 </trkpt>
 <trkpt lat="47.237370" lon="13.201425">
 <ele>901.74</ele>
 <time>2010-08-08T07:54:05Z</time>
 </trkpt>
 <trkpt lat="47.237370" lon="13.201425">
 <ele>902.81</ele>
 <time>2010-08-08T07:54:12Z</time>
 </trkpt>
 <trkpt lat="47.237370" lon="13.201425">
 <ele>903.53</ele>
 <time>2010-08-08T07:54:20Z</time>
 </trkpt>
 <trkpt lat="47.237370" lon="13.201425">
 <ele>903.81</ele>
 <time>2010-08-08T07:54:25Z</time>
 </trkpt>
 <trkpt lat="47.237324" lon="13.202801">
 <ele>904.10</ele>
 <time>2010-08-08T07:54:30Z</time>
 </trkpt>
 <trkpt lat="47.237305" lon="13.203038">
 <ele>904.44</ele>
 <time>2010-08-08T07:54:35Z</time>
 </trkpt>
 <trkpt lat="47.237228" lon="13.203203">
 <ele>904.79</ele>
 <time>2010-08-08T07:54:40Z</time>
 </trkpt>
 <trkpt lat="47.237164" lon="13.203451">
 <ele>905.41</ele>
 <time>2010-08-08T07:54:45Z</time>
 </trkpt>
 <trkpt lat="47.237007" lon="13.203887">
 <ele>907.03</ele>
 <time>2010-08-08T07:54:55Z</time>
 </trkpt>
 <trkpt lat="47.236942" lon="13.204291">
 <ele>908.35</ele>
 <time>2010-08-08T07:55:04Z</time>
 </trkpt>
 <trkpt lat="47.236916" lon="13.204558">
 <ele>909.33</ele>
 <time>2010-08-08T07:55:11Z</time>
 </trkpt>
 <trkpt lat="47.236942" lon="13.204787">
 <ele>909.72</ele>
 <time>2010-08-08T07:55:18Z</time>
 </trkpt>
 <trkpt lat="47.236988" lon="13.205048">
 <ele>910.09</ele>
 <time>2010-08-08T07:55:26Z</time>
 </trkpt>
 <trkpt lat="47.237083" lon="13.205351">
 <ele>911.27</ele>
 <time>2010-08-08T07:55:36Z</time>
 </trkpt>
 <trkpt lat="47.237217" lon="13.205561">
 <ele>912.57</ele>
 <time>2010-08-08T07:55:45Z</time>
 </trkpt>
 <trkpt lat="47.237320" lon="13.205735">
 <ele>913.80</ele>
 <time>2010-08-08T07:55:52Z</time>
 </trkpt>
 <trkpt lat="47.237450" lon="13.205974">
 <ele>915.72</ele>
 <time>2010-08-08T07:56:02Z</time>
 </trkpt>
 <trkpt lat="47.237553" lon="13.206197">
 <ele>917.73</ele>
 <time>2010-08-08T07:56:11Z</time>
 </trkpt>
 <trkpt lat="47.237610" lon="13.206426">
 <ele>918.78</ele>
 <time>2010-08-08T07:56:19Z</time>
 </trkpt>
 <trkpt lat="47.237675" lon="13.206682">
 <ele>920.09</ele>
 <time>2010-08-08T07:56:28Z</time>
 </trkpt>
 <trkpt lat="47.237751" lon="13.206960">
 <ele>921.49</ele>
 <time>2010-08-08T07:56:38Z</time>
 </trkpt>
 <trkpt lat="47.237850" lon="13.207236">
 <ele>922.48</ele>
 <time>2010-08-08T07:56:48Z</time>
 </trkpt>
 <trkpt lat="47.237888" lon="13.207546">
 <ele>923.68</ele>
 <time>2010-08-08T07:56:58Z</time>
 </trkpt>
 <trkpt lat="47.237885" lon="13.207840">
 <ele>924.70</ele>
 <time>2010-08-08T07:57:07Z</time>
 </trkpt>
 <trkpt lat="47.237900" lon="13.208157">
 <ele>926.13</ele>
 <time>2010-08-08T07:57:17Z</time>
 </trkpt>
 <trkpt lat="47.237904" lon="13.208510">
 <ele>927.59</ele>
 <time>2010-08-08T07:57:28Z</time>
 </trkpt>
 <trkpt lat="47.237900" lon="13.208837">
 <ele>928.77</ele>
 <time>2010-08-08T07:57:38Z</time>
 </trkpt>
 <trkpt lat="47.237862" lon="13.209060">
 <ele>929.64</ele>
 <time>2010-08-08T07:57:45Z</time>
 </trkpt>
 <trkpt lat="47.237785" lon="13.209381">
 <ele>931.47</ele>
 <time>2010-08-08T07:57:56Z</time>
 </trkpt>
 <trkpt lat="47.237751" lon="13.209671">
 <ele>933.39</ele>
 <time>2010-08-08T07:58:06Z</time>
 </trkpt>
 <trkpt lat="47.237759" lon="13.209960">
 <ele>935.67</ele>
 <time>2010-08-08T07:58:16Z</time>
 </trkpt>
 <trkpt lat="47.237808" lon="13.210243">
 <ele>937.43</ele>
 <time>2010-08-08T07:58:26Z</time>
 </trkpt>
 <trkpt lat="47.237869" lon="13.210520">
 <ele>939.37</ele>
 <time>2010-08-08T07:58:36Z</time>
 </trkpt>
 <trkpt lat="47.237888" lon="13.210741">
 <ele>940.85</ele>
 <time>2010-08-08T07:58:44Z</time>
 </trkpt>
 <trkpt lat="47.237850" lon="13.210987">
 <ele>942.22</ele>
 <time>2010-08-08T07:58:53Z</time>
 </trkpt>
 <trkpt lat="47.237789" lon="13.211170">
 <ele>943.80</ele>
 <time>2010-08-08T07:59:00Z</time>
 </trkpt>
 <trkpt lat="47.237720" lon="13.211387">
 <ele>945.38</ele>
 <time>2010-08-08T07:59:09Z</time>
 </trkpt>
 <trkpt lat="47.237640" lon="13.211581">
 <ele>946.88</ele>
 <time>2010-08-08T07:59:18Z</time>
 </trkpt>
 <trkpt lat="47.237576" lon="13.211767">
 <ele>948.14</ele>
 <time>2010-08-08T07:59:26Z</time>
 </trkpt>
 <trkpt lat="47.237537" lon="13.212029">
 <ele>949.86</ele>
 <time>2010-08-08T07:59:36Z</time>
 </trkpt>
 <trkpt lat="47.237541" lon="13.212257">
 <ele>951.24</ele>
 <time>2010-08-08T07:59:45Z</time>
 </trkpt>
 <trkpt lat="47.237610" lon="13.212437">
 <ele>952.50</ele>
 <time>2010-08-08T07:59:53Z</time>
 </trkpt>
 <trkpt lat="47.237671" lon="13.212561">
 <ele>953.54</ele>
 <time>2010-08-08T07:59:59Z</time>
 </trkpt>
 <trkpt lat="47.237751" lon="13.212745">
 <ele>955.26</ele>
 <time>2010-08-08T08:00:07Z</time>
 </trkpt>
 <trkpt lat="47.237782" lon="13.213010">
 <ele>957.59</ele>
 <time>2010-08-08T08:00:17Z</time>
 </trkpt>
 <trkpt lat="47.237747" lon="13.213179">
 <ele>958.54</ele>
 <time>2010-08-08T08:00:24Z</time>
 </trkpt>
 <trkpt lat="47.237720" lon="13.213328">
 <ele>959.99</ele>
 <time>2010-08-08T08:00:31Z</time>
 </trkpt>
 <trkpt lat="47.237671" lon="13.213523">
 <ele>961.59</ele>
 <time>2010-08-08T08:00:40Z</time>
 </trkpt>
 <trkpt lat="47.237617" lon="13.213737">
 <ele>962.98</ele>
 <time>2010-08-08T08:00:50Z</time>
 </trkpt>
 <trkpt lat="47.237583" lon="13.213921">
 <ele>964.51</ele>
 <time>2010-08-08T08:00:59Z</time>
 </trkpt>
 <trkpt lat="47.237549" lon="13.214087">
 <ele>965.91</ele>
 <time>2010-08-08T08:01:07Z</time>
 </trkpt>
 <trkpt lat="47.237514" lon="13.214226">
 <ele>966.95</ele>
 <time>2010-08-08T08:01:14Z</time>
 </trkpt>
 <trkpt lat="47.237431" lon="13.214412">
 <ele>968.75</ele>
 <time>2010-08-08T08:01:24Z</time>
 </trkpt>
 <trkpt lat="47.237324" lon="13.214560">
 <ele>970.50</ele>
 <time>2010-08-08T08:01:34Z</time>
 </trkpt>
 <trkpt lat="47.237267" lon="13.214694">
 <ele>971.70</ele>
 <time>2010-08-08T08:01:42Z</time>
 </trkpt>
 <trkpt lat="47.237194" lon="13.214860">
 <ele>973.37</ele>
 <time>2010-08-08T08:01:51Z</time>
 </trkpt>
 <trkpt lat="47.237087" lon="13.215012">
 <ele>974.86</ele>
 <time>2010-08-08T08:02:00Z</time>
 </trkpt>
 <trkpt lat="47.237045" lon="13.215178">
 <ele>976.03</ele>
 <time>2010-08-08T08:02:08Z</time>
 </trkpt>
 <trkpt lat="47.237022" lon="13.215326">
 <ele>977.44</ele>
 <time>2010-08-08T08:02:15Z</time>
 </trkpt>
 <trkpt lat="47.237022" lon="13.215406">
 <ele>978.27</ele>
 <time>2010-08-08T08:02:19Z</time>
 </trkpt>
 <trkpt lat="47.237007" lon="13.215546">
 <ele>979.45</ele>
 <time>2010-08-08T08:02:26Z</time>
 </trkpt>
 <trkpt lat="47.237022" lon="13.215764">
 <ele>981.33</ele>
 <time>2010-08-08T08:02:36Z</time>
 </trkpt>
 <trkpt lat="47.237049" lon="13.215940">
 <ele>982.74</ele>
 <time>2010-08-08T08:02:44Z</time>
 </trkpt>
 <trkpt lat="47.237080" lon="13.216119">
 <ele>984.03</ele>
 <time>2010-08-08T08:02:52Z</time>
 </trkpt>
 <trkpt lat="47.237141" lon="13.216330">
 <ele>985.61</ele>
 <time>2010-08-08T08:03:02Z</time>
 </trkpt>
 <trkpt lat="47.237202" lon="13.216478">
 <ele>986.61</ele>
 <time>2010-08-08T08:03:10Z</time>
 </trkpt>
 <trkpt lat="47.237221" lon="13.216533">
 <ele>987.15</ele>
 <time>2010-08-08T08:03:13Z</time>
 </trkpt>
 <trkpt lat="47.237274" lon="13.216649">
 <ele>988.45</ele>
 <time>2010-08-08T08:03:19Z</time>
 </trkpt>
 <trkpt lat="47.237309" lon="13.216719">
 <ele>989.16</ele>
 <time>2010-08-08T08:03:23Z</time>
 </trkpt>
 <trkpt lat="47.237377" lon="13.216854">
 <ele>990.50</ele>
 <time>2010-08-08T08:03:31Z</time>
 </trkpt>
 <trkpt lat="47.237415" lon="13.216910">
 <ele>991.17</ele>
 <time>2010-08-08T08:03:34Z</time>
 </trkpt>
 <trkpt lat="47.237476" lon="13.217027">
 <ele>992.09</ele>
 <time>2010-08-08T08:03:40Z</time>
 </trkpt>
 <trkpt lat="47.237492" lon="13.217089">
 <ele>992.91</ele>
 <time>2010-08-08T08:03:43Z</time>
 </trkpt>
 <trkpt lat="47.237576" lon="13.217378">
 <ele>995.33</ele>
 <time>2010-08-08T08:03:58Z</time>
 </trkpt>
 <trkpt lat="47.237629" lon="13.217597">
 <ele>997.31</ele>
 <time>2010-08-08T08:04:09Z</time>
 </trkpt>
 <trkpt lat="47.237644" lon="13.217882">
 <ele>999.31</ele>
 <time>2010-08-08T08:04:22Z</time>
 </trkpt>
 <trkpt lat="47.237656" lon="13.218192">
 <ele>1001.54</ele>
 <time>2010-08-08T08:04:36Z</time>
 </trkpt>
 <trkpt lat="47.237663" lon="13.218388">
 <ele>1003.04</ele>
 <time>2010-08-08T08:04:45Z</time>
 </trkpt>
 <trkpt lat="47.237682" lon="13.218601">
 <ele>1004.78</ele>
 <time>2010-08-08T08:04:55Z</time>
 </trkpt>
 <trkpt lat="47.237648" lon="13.218764">
 <ele>1005.82</ele>
 <time>2010-08-08T08:05:03Z</time>
 </trkpt>
 <trkpt lat="47.237621" lon="13.218790">
 <ele>1006.11</ele>
 <time>2010-08-08T08:05:05Z</time>
 </trkpt>
 <trkpt lat="47.237541" lon="13.218750">
 <ele>1006.85</ele>
 <time>2010-08-08T08:05:11Z</time>
 </trkpt>
 <trkpt lat="47.237488" lon="13.218577">
 <ele>1007.79</ele>
 <time>2010-08-08T08:05:19Z</time>
 </trkpt>
 <trkpt lat="47.237423" lon="13.218369">
 <ele>1009.05</ele>
 <time>2010-08-08T08:05:29Z</time>
 </trkpt>
 <trkpt lat="47.237350" lon="13.218093">
 <ele>1011.37</ele>
 <time>2010-08-08T08:05:42Z</time>
 </trkpt>
 <trkpt lat="47.237289" lon="13.217903">
 <ele>1012.73</ele>
 <time>2010-08-08T08:05:51Z</time>
 </trkpt>
 <trkpt lat="47.237236" lon="13.217729">
 <ele>1013.80</ele>
 <time>2010-08-08T08:05:59Z</time>
 </trkpt>
 <trkpt lat="47.237179" lon="13.217544">
 <ele>1015.58</ele>
 <time>2010-08-08T08:06:08Z</time>
 </trkpt>
 <trkpt lat="47.237122" lon="13.217363">
 <ele>1016.76</ele>
 <time>2010-08-08T08:06:17Z</time>
 </trkpt>
 <trkpt lat="47.237064" lon="13.217202">
 <ele>1018.29</ele>
 <time>2010-08-08T08:06:25Z</time>
 </trkpt>
 <trkpt lat="47.236980" lon="13.217060">
 <ele>1019.20</ele>
 <time>2010-08-08T08:06:33Z</time>
 </trkpt>
 <trkpt lat="47.236889" lon="13.217035">
 <ele>1019.85</ele>
 <time>2010-08-08T08:06:39Z</time>
 </trkpt>
 <trkpt lat="47.236820" lon="13.217115">
 <ele>1020.16</ele>
 <time>2010-08-08T08:06:44Z</time>
 </trkpt>
 <trkpt lat="47.236813" lon="13.217279">
 <ele>1020.85</ele>
 <time>2010-08-08T08:06:50Z</time>
 </trkpt>
 <trkpt lat="47.236820" lon="13.217526">
 <ele>1022.26</ele>
 <time>2010-08-08T08:07:00Z</time>
 </trkpt>
 <trkpt lat="47.236835" lon="13.217794">
 <ele>1024.33</ele>
 <time>2010-08-08T08:07:11Z</time>
 </trkpt>
 <trkpt lat="47.236855" lon="13.218084">
 <ele>1026.35</ele>
 <time>2010-08-08T08:07:23Z</time>
 </trkpt>
 <trkpt lat="47.236870" lon="13.218301">
 <ele>1027.84</ele>
 <time>2010-08-08T08:07:32Z</time>
 </trkpt>
 <trkpt lat="47.236893" lon="13.218523">
 <ele>1029.42</ele>
 <time>2010-08-08T08:07:41Z</time>
 </trkpt>
 <trkpt lat="47.236931" lon="13.218742">
 <ele>1030.89</ele>
 <time>2010-08-08T08:07:50Z</time>
 </trkpt>
 <trkpt lat="47.237011" lon="13.219028">
 <ele>1032.79</ele>
 <time>2010-08-08T08:08:03Z</time>
 </trkpt>
 <trkpt lat="47.237091" lon="13.219210">
 <ele>1034.69</ele>
 <time>2010-08-08T08:08:12Z</time>
 </trkpt>
 <trkpt lat="47.237164" lon="13.219425">
 <ele>1036.35</ele>
 <time>2010-08-08T08:08:22Z</time>
 </trkpt>
 <trkpt lat="47.237236" lon="13.219684">
 <ele>1038.31</ele>
 <time>2010-08-08T08:08:34Z</time>
 </trkpt>
 <trkpt lat="47.237270" lon="13.219937">
 <ele>1040.02</ele>
 <time>2010-08-08T08:08:45Z</time>
 </trkpt>
 <trkpt lat="47.237263" lon="13.220206">
 <ele>1042.23</ele>
 <time>2010-08-08T08:08:56Z</time>
 </trkpt>
 <trkpt lat="47.237225" lon="13.220453">
 <ele>1044.25</ele>
 <time>2010-08-08T08:09:06Z</time>
 </trkpt>
 <trkpt lat="47.237186" lon="13.220703">
 <ele>1045.81</ele>
 <time>2010-08-08T08:09:17Z</time>
 </trkpt>
 <trkpt lat="47.237156" lon="13.220932">
 <ele>1047.78</ele>
 <time>2010-08-08T08:09:27Z</time>
 </trkpt>
 <trkpt lat="47.237152" lon="13.221185">
 <ele>1049.18</ele>
 <time>2010-08-08T08:09:38Z</time>
 </trkpt>
 <trkpt lat="47.237164" lon="13.221454">
 <ele>1050.97</ele>
 <time>2010-08-08T08:09:49Z</time>
 </trkpt>
 <trkpt lat="47.237183" lon="13.221699">
 <ele>1053.45</ele>
 <time>2010-08-08T08:09:59Z</time>
 </trkpt>
 <trkpt lat="47.237171" lon="13.221867">
 <ele>1054.81</ele>
 <time>2010-08-08T08:10:06Z</time>
 </trkpt>
 <trkpt lat="47.237164" lon="13.222108">
 <ele>1056.43</ele>
 <time>2010-08-08T08:10:16Z</time>
 </trkpt>
 <trkpt lat="47.237202" lon="13.222314">
 <ele>1057.65</ele>
 <time>2010-08-08T08:10:24Z</time>
 </trkpt>
 <trkpt lat="47.237232" lon="13.222497">
 <ele>1058.73</ele>
 <time>2010-08-08T08:10:32Z</time>
 </trkpt>
 <trkpt lat="47.237232" lon="13.222614">
 <ele>1059.65</ele>
 <time>2010-08-08T08:10:38Z</time>
 </trkpt>
 <trkpt lat="47.237274" lon="13.222738">
 <ele>1061.13</ele>
 <time>2010-08-08T08:10:45Z</time>
 </trkpt>
 <trkpt lat="47.237339" lon="13.222862">
 <ele>1062.01</ele>
 <time>2010-08-08T08:10:52Z</time>
 </trkpt>
 <trkpt lat="47.237396" lon="13.222963">
 <ele>1063.25</ele>
 <time>2010-08-08T08:10:58Z</time>
 </trkpt>
 <trkpt lat="47.237480" lon="13.223163">
 <ele>1065.19</ele>
 <time>2010-08-08T08:11:07Z</time>
 </trkpt>
 <trkpt lat="47.237476" lon="13.223381">
 <ele>1066.73</ele>
 <time>2010-08-08T08:11:16Z</time>
 </trkpt>
 <trkpt lat="47.237442" lon="13.223597">
 <ele>1067.87</ele>
 <time>2010-08-08T08:11:25Z</time>
 </trkpt>
 <trkpt lat="47.237423" lon="13.223873">
 <ele>1069.44</ele>
 <time>2010-08-08T08:11:36Z</time>
 </trkpt>
 <trkpt lat="47.237446" lon="13.224167">
 <ele>1071.48</ele>
 <time>2010-08-08T08:11:48Z</time>
 </trkpt>
 <trkpt lat="47.237453" lon="13.224407">
 <ele>1073.30</ele>
 <time>2010-08-08T08:11:58Z</time>
 </trkpt>
 <trkpt lat="47.237442" lon="13.224641">
 <ele>1074.54</ele>
 <time>2010-08-08T08:12:08Z</time>
 </trkpt>
 <trkpt lat="47.237400" lon="13.224860">
 <ele>1076.14</ele>
 <time>2010-08-08T08:12:17Z</time>
 </trkpt>
 <trkpt lat="47.237354" lon="13.225145">
 <ele>1078.04</ele>
 <time>2010-08-08T08:12:29Z</time>
 </trkpt>
 <trkpt lat="47.237316" lon="13.225333">
 <ele>1079.15</ele>
 <time>2010-08-08T08:12:37Z</time>
 </trkpt>
 <trkpt lat="47.237282" lon="13.225540">
 <ele>1080.71</ele>
 <time>2010-08-08T08:12:46Z</time>
 </trkpt>
 <trkpt lat="47.237247" lon="13.225742">
 <ele>1082.20</ele>
 <time>2010-08-08T08:12:55Z</time>
 </trkpt>
 <trkpt lat="47.237202" lon="13.226013">
 <ele>1084.35</ele>
 <time>2010-08-08T08:13:07Z</time>
 </trkpt>
 <trkpt lat="47.237167" lon="13.226263">
 <ele>1086.20</ele>
 <time>2010-08-08T08:13:18Z</time>
 </trkpt>
 <trkpt lat="47.237137" lon="13.226445">
 <ele>1087.57</ele>
 <time>2010-08-08T08:13:26Z</time>
 </trkpt>
 <trkpt lat="47.237087" lon="13.226698">
 <ele>1088.66</ele>
 <time>2010-08-08T08:13:37Z</time>
 </trkpt>
 <trkpt lat="47.237057" lon="13.226880">
 <ele>1090.38</ele>
 <time>2010-08-08T08:13:45Z</time>
 </trkpt>
 <trkpt lat="47.237007" lon="13.227180">
 <ele>1092.29</ele>
 <time>2010-08-08T08:13:58Z</time>
 </trkpt>
 <trkpt lat="47.236977" lon="13.227339">
 <ele>1093.40</ele>
 <time>2010-08-08T08:14:05Z</time>
 </trkpt>
 <trkpt lat="47.236946" lon="13.227579">
 <ele>1095.18</ele>
 <time>2010-08-08T08:14:15Z</time>
 </trkpt>
 <trkpt lat="47.236912" lon="13.227822">
 <ele>1096.77</ele>
 <time>2010-08-08T08:14:25Z</time>
 </trkpt>
 <trkpt lat="47.236885" lon="13.228046">
 <ele>1098.76</ele>
 <time>2010-08-08T08:14:34Z</time>
 </trkpt>
 <trkpt lat="47.236858" lon="13.228270">
 <ele>1100.10</ele>
 <time>2010-08-08T08:14:43Z</time>
 </trkpt>
 <trkpt lat="47.236835" lon="13.228504">
 <ele>1101.85</ele>
 <time>2010-08-08T08:14:53Z</time>
 </trkpt>
 <trkpt lat="47.236809" lon="13.228683">
 <ele>1103.08</ele>
 <time>2010-08-08T08:15:01Z</time>
 </trkpt>
 <trkpt lat="47.236782" lon="13.228864">
 <ele>1104.43</ele>
 <time>2010-08-08T08:15:09Z</time>
 </trkpt>
 <trkpt lat="47.236759" lon="13.229074">
 <ele>1106.17</ele>
 <time>2010-08-08T08:15:18Z</time>
 </trkpt>
 <trkpt lat="47.236736" lon="13.229262">
 <ele>1107.44</ele>
 <time>2010-08-08T08:15:26Z</time>
 </trkpt>
 <trkpt lat="47.236713" lon="13.229454">
 <ele>1107.87</ele>
 <time>2010-08-08T08:15:34Z</time>
 </trkpt>
 <trkpt lat="47.236687" lon="13.229680">
 <ele>1109.19</ele>
 <time>2010-08-08T08:15:43Z</time>
 </trkpt>
 <trkpt lat="47.236679" lon="13.229922">
 <ele>1109.73</ele>
 <time>2010-08-08T08:15:52Z</time>
 </trkpt>
 <trkpt lat="47.236721" lon="13.230221">
 <ele>1109.99</ele>
 <time>2010-08-08T08:16:01Z</time>
 </trkpt>
 <trkpt lat="47.236759" lon="13.230408">
 <ele>1109.46</ele>
 <time>2010-08-08T08:16:05Z</time>
 </trkpt>
 <trkpt lat="47.236839" lon="13.230853">
 <ele>1107.50</ele>
 <time>2010-08-08T08:16:11Z</time>
 </trkpt>
 <trkpt lat="47.236866" lon="13.231055">
 <ele>1106.53</ele>
 <time>2010-08-08T08:16:13Z</time>
 </trkpt>
 <trkpt lat="47.236824" lon="13.231653">
 <ele>1103.60</ele>
 <time>2010-08-08T08:16:18Z</time>
 </trkpt>
 <trkpt lat="47.236767" lon="13.232161">
 <ele>1100.24</ele>
 <time>2010-08-08T08:16:22Z</time>
 </trkpt>
 <trkpt lat="47.236633" lon="13.232688">
 <ele>1096.91</ele>
 <time>2010-08-08T08:16:26Z</time>
 </trkpt>
 <trkpt lat="47.236454" lon="13.233290">
 <ele>1095.59</ele>
 <time>2010-08-08T08:16:31Z</time>
 </trkpt>
 <trkpt lat="47.236340" lon="13.233613">
 <ele>1097.61</ele>
 <time>2010-08-08T08:16:35Z</time>
 </trkpt>
 <trkpt lat="47.236275" lon="13.233814">
 <ele>1099.39</ele>
 <time>2010-08-08T08:16:39Z</time>
 </trkpt>
 <trkpt lat="47.236237" lon="13.234099">
 <ele>1100.68</ele>
 <time>2010-08-08T08:16:46Z</time>
 </trkpt>
 <trkpt lat="47.236259" lon="13.234362">
 <ele>1101.59</ele>
 <time>2010-08-08T08:16:53Z</time>
 </trkpt>
 <trkpt lat="47.236320" lon="13.234636">
 <ele>1102.30</ele>
 <time>2010-08-08T08:17:01Z</time>
 </trkpt>
 <trkpt lat="47.236320" lon="13.234945">
 <ele>1103.71</ele>
 <time>2010-08-08T08:17:10Z</time>
 </trkpt>
 <trkpt lat="47.236263" lon="13.235280">
 <ele>1105.61</ele>
 <time>2010-08-08T08:17:21Z</time>
 </trkpt>
 <trkpt lat="47.236202" lon="13.235517">
 <ele>1106.03</ele>
 <time>2010-08-08T08:17:29Z</time>
 </trkpt>
 <trkpt lat="47.236118" lon="13.235792">
 <ele>1107.49</ele>
 <time>2010-08-08T08:17:39Z</time>
 </trkpt>
 <trkpt lat="47.236004" lon="13.236104">
 <ele>1109.38</ele>
 <time>2010-08-08T08:17:51Z</time>
 </trkpt>
 <trkpt lat="47.235886" lon="13.236359">
 <ele>1110.91</ele>
 <time>2010-08-08T08:18:01Z</time>
 </trkpt>
 <trkpt lat="47.235756" lon="13.236635">
 <ele>1112.80</ele>
 <time>2010-08-08T08:18:12Z</time>
 </trkpt>
 <trkpt lat="47.235664" lon="13.236926">
 <ele>1114.31</ele>
 <time>2010-08-08T08:18:23Z</time>
 </trkpt>
 <trkpt lat="47.235584" lon="13.237319">
 <ele>1116.12</ele>
 <time>2010-08-08T08:18:37Z</time>
 </trkpt>
 <trkpt lat="47.235542" lon="13.237579">
 <ele>1117.52</ele>
 <time>2010-08-08T08:18:46Z</time>
 </trkpt>
 <trkpt lat="47.235519" lon="13.237865">
 <ele>1118.98</ele>
 <time>2010-08-08T08:18:56Z</time>
 </trkpt>
 <trkpt lat="47.235497" lon="13.238076">
 <ele>1119.92</ele>
 <time>2010-08-08T08:19:03Z</time>
 </trkpt>
 <trkpt lat="47.235489" lon="13.238285">
 <ele>1120.61</ele>
 <time>2010-08-08T08:19:10Z</time>
 </trkpt>
 <trkpt lat="47.235485" lon="13.238549">
 <ele>1121.56</ele>
 <time>2010-08-08T08:19:19Z</time>
 </trkpt>
 <trkpt lat="47.235477" lon="13.238807">
 <ele>1123.11</ele>
 <time>2010-08-08T08:19:28Z</time>
 </trkpt>
 <trkpt lat="47.235462" lon="13.239139">
 <ele>1124.20</ele>
 <time>2010-08-08T08:19:39Z</time>
 </trkpt>
 <trkpt lat="47.235451" lon="13.239505">
 <ele>1125.91</ele>
 <time>2010-08-08T08:19:51Z</time>
 </trkpt>
 <trkpt lat="47.235439" lon="13.239797">
 <ele>1127.52</ele>
 <time>2010-08-08T08:20:01Z</time>
 </trkpt>
 <trkpt lat="47.235424" lon="13.240081">
 <ele>1129.03</ele>
 <time>2010-08-08T08:20:11Z</time>
 </trkpt>
 <trkpt lat="47.235413" lon="13.240401">
 <ele>1130.52</ele>
 <time>2010-08-08T08:20:22Z</time>
 </trkpt>
 <trkpt lat="47.235413" lon="13.240636">
 <ele>1131.41</ele>
 <time>2010-08-08T08:20:30Z</time>
 </trkpt>
 <trkpt lat="47.235394" lon="13.240952">
 <ele>1133.31</ele>
 <time>2010-08-08T08:20:41Z</time>
 </trkpt>
 <trkpt lat="47.235378" lon="13.241293">
 <ele>1135.00</ele>
 <time>2010-08-08T08:20:53Z</time>
 </trkpt>
 <trkpt lat="47.235363" lon="13.241565">
 <ele>1136.99</ele>
 <time>2010-08-08T08:21:03Z</time>
 </trkpt>
 <trkpt lat="47.235352" lon="13.241833">
 <ele>1139.09</ele>
 <time>2010-08-08T08:21:13Z</time>
 </trkpt>
 <trkpt lat="47.235340" lon="13.242095">
 <ele>1141.23</ele>
 <time>2010-08-08T08:21:23Z</time>
 </trkpt>
 <trkpt lat="47.235329" lon="13.242333">
 <ele>1142.68</ele>
 <time>2010-08-08T08:21:32Z</time>
 </trkpt>
 <trkpt lat="47.235321" lon="13.242646">
 <ele>1142.64</ele>
 <time>2010-08-08T08:21:41Z</time>
 </trkpt>
 <trkpt lat="47.235302" lon="13.242912">
 <ele>1143.29</ele>
 <time>2010-08-08T08:21:50Z</time>
 </trkpt>
 <trkpt lat="47.235271" lon="13.243187">
 <ele>1144.88</ele>
 <time>2010-08-08T08:22:00Z</time>
 </trkpt>
 <trkpt lat="47.235210" lon="13.243542">
 <ele>1146.74</ele>
 <time>2010-08-08T08:22:13Z</time>
 </trkpt>
 <trkpt lat="47.235153" lon="13.243839">
 <ele>1148.20</ele>
 <time>2010-08-08T08:22:24Z</time>
 </trkpt>
 <trkpt lat="47.235085" lon="13.244201">
 <ele>1150.08</ele>
 <time>2010-08-08T08:22:37Z</time>
 </trkpt>
 <trkpt lat="47.235039" lon="13.244450">
 <ele>1151.40</ele>
 <time>2010-08-08T08:22:46Z</time>
 </trkpt>
 <trkpt lat="47.234993" lon="13.244752">
 <ele>1152.91</ele>
 <time>2010-08-08T08:22:57Z</time>
 </trkpt>
 <trkpt lat="47.234966" lon="13.244944">
 <ele>1153.89</ele>
 <time>2010-08-08T08:23:04Z</time>
 </trkpt>
 <trkpt lat="47.234947" lon="13.245222">
 <ele>1155.52</ele>
 <time>2010-08-08T08:23:14Z</time>
 </trkpt>
 <trkpt lat="47.234959" lon="13.245439">
 <ele>1156.54</ele>
 <time>2010-08-08T08:23:22Z</time>
 </trkpt>
 <trkpt lat="47.234989" lon="13.245683">
 <ele>1157.84</ele>
 <time>2010-08-08T08:23:31Z</time>
 </trkpt>
 <trkpt lat="47.235050" lon="13.245976">
 <ele>1159.74</ele>
 <time>2010-08-08T08:23:42Z</time>
 </trkpt>
 <trkpt lat="47.235088" lon="13.246190">
 <ele>1160.67</ele>
 <time>2010-08-08T08:23:50Z</time>
 </trkpt>
 <trkpt lat="47.235157" lon="13.246538">
 <ele>1162.49</ele>
 <time>2010-08-08T08:24:03Z</time>
 </trkpt>
 <trkpt lat="47.235210" lon="13.246827">
 <ele>1164.35</ele>
 <time>2010-08-08T08:24:14Z</time>
 </trkpt>
 <trkpt lat="47.235249" lon="13.247060">
 <ele>1165.59</ele>
 <time>2010-08-08T08:24:23Z</time>
 </trkpt>
 <trkpt lat="47.235275" lon="13.247301">
 <ele>1167.19</ele>
 <time>2010-08-08T08:24:32Z</time>
 </trkpt>
 <trkpt lat="47.235310" lon="13.247659">
 <ele>1169.06</ele>
 <time>2010-08-08T08:24:45Z</time>
 </trkpt>
 <trkpt lat="47.235336" lon="13.247952">
 <ele>1170.70</ele>
 <time>2010-08-08T08:24:56Z</time>
 </trkpt>
 <trkpt lat="47.235359" lon="13.248220">
 <ele>1172.52</ele>
 <time>2010-08-08T08:25:06Z</time>
 </trkpt>
 <trkpt lat="47.235390" lon="13.248485">
 <ele>1174.46</ele>
 <time>2010-08-08T08:25:16Z</time>
 </trkpt>
 <trkpt lat="47.235416" lon="13.248748">
 <ele>1176.06</ele>
 <time>2010-08-08T08:25:26Z</time>
 </trkpt>
 <trkpt lat="47.235435" lon="13.248958">
 <ele>1177.55</ele>
 <time>2010-08-08T08:25:34Z</time>
 </trkpt>
 <trkpt lat="47.235477" lon="13.249186">
 <ele>1179.16</ele>
 <time>2010-08-08T08:25:43Z</time>
 </trkpt>
 <trkpt lat="47.235550" lon="13.249437">
 <ele>1181.46</ele>
 <time>2010-08-08T08:25:53Z</time>
 </trkpt>
 <trkpt lat="47.235584" lon="13.249672">
 <ele>1182.94</ele>
 <time>2010-08-08T08:26:02Z</time>
 </trkpt>
 <trkpt lat="47.235542" lon="13.249877">
 <ele>1184.44</ele>
 <time>2010-08-08T08:26:11Z</time>
 </trkpt>
 <trkpt lat="47.235466" lon="13.250058">
 <ele>1185.98</ele>
 <time>2010-08-08T08:26:20Z</time>
 </trkpt>
 <trkpt lat="47.235355" lon="13.250292">
 <ele>1187.77</ele>
 <time>2010-08-08T08:26:32Z</time>
 </trkpt>
 <trkpt lat="47.235256" lon="13.250514">
 <ele>1189.62</ele>
 <time>2010-08-08T08:26:43Z</time>
 </trkpt>
 <trkpt lat="47.235168" lon="13.250738">
 <ele>1191.39</ele>
 <time>2010-08-08T08:26:54Z</time>
 </trkpt>
 <trkpt lat="47.235104" lon="13.250931">
 <ele>1192.98</ele>
 <time>2010-08-08T08:27:03Z</time>
 </trkpt>
 <trkpt lat="47.235058" lon="13.251091">
 <ele>1193.99</ele>
 <time>2010-08-08T08:27:10Z</time>
 </trkpt>
 <trkpt lat="47.235008" lon="13.251285">
 <ele>1195.01</ele>
 <time>2010-08-08T08:27:18Z</time>
 </trkpt>
 <trkpt lat="47.234928" lon="13.251575">
 <ele>1196.05</ele>
 <time>2010-08-08T08:27:30Z</time>
 </trkpt>
 <trkpt lat="47.234844" lon="13.251894">
 <ele>1198.07</ele>
 <time>2010-08-08T08:27:43Z</time>
 </trkpt>
 <trkpt lat="47.234756" lon="13.252122">
 <ele>1199.45</ele>
 <time>2010-08-08T08:27:53Z</time>
 </trkpt>
 <trkpt lat="47.234642" lon="13.252337">
 <ele>1200.65</ele>
 <time>2010-08-08T08:28:04Z</time>
 </trkpt>
 <trkpt lat="47.234524" lon="13.252576">
 <ele>1202.76</ele>
 <time>2010-08-08T08:28:16Z</time>
 </trkpt>
 <trkpt lat="47.234463" lon="13.252744">
 <ele>1204.32</ele>
 <time>2010-08-08T08:28:24Z</time>
 </trkpt>
 <trkpt lat="47.234447" lon="13.252910">
 <ele>1205.31</ele>
 <time>2010-08-08T08:28:31Z</time>
 </trkpt>
 <trkpt lat="47.234470" lon="13.253155">
 <ele>1206.74</ele>
 <time>2010-08-08T08:28:41Z</time>
 </trkpt>
 <trkpt lat="47.234528" lon="13.253472">
 <ele>1208.95</ele>
 <time>2010-08-08T08:28:54Z</time>
 </trkpt>
 <trkpt lat="47.234596" lon="13.253726">
 <ele>1210.88</ele>
 <time>2010-08-08T08:29:05Z</time>
 </trkpt>
 <trkpt lat="47.234638" lon="13.253883">
 <ele>1211.87</ele>
 <time>2010-08-08T08:29:12Z</time>
 </trkpt>
 <trkpt lat="47.234707" lon="13.254073">
 <ele>1212.95</ele>
 <time>2010-08-08T08:29:21Z</time>
 </trkpt>
 <trkpt lat="47.234783" lon="13.254254">
 <ele>1214.60</ele>
 <time>2010-08-08T08:29:30Z</time>
 </trkpt>
 <trkpt lat="47.234837" lon="13.254432">
 <ele>1216.41</ele>
 <time>2010-08-08T08:29:39Z</time>
 </trkpt>
 <trkpt lat="47.234882" lon="13.254620">
 <ele>1217.90</ele>
 <time>2010-08-08T08:29:48Z</time>
 </trkpt>
 <trkpt lat="47.234917" lon="13.254787">
 <ele>1219.37</ele>
 <time>2010-08-08T08:29:56Z</time>
 </trkpt>
 <trkpt lat="47.234974" lon="13.254985">
 <ele>1220.98</ele>
 <time>2010-08-08T08:30:06Z</time>
 </trkpt>
 <trkpt lat="47.235008" lon="13.255137">
 <ele>1222.67</ele>
 <time>2010-08-08T08:30:14Z</time>
 </trkpt>
 <trkpt lat="47.235065" lon="13.255280">
 <ele>1224.60</ele>
 <time>2010-08-08T08:30:23Z</time>
 </trkpt>
 <trkpt lat="47.235111" lon="13.255363">
 <ele>1226.30</ele>
 <time>2010-08-08T08:30:29Z</time>
 </trkpt>
 <trkpt lat="47.235203" lon="13.255520">
 <ele>1228.07</ele>
 <time>2010-08-08T08:30:38Z</time>
 </trkpt>
 <trkpt lat="47.235306" lon="13.255657">
 <ele>1230.31</ele>
 <time>2010-08-08T08:30:46Z</time>
 </trkpt>
 <trkpt lat="47.235363" lon="13.255835">
 <ele>1231.54</ele>
 <time>2010-08-08T08:30:55Z</time>
 </trkpt>
 <trkpt lat="47.235390" lon="13.256022">
 <ele>1233.42</ele>
 <time>2010-08-08T08:31:04Z</time>
 </trkpt>
 <trkpt lat="47.235416" lon="13.256209">
 <ele>1235.36</ele>
 <time>2010-08-08T08:31:13Z</time>
 </trkpt>
 <trkpt lat="47.235447" lon="13.256434">
 <ele>1237.59</ele>
 <time>2010-08-08T08:31:24Z</time>
 </trkpt>
 <trkpt lat="47.235451" lon="13.256523">
 <ele>1238.46</ele>
 <time>2010-08-08T08:31:28Z</time>
 </trkpt>
 <trkpt lat="47.235420" lon="13.256591">
 <ele>1239.36</ele>
 <time>2010-08-08T08:31:32Z</time>
 </trkpt>
 <trkpt lat="47.235371" lon="13.256621">
 <ele>1239.98</ele>
 <time>2010-08-08T08:31:36Z</time>
 </trkpt>
 <trkpt lat="47.235340" lon="13.256598">
 <ele>1240.41</ele>
 <time>2010-08-08T08:31:41Z</time>
 </trkpt>
 <trkpt lat="47.235332" lon="13.256588">
 <ele>1240.33</ele>
 <time>2010-08-08T08:31:44Z</time>
 </trkpt>
 <trkpt lat="47.235332" lon="13.256576">
 <ele>1240.43</ele>
 <time>2010-08-08T08:31:47Z</time>
 </trkpt>
 <trkpt lat="47.235313" lon="13.256545">
 <ele>1241.13</ele>
 <time>2010-08-08T08:33:26Z</time>
 </trkpt>
 <trkpt lat="47.235298" lon="13.256535">
 <ele>1241.36</ele>
 <time>2010-08-08T08:33:30Z</time>
 </trkpt>
 <trkpt lat="47.235279" lon="13.256513">
 <ele>1241.60</ele>
 <time>2010-08-08T08:33:34Z</time>
 </trkpt>
 <trkpt lat="47.235222" lon="13.256401">
 <ele>1242.72</ele>
 <time>2010-08-08T08:33:44Z</time>
 </trkpt>
 <trkpt lat="47.235172" lon="13.256270">
 <ele>1244.42</ele>
 <time>2010-08-08T08:33:55Z</time>
 </trkpt>
 <trkpt lat="47.235149" lon="13.256214">
 <ele>1244.96</ele>
 <time>2010-08-08T08:34:00Z</time>
 </trkpt>
 <trkpt lat="47.235134" lon="13.256168">
 <ele>1245.53</ele>
 <time>2010-08-08T08:34:04Z</time>
 </trkpt>
 <trkpt lat="47.235115" lon="13.256120">
 <ele>1246.20</ele>
 <time>2010-08-08T08:34:08Z</time>
 </trkpt>
 <trkpt lat="47.235062" lon="13.256043">
 <ele>1247.83</ele>
 <time>2010-08-08T08:34:18Z</time>
 </trkpt>
 <trkpt lat="47.235050" lon="13.256007">
 <ele>1248.28</ele>
 <time>2010-08-08T08:34:24Z</time>
 </trkpt>
 <trkpt lat="47.235016" lon="13.256064">
 <ele>1248.81</ele>
 <time>2010-08-08T08:34:31Z</time>
 </trkpt>
 <trkpt lat="47.234989" lon="13.256282">
 <ele>1248.50</ele>
 <time>2010-08-08T08:35:17Z</time>
 </trkpt>
 <trkpt lat="47.235027" lon="13.256432">
 <ele>1249.23</ele>
 <time>2010-08-08T08:35:24Z</time>
 </trkpt>
 <trkpt lat="47.235130" lon="13.256664">
 <ele>1250.73</ele>
 <time>2010-08-08T08:35:34Z</time>
 </trkpt>
 <trkpt lat="47.235260" lon="13.256847">
 <ele>1251.33</ele>
 <time>2010-08-08T08:35:42Z</time>
 </trkpt>
 <trkpt lat="47.235355" lon="13.257046">
 <ele>1251.16</ele>
 <time>2010-08-08T08:35:49Z</time>
 </trkpt>
 <trkpt lat="47.235470" lon="13.257341">
 <ele>1249.89</ele>
 <time>2010-08-08T08:35:55Z</time>
 </trkpt>
 <trkpt lat="47.235634" lon="13.257650">
 <ele>1248.68</ele>
 <time>2010-08-08T08:36:00Z</time>
 </trkpt>
 <trkpt lat="47.235729" lon="13.257874">
 <ele>1249.10</ele>
 <time>2010-08-08T08:36:05Z</time>
 </trkpt>
 <trkpt lat="47.235760" lon="13.258011">
 <ele>1250.93</ele>
 <time>2010-08-08T08:36:11Z</time>
 </trkpt>
 <trkpt lat="47.235802" lon="13.258238">
 <ele>1253.59</ele>
 <time>2010-08-08T08:36:22Z</time>
 </trkpt>
 <trkpt lat="47.235840" lon="13.258363">
 <ele>1254.69</ele>
 <time>2010-08-08T08:36:28Z</time>
 </trkpt>
 <trkpt lat="47.235859" lon="13.258533">
 <ele>1256.20</ele>
 <time>2010-08-08T08:36:36Z</time>
 </trkpt>
 <trkpt lat="47.235889" lon="13.258730">
 <ele>1257.68</ele>
 <time>2010-08-08T08:36:45Z</time>
 </trkpt>
 <trkpt lat="47.235886" lon="13.258907">
 <ele>1258.71</ele>
 <time>2010-08-08T08:36:53Z</time>
 </trkpt>
 <trkpt lat="47.235874" lon="13.259166">
 <ele>1260.63</ele>
 <time>2010-08-08T08:37:05Z</time>
 </trkpt>
 <trkpt lat="47.235851" lon="13.259385">
 <ele>1262.49</ele>
 <time>2010-08-08T08:37:16Z</time>
 </trkpt>
 <trkpt lat="47.235855" lon="13.259597">
 <ele>1263.76</ele>
 <time>2010-08-08T08:37:25Z</time>
 </trkpt>
 <trkpt lat="47.235863" lon="13.259818">
 <ele>1265.58</ele>
 <time>2010-08-08T08:37:35Z</time>
 </trkpt>
 <trkpt lat="47.235851" lon="13.259990">
 <ele>1266.84</ele>
 <time>2010-08-08T08:37:43Z</time>
 </trkpt>
 <trkpt lat="47.235832" lon="13.260207">
 <ele>1268.73</ele>
 <time>2010-08-08T08:37:53Z</time>
 </trkpt>
 <trkpt lat="47.235817" lon="13.260405">
 <ele>1270.31</ele>
 <time>2010-08-08T08:38:02Z</time>
 </trkpt>
 <trkpt lat="47.235832" lon="13.260658">
 <ele>1272.58</ele>
 <time>2010-08-08T08:38:14Z</time>
 </trkpt>
 <trkpt lat="47.235867" lon="13.260882">
 <ele>1274.20</ele>
 <time>2010-08-08T08:38:25Z</time>
 </trkpt>
 <trkpt lat="47.235901" lon="13.261062">
 <ele>1275.81</ele>
 <time>2010-08-08T08:38:35Z</time>
 </trkpt>
 <trkpt lat="47.235970" lon="13.261185">
 <ele>1276.66</ele>
 <time>2010-08-08T08:38:43Z</time>
 </trkpt>
 <trkpt lat="47.236053" lon="13.261348">
 <ele>1277.89</ele>
 <time>2010-08-08T08:38:53Z</time>
 </trkpt>
 <trkpt lat="47.236088" lon="13.261493">
 <ele>1279.71</ele>
 <time>2010-08-08T08:39:01Z</time>
 </trkpt>
 <trkpt lat="47.236088" lon="13.261669">
 <ele>1281.71</ele>
 <time>2010-08-08T08:39:10Z</time>
 </trkpt>
 <trkpt lat="47.236099" lon="13.261861">
 <ele>1283.63</ele>
 <time>2010-08-08T08:39:20Z</time>
 </trkpt>
 <trkpt lat="47.236111" lon="13.261915">
 <ele>1284.03</ele>
 <time>2010-08-08T08:39:23Z</time>
 </trkpt>
 <trkpt lat="47.236217" lon="13.261967">
 <ele>1285.26</ele>
 <time>2010-08-08T08:39:31Z</time>
 </trkpt>
 <trkpt lat="47.236298" lon="13.261885">
 <ele>1286.10</ele>
 <time>2010-08-08T08:39:38Z</time>
 </trkpt>
 <trkpt lat="47.236332" lon="13.261701">
 <ele>1287.72</ele>
 <time>2010-08-08T08:39:48Z</time>
 </trkpt>
 <trkpt lat="47.236340" lon="13.261648">
 <ele>1288.19</ele>
 <time>2010-08-08T08:39:51Z</time>
 </trkpt>
 <trkpt lat="47.236382" lon="13.261606">
 <ele>1288.99</ele>
 <time>2010-08-08T08:39:55Z</time>
 </trkpt>
 <trkpt lat="47.236427" lon="13.261634">
 <ele>1289.41</ele>
 <time>2010-08-08T08:39:59Z</time>
 </trkpt>
 <trkpt lat="47.236458" lon="13.261809">
 <ele>1290.91</ele>
 <time>2010-08-08T08:40:09Z</time>
 </trkpt>
 <trkpt lat="47.236450" lon="13.261842">
 <ele>1291.40</ele>
 <time>2010-08-08T08:40:11Z</time>
 </trkpt>
 <trkpt lat="47.236423" lon="13.262052">
 <ele>1292.75</ele>
 <time>2010-08-08T08:40:21Z</time>
 </trkpt>
 <trkpt lat="47.236401" lon="13.262238">
 <ele>1294.65</ele>
 <time>2010-08-08T08:40:30Z</time>
 </trkpt>
 <trkpt lat="47.236397" lon="13.262488">
 <ele>1296.31</ele>
 <time>2010-08-08T08:40:42Z</time>
 </trkpt>
 <trkpt lat="47.236408" lon="13.262757">
 <ele>1298.82</ele>
 <time>2010-08-08T08:40:55Z</time>
 </trkpt>
 <trkpt lat="47.236408" lon="13.262960">
 <ele>1300.79</ele>
 <time>2010-08-08T08:41:05Z</time>
 </trkpt>
 <trkpt lat="47.236408" lon="13.263120">
 <ele>1302.53</ele>
 <time>2010-08-08T08:41:13Z</time>
 </trkpt>
 <trkpt lat="47.236397" lon="13.263322">
 <ele>1304.80</ele>
 <time>2010-08-08T08:41:23Z</time>
 </trkpt>
 <trkpt lat="47.236393" lon="13.263468">
 <ele>1305.18</ele>
 <time>2010-08-08T08:41:30Z</time>
 </trkpt>
 <trkpt lat="47.236366" lon="13.263652">
 <ele>1305.22</ele>
 <time>2010-08-08T08:41:38Z</time>
 </trkpt>
 <trkpt lat="47.236332" lon="13.263812">
 <ele>1306.67</ele>
 <time>2010-08-08T08:41:46Z</time>
 </trkpt>
 <trkpt lat="47.236351" lon="13.263978">
 <ele>1307.23</ele>
 <time>2010-08-08T08:41:52Z</time>
 </trkpt>
 <trkpt lat="47.236355" lon="13.264127">
 <ele>1307.70</ele>
 <time>2010-08-08T08:41:58Z</time>
 </trkpt>
 <trkpt lat="47.236408" lon="13.264301">
 <ele>1307.86</ele>
 <time>2010-08-08T08:42:06Z</time>
 </trkpt>
 <trkpt lat="47.236450" lon="13.264491">
 <ele>1308.64</ele>
 <time>2010-08-08T08:42:14Z</time>
 </trkpt>
 <trkpt lat="47.236454" lon="13.264700">
 <ele>1309.59</ele>
 <time>2010-08-08T08:42:23Z</time>
 </trkpt>
 <trkpt lat="47.236431" lon="13.264907">
 <ele>1310.92</ele>
 <time>2010-08-08T08:42:32Z</time>
 </trkpt>
 <trkpt lat="47.236382" lon="13.265134">
 <ele>1312.96</ele>
 <time>2010-08-08T08:42:43Z</time>
 </trkpt>
 <trkpt lat="47.236317" lon="13.265322">
 <ele>1315.49</ele>
 <time>2010-08-08T08:42:53Z</time>
 </trkpt>
 <trkpt lat="47.236248" lon="13.265479">
 <ele>1317.26</ele>
 <time>2010-08-08T08:43:02Z</time>
 </trkpt>
 <trkpt lat="47.236179" lon="13.265614">
 <ele>1319.00</ele>
 <time>2010-08-08T08:43:10Z</time>
 </trkpt>
 <trkpt lat="47.236099" lon="13.265762">
 <ele>1321.20</ele>
 <time>2010-08-08T08:43:19Z</time>
 </trkpt>
 <trkpt lat="47.236008" lon="13.265927">
 <ele>1323.54</ele>
 <time>2010-08-08T08:43:29Z</time>
 </trkpt>
 <trkpt lat="47.235909" lon="13.266069">
 <ele>1325.67</ele>
 <time>2010-08-08T08:43:39Z</time>
 </trkpt>
 <trkpt lat="47.235905" lon="13.266075">
 <ele>1326.02</ele>
 <time>2010-08-08T08:43:41Z</time>
 </trkpt>
 <trkpt lat="47.235882" lon="13.266102">
 <ele>1326.48</ele>
 <time>2010-08-08T08:43:54Z</time>
 </trkpt>
 <trkpt lat="47.235863" lon="13.266131">
 <ele>1327.27</ele>
 <time>2010-08-08T08:43:59Z</time>
 </trkpt>
 <trkpt lat="47.235859" lon="13.266158">
 <ele>1327.47</ele>
 <time>2010-08-08T08:44:07Z</time>
 </trkpt>
 <trkpt lat="47.235809" lon="13.266243">
 <ele>1328.55</ele>
 <time>2010-08-08T08:44:18Z</time>
 </trkpt>
 <trkpt lat="47.235809" lon="13.266244">
 <ele>1328.81</ele>
 <time>2010-08-08T08:44:19Z</time>
 </trkpt>
 <trkpt lat="47.235794" lon="13.266243">
 <ele>1329.87</ele>
 <time>2010-08-08T08:45:13Z</time>
 </trkpt>
 <trkpt lat="47.235794" lon="13.266276">
 <ele>1329.35</ele>
 <time>2010-08-08T08:45:17Z</time>
 </trkpt>
 <trkpt lat="47.235783" lon="13.266352">
 <ele>1330.04</ele>
 <time>2010-08-08T08:45:25Z</time>
 </trkpt>
 <trkpt lat="47.235779" lon="13.266435">
 <ele>1330.57</ele>
 <time>2010-08-08T08:45:36Z</time>
 </trkpt>
 <trkpt lat="47.235767" lon="13.266557">
 <ele>1331.65</ele>
 <time>2010-08-08T08:45:45Z</time>
 </trkpt>
 <trkpt lat="47.235779" lon="13.266694">
 <ele>1332.94</ele>
 <time>2010-08-08T08:45:56Z</time>
 </trkpt>
 <trkpt lat="47.235786" lon="13.266814">
 <ele>1334.23</ele>
 <time>2010-08-08T08:46:05Z</time>
 </trkpt>
 <trkpt lat="47.235821" lon="13.266954">
 <ele>1335.60</ele>
 <time>2010-08-08T08:46:16Z</time>
 </trkpt>
 <trkpt lat="47.235851" lon="13.267076">
 <ele>1336.88</ele>
 <time>2010-08-08T08:46:26Z</time>
 </trkpt>
 <trkpt lat="47.235867" lon="13.267096">
 <ele>1337.12</ele>
 <time>2010-08-08T08:46:28Z</time>
 </trkpt>
 <trkpt lat="47.235882" lon="13.267200">
 <ele>1338.17</ele>
 <time>2010-08-08T08:46:37Z</time>
 </trkpt>
 <trkpt lat="47.235889" lon="13.267235">
 <ele>1338.33</ele>
 <time>2010-08-08T08:46:41Z</time>
 </trkpt>
 <trkpt lat="47.235886" lon="13.267239">
 <ele>1338.36</ele>
 <time>2010-08-08T08:46:42Z</time>
 </trkpt>
 <trkpt lat="47.235718" lon="13.267474">
 <ele>1338.21</ele>
 <time>2010-08-08T08:47:06Z</time>
 </trkpt>
 <trkpt lat="47.235611" lon="13.267634">
 <ele>1339.51</ele>
 <time>2010-08-08T08:47:14Z</time>
 </trkpt>
 <trkpt lat="47.235489" lon="13.267860">
 <ele>1341.02</ele>
 <time>2010-08-08T08:47:25Z</time>
 </trkpt>
 <trkpt lat="47.235378" lon="13.267990">
 <ele>1341.48</ele>
 <time>2010-08-08T08:47:33Z</time>
 </trkpt>
 <trkpt lat="47.235252" lon="13.268049">
 <ele>1341.95</ele>
 <time>2010-08-08T08:47:42Z</time>
 </trkpt>
 <trkpt lat="47.235153" lon="13.268062">
 <ele>1342.81</ele>
 <time>2010-08-08T08:47:50Z</time>
 </trkpt>
 <trkpt lat="47.235130" lon="13.268062">
 <ele>1342.96</ele>
 <time>2010-08-08T08:47:53Z</time>
 </trkpt>
 <trkpt lat="47.235123" lon="13.268100">
 <ele>1342.70</ele>
 <time>2010-08-08T08:47:58Z</time>
 </trkpt>
 <trkpt lat="47.235088" lon="13.268245">
 <ele>1342.90</ele>
 <time>2010-08-08T08:48:29Z</time>
 </trkpt>
 <trkpt lat="47.235039" lon="13.268366">
 <ele>1343.32</ele>
 <time>2010-08-08T08:48:36Z</time>
 </trkpt>
 <trkpt lat="47.234955" lon="13.268494">
 <ele>1344.47</ele>
 <time>2010-08-08T08:48:45Z</time>
 </trkpt>
 <trkpt lat="47.234848" lon="13.268588">
 <ele>1345.76</ele>
 <time>2010-08-08T08:48:53Z</time>
 </trkpt>
 <trkpt lat="47.234749" lon="13.268655">
 <ele>1346.82</ele>
 <time>2010-08-08T08:49:00Z</time>
 </trkpt>
 <trkpt lat="47.234592" lon="13.268753">
 <ele>1347.90</ele>
 <time>2010-08-08T08:49:09Z</time>
 </trkpt>
 <trkpt lat="47.234470" lon="13.268836">
 <ele>1349.71</ele>
 <time>2010-08-08T08:49:17Z</time>
 </trkpt>
 <trkpt lat="47.234402" lon="13.268928">
 <ele>1350.22</ele>
 <time>2010-08-08T08:49:23Z</time>
 </trkpt>
 <trkpt lat="47.234352" lon="13.269045">
 <ele>1350.52</ele>
 <time>2010-08-08T08:49:29Z</time>
 </trkpt>
 <trkpt lat="47.234295" lon="13.269170">
 <ele>1352.11</ele>
 <time>2010-08-08T08:49:36Z</time>
 </trkpt>
 <trkpt lat="47.234261" lon="13.269309">
 <ele>1353.71</ele>
 <time>2010-08-08T08:49:43Z</time>
 </trkpt>
 <trkpt lat="47.234257" lon="13.269502">
 <ele>1355.85</ele>
 <time>2010-08-08T08:49:52Z</time>
 </trkpt>
 <trkpt lat="47.234257" lon="13.269638">
 <ele>1357.26</ele>
 <time>2010-08-08T08:49:59Z</time>
 </trkpt>
 <trkpt lat="47.234272" lon="13.269798">
 <ele>1358.52</ele>
 <time>2010-08-08T08:50:06Z</time>
 </trkpt>
 <trkpt lat="47.234318" lon="13.269899">
 <ele>1359.79</ele>
 <time>2010-08-08T08:50:12Z</time>
 </trkpt>
 <trkpt lat="47.234364" lon="13.270070">
 <ele>1361.65</ele>
 <time>2010-08-08T08:50:21Z</time>
 </trkpt>
 <trkpt lat="47.234398" lon="13.270141">
 <ele>1362.28</ele>
 <time>2010-08-08T08:50:25Z</time>
 </trkpt>
 <trkpt lat="47.234467" lon="13.270307">
 <ele>1364.60</ele>
 <time>2010-08-08T08:50:35Z</time>
 </trkpt>
 <trkpt lat="47.234528" lon="13.270461">
 <ele>1367.08</ele>
 <time>2010-08-08T08:50:44Z</time>
 </trkpt>
 <trkpt lat="47.234585" lon="13.270563">
 <ele>1368.48</ele>
 <time>2010-08-08T08:50:51Z</time>
 </trkpt>
 <trkpt lat="47.234596" lon="13.270628">
 <ele>1369.11</ele>
 <time>2010-08-08T08:50:55Z</time>
 </trkpt>
 <trkpt lat="47.234638" lon="13.270653">
 <ele>1370.00</ele>
 <time>2010-08-08T08:51:01Z</time>
 </trkpt>
 <trkpt lat="47.234623" lon="13.270647">
 <ele>1370.63</ele>
 <time>2010-08-08T08:51:19Z</time>
 </trkpt>
 <trkpt lat="47.234661" lon="13.270688">
 <ele>1371.33</ele>
 <time>2010-08-08T08:53:38Z</time>
 </trkpt>
 <trkpt lat="47.234661" lon="13.270695">
 <ele>1371.39</ele>
 <time>2010-08-08T08:53:39Z</time>
 </trkpt>
 <trkpt lat="47.234669" lon="13.270703">
 <ele>1371.59</ele>
 <time>2010-08-08T08:53:41Z</time>
 </trkpt>
 <trkpt lat="47.234566" lon="13.270535">
 <ele>1370.31</ele>
 <time>2010-08-08T08:55:11Z</time>
 </trkpt>
 <trkpt lat="47.234524" lon="13.270463">
 <ele>1369.75</ele>
 <time>2010-08-08T08:55:15Z</time>
 </trkpt>
 <trkpt lat="47.234474" lon="13.270372">
 <ele>1368.18</ele>
 <time>2010-08-08T08:55:21Z</time>
 </trkpt>
 <trkpt lat="47.234386" lon="13.270172">
 <ele>1365.62</ele>
 <time>2010-08-08T08:55:29Z</time>
 </trkpt>
 <trkpt lat="47.234295" lon="13.269990">
 <ele>1362.85</ele>
 <time>2010-08-08T08:55:36Z</time>
 </trkpt>
 <trkpt lat="47.234261" lon="13.269914">
 <ele>1362.26</ele>
 <time>2010-08-08T08:55:39Z</time>
 </trkpt>
 <trkpt lat="47.234222" lon="13.269741">
 <ele>1360.32</ele>
 <time>2010-08-08T08:55:45Z</time>
 </trkpt>
 <trkpt lat="47.234226" lon="13.269497">
 <ele>1358.14</ele>
 <time>2010-08-08T08:55:52Z</time>
 </trkpt>
 <trkpt lat="47.234241" lon="13.269341">
 <ele>1356.17</ele>
 <time>2010-08-08T08:55:57Z</time>
 </trkpt>
 <trkpt lat="47.234318" lon="13.269133">
 <ele>1353.88</ele>
 <time>2010-08-08T08:56:05Z</time>
 </trkpt>
 <trkpt lat="47.234406" lon="13.268952">
 <ele>1351.81</ele>
 <time>2010-08-08T08:56:11Z</time>
 </trkpt>
 <trkpt lat="47.234535" lon="13.268837">
 <ele>1351.26</ele>
 <time>2010-08-08T08:56:17Z</time>
 </trkpt>
 <trkpt lat="47.234734" lon="13.268704">
 <ele>1349.17</ele>
 <time>2010-08-08T08:56:23Z</time>
 </trkpt>
 <trkpt lat="47.234901" lon="13.268572">
 <ele>1347.95</ele>
 <time>2010-08-08T08:56:30Z</time>
 </trkpt>
 <trkpt lat="47.235046" lon="13.268377">
 <ele>1345.54</ele>
 <time>2010-08-08T08:56:38Z</time>
 </trkpt>
 <trkpt lat="47.235126" lon="13.268194">
 <ele>1344.90</ele>
 <time>2010-08-08T08:56:45Z</time>
 </trkpt>
 <trkpt lat="47.235153" lon="13.268156">
 <ele>1344.68</ele>
 <time>2010-08-08T08:56:49Z</time>
 </trkpt>
 <trkpt lat="47.235146" lon="13.268139">
 <ele>1344.10</ele>
 <time>2010-08-08T08:57:31Z</time>
 </trkpt>
 <trkpt lat="47.235153" lon="13.268131">
 <ele>1344.03</ele>
 <time>2010-08-08T08:57:32Z</time>
 </trkpt>
 <trkpt lat="47.235214" lon="13.268103">
 <ele>1343.95</ele>
 <time>2010-08-08T08:57:36Z</time>
 </trkpt>
 <trkpt lat="47.235256" lon="13.268030">
 <ele>1343.87</ele>
 <time>2010-08-08T08:57:43Z</time>
 </trkpt>
 <trkpt lat="47.235149" lon="13.267963">
 <ele>1344.03</ele>
 <time>2010-08-08T08:58:12Z</time>
 </trkpt>
 <trkpt lat="47.235134" lon="13.267978">
 <ele>1344.02</ele>
 <time>2010-08-08T08:58:18Z</time>
 </trkpt>
 <trkpt lat="47.235325" lon="13.268038">
 <ele>1343.16</ele>
 <time>2010-08-08T08:58:51Z</time>
 </trkpt>
 <trkpt lat="47.235348" lon="13.268033">
 <ele>1343.01</ele>
 <time>2010-08-08T08:58:52Z</time>
 </trkpt>
 <trkpt lat="47.235474" lon="13.267884">
 <ele>1342.86</ele>
 <time>2010-08-08T08:58:58Z</time>
 </trkpt>
 <trkpt lat="47.235641" lon="13.267589">
 <ele>1341.63</ele>
 <time>2010-08-08T08:59:05Z</time>
 </trkpt>
 <trkpt lat="47.235718" lon="13.267461">
 <ele>1340.83</ele>
 <time>2010-08-08T08:59:08Z</time>
 </trkpt>
 <trkpt lat="47.235817" lon="13.267173">
 <ele>1339.84</ele>
 <time>2010-08-08T08:59:14Z</time>
 </trkpt>
 <trkpt lat="47.235779" lon="13.266935">
 <ele>1338.37</ele>
 <time>2010-08-08T08:59:19Z</time>
 </trkpt>
 <trkpt lat="47.235703" lon="13.266645">
 <ele>1335.96</ele>
 <time>2010-08-08T08:59:25Z</time>
 </trkpt>
 <trkpt lat="47.235737" lon="13.266386">
 <ele>1333.20</ele>
 <time>2010-08-08T08:59:32Z</time>
 </trkpt>
 <trkpt lat="47.235817" lon="13.266208">
 <ele>1330.82</ele>
 <time>2010-08-08T08:59:38Z</time>
 </trkpt>
 <trkpt lat="47.235973" lon="13.265972">
 <ele>1327.85</ele>
 <time>2010-08-08T08:59:45Z</time>
 </trkpt>
 <trkpt lat="47.236092" lon="13.265779">
 <ele>1325.61</ele>
 <time>2010-08-08T08:59:49Z</time>
 </trkpt>
 <trkpt lat="47.236286" lon="13.265408">
 <ele>1320.69</ele>
 <time>2010-08-08T08:59:57Z</time>
 </trkpt>
 <trkpt lat="47.236412" lon="13.265085">
 <ele>1316.84</ele>
 <time>2010-08-08T09:00:04Z</time>
 </trkpt>
 <trkpt lat="47.236477" lon="13.264730">
 <ele>1313.70</ele>
 <time>2010-08-08T09:00:10Z</time>
 </trkpt>
 <trkpt lat="47.236481" lon="13.264603">
 <ele>1312.98</ele>
 <time>2010-08-08T09:00:12Z</time>
 </trkpt>
 <trkpt lat="47.236435" lon="13.264303">
 <ele>1311.67</ele>
 <time>2010-08-08T09:00:17Z</time>
 </trkpt>
 <trkpt lat="47.236401" lon="13.264183">
 <ele>1311.12</ele>
 <time>2010-08-08T09:00:19Z</time>
 </trkpt>
 <trkpt lat="47.236362" lon="13.263923">
 <ele>1309.99</ele>
 <time>2010-08-08T09:00:23Z</time>
 </trkpt>
 <trkpt lat="47.236374" lon="13.263719">
 <ele>1309.88</ele>
 <time>2010-08-08T09:00:26Z</time>
 </trkpt>
 <trkpt lat="47.236423" lon="13.263355">
 <ele>1308.28</ele>
 <time>2010-08-08T09:00:32Z</time>
 </trkpt>
 <trkpt lat="47.236427" lon="13.263023">
 <ele>1306.00</ele>
 <time>2010-08-08T09:00:38Z</time>
 </trkpt>
 <trkpt lat="47.236416" lon="13.262588">
 <ele>1302.10</ele>
 <time>2010-08-08T09:00:45Z</time>
 </trkpt>
 <trkpt lat="47.236423" lon="13.262155">
 <ele>1298.48</ele>
 <time>2010-08-08T09:00:52Z</time>
 </trkpt>
 <trkpt lat="47.236458" lon="13.261846">
 <ele>1295.66</ele>
 <time>2010-08-08T09:00:57Z</time>
 </trkpt>
 <trkpt lat="47.236462" lon="13.261805">
 <ele>1295.37</ele>
 <time>2010-08-08T09:00:58Z</time>
 </trkpt>
 <trkpt lat="47.236412" lon="13.261627">
 <ele>1293.73</ele>
 <time>2010-08-08T09:01:03Z</time>
 </trkpt>
 <trkpt lat="47.236320" lon="13.261681">
 <ele>1293.14</ele>
 <time>2010-08-08T09:01:07Z</time>
 </trkpt>
 <trkpt lat="47.236294" lon="13.261768">
 <ele>1292.68</ele>
 <time>2010-08-08T09:01:09Z</time>
 </trkpt>
 <trkpt lat="47.236221" lon="13.261935">
 <ele>1290.32</ele>
 <time>2010-08-08T09:01:14Z</time>
 </trkpt>
 <trkpt lat="47.236176" lon="13.261953">
 <ele>1289.62</ele>
 <time>2010-08-08T09:01:16Z</time>
 </trkpt>
 <trkpt lat="47.236099" lon="13.261782">
 <ele>1287.84</ele>
 <time>2010-08-08T09:01:20Z</time>
 </trkpt>
 <trkpt lat="47.236099" lon="13.261662">
 <ele>1286.79</ele>
 <time>2010-08-08T09:01:22Z</time>
 </trkpt>
 <trkpt lat="47.236107" lon="13.261402">
 <ele>1284.60</ele>
 <time>2010-08-08T09:01:28Z</time>
 </trkpt>
 <trkpt lat="47.236023" lon="13.261232">
 <ele>1282.68</ele>
 <time>2010-08-08T09:01:33Z</time>
 </trkpt>
 <trkpt lat="47.235905" lon="13.261026">
 <ele>1281.19</ele>
 <time>2010-08-08T09:01:38Z</time>
 </trkpt>
 <trkpt lat="47.235863" lon="13.260819">
 <ele>1279.36</ele>
 <time>2010-08-08T09:01:43Z</time>
 </trkpt>
 <trkpt lat="47.235828" lon="13.260619">
 <ele>1277.62</ele>
 <time>2010-08-08T09:01:48Z</time>
 </trkpt>
 <trkpt lat="47.235828" lon="13.260256">
 <ele>1275.16</ele>
 <time>2010-08-08T09:01:54Z</time>
 </trkpt>
 <trkpt lat="47.235836" lon="13.259726">
 <ele>1270.91</ele>
 <time>2010-08-08T09:02:02Z</time>
 </trkpt>
 <trkpt lat="47.235840" lon="13.259533">
 <ele>1269.47</ele>
 <time>2010-08-08T09:02:05Z</time>
 </trkpt>
 <trkpt lat="47.235870" lon="13.259278">
 <ele>1267.65</ele>
 <time>2010-08-08T09:02:09Z</time>
 </trkpt>
 <trkpt lat="47.235954" lon="13.258914">
 <ele>1264.52</ele>
 <time>2010-08-08T09:02:16Z</time>
 </trkpt>
 <trkpt lat="47.235947" lon="13.258659">
 <ele>1263.32</ele>
 <time>2010-08-08T09:02:21Z</time>
 </trkpt>
 <trkpt lat="47.235882" lon="13.258326">
 <ele>1260.61</ele>
 <time>2010-08-08T09:02:28Z</time>
 </trkpt>
 <trkpt lat="47.235809" lon="13.258029">
 <ele>1257.50</ele>
 <time>2010-08-08T09:02:34Z</time>
 </trkpt>
 <trkpt lat="47.235653" lon="13.257627">
 <ele>1253.13</ele>
 <time>2010-08-08T09:02:40Z</time>
 </trkpt>
 <trkpt lat="47.235500" lon="13.257301">
 <ele>1252.45</ele>
 <time>2010-08-08T09:02:45Z</time>
 </trkpt>
 <trkpt lat="47.235451" lon="13.257144">
 <ele>1254.10</ele>
 <time>2010-08-08T09:02:49Z</time>
 </trkpt>
 <trkpt lat="47.235367" lon="13.256906">
 <ele>1255.49</ele>
 <time>2010-08-08T09:02:55Z</time>
 </trkpt>
 <trkpt lat="47.235218" lon="13.256659">
 <ele>1256.01</ele>
 <time>2010-08-08T09:03:02Z</time>
 </trkpt>
 <trkpt lat="47.235165" lon="13.256574">
 <ele>1255.76</ele>
 <time>2010-08-08T09:03:04Z</time>
 </trkpt>
 <trkpt lat="47.235046" lon="13.256246">
 <ele>1254.06</ele>
 <time>2010-08-08T09:03:10Z</time>
 </trkpt>
 <trkpt lat="47.235031" lon="13.256204">
 <ele>1253.85</ele>
 <time>2010-08-08T09:03:11Z</time>
 </trkpt>
 <trkpt lat="47.235096" lon="13.256098">
 <ele>1253.10</ele>
 <time>2010-08-08T09:03:16Z</time>
 </trkpt>
 <trkpt lat="47.235165" lon="13.256208">
 <ele>1251.96</ele>
 <time>2010-08-08T09:03:20Z</time>
 </trkpt>
 <trkpt lat="47.235271" lon="13.256494">
 <ele>1248.78</ele>
 <time>2010-08-08T09:03:27Z</time>
 </trkpt>
 <trkpt lat="47.235378" lon="13.256632">
 <ele>1247.04</ele>
 <time>2010-08-08T09:03:31Z</time>
 </trkpt>
 <trkpt lat="47.235466" lon="13.256633">
 <ele>1246.74</ele>
 <time>2010-08-08T09:03:34Z</time>
 </trkpt>
 <trkpt lat="47.235508" lon="13.256490">
 <ele>1246.11</ele>
 <time>2010-08-08T09:03:38Z</time>
 </trkpt>
 <trkpt lat="47.235470" lon="13.256158">
 <ele>1242.86</ele>
 <time>2010-08-08T09:03:45Z</time>
 </trkpt>
 <trkpt lat="47.235405" lon="13.255835">
 <ele>1239.29</ele>
 <time>2010-08-08T09:03:53Z</time>
 </trkpt>
 <trkpt lat="47.235355" lon="13.255654">
 <ele>1237.34</ele>
 <time>2010-08-08T09:03:58Z</time>
 </trkpt>
 <trkpt lat="47.235237" lon="13.255421">
 <ele>1234.94</ele>
 <time>2010-08-08T09:04:05Z</time>
 </trkpt>
 <trkpt lat="47.235096" lon="13.255167">
 <ele>1230.78</ele>
 <time>2010-08-08T09:04:14Z</time>
 </trkpt>
 <trkpt lat="47.235008" lon="13.254930">
 <ele>1228.33</ele>
 <time>2010-08-08T09:04:20Z</time>
 </trkpt>
 <trkpt lat="47.234955" lon="13.254631">
 <ele>1225.84</ele>
 <time>2010-08-08T09:04:26Z</time>
 </trkpt>
 <trkpt lat="47.234905" lon="13.254378">
 <ele>1223.34</ele>
 <time>2010-08-08T09:04:32Z</time>
 </trkpt>
 <trkpt lat="47.234837" lon="13.254192">
 <ele>1221.61</ele>
 <time>2010-08-08T09:04:37Z</time>
 </trkpt>
 <trkpt lat="47.234821" lon="13.254133">
 <ele>1220.84</ele>
 <time>2010-08-08T09:04:42Z</time>
 </trkpt>
 <trkpt lat="47.234791" lon="13.254085">
 <ele>1220.54</ele>
 <time>2010-08-08T09:04:59Z</time>
 </trkpt>
 <trkpt lat="47.234772" lon="13.254046">
 <ele>1220.42</ele>
 <time>2010-08-08T09:05:00Z</time>
 </trkpt>
 <trkpt lat="47.234695" lon="13.253877">
 <ele>1219.34</ele>
 <time>2010-08-08T09:05:03Z</time>
 </trkpt>
 <trkpt lat="47.234562" lon="13.253329">
 <ele>1214.80</ele>
 <time>2010-08-08T09:05:09Z</time>
 </trkpt>
 <trkpt lat="47.234509" lon="13.252971">
 <ele>1213.19</ele>
 <time>2010-08-08T09:05:13Z</time>
 </trkpt>
 <trkpt lat="47.234573" lon="13.252595">
 <ele>1211.01</ele>
 <time>2010-08-08T09:05:18Z</time>
 </trkpt>
 <trkpt lat="47.234612" lon="13.252512">
 <ele>1210.10</ele>
 <time>2010-08-08T09:05:19Z</time>
 </trkpt>
 <trkpt lat="47.234753" lon="13.252249">
 <ele>1207.68</ele>
 <time>2010-08-08T09:05:22Z</time>
 </trkpt>
 <trkpt lat="47.234970" lon="13.251595">
 <ele>1202.90</ele>
 <time>2010-08-08T09:05:28Z</time>
 </trkpt>
 <trkpt lat="47.235126" lon="13.251084">
 <ele>1200.47</ele>
 <time>2010-08-08T09:05:33Z</time>
 </trkpt>
 <trkpt lat="47.235271" lon="13.250664">
 <ele>1198.39</ele>
 <time>2010-08-08T09:05:38Z</time>
 </trkpt>
 <trkpt lat="47.235313" lon="13.250563">
 <ele>1198.39</ele>
 <time>2010-08-08T09:05:39Z</time>
 </trkpt>
 <trkpt lat="47.235531" lon="13.250077">
 <ele>1193.39</ele>
 <time>2010-08-08T09:05:44Z</time>
 </trkpt>
 <trkpt lat="47.235619" lon="13.249859">
 <ele>1191.83</ele>
 <time>2010-08-08T09:05:47Z</time>
 </trkpt>
 <trkpt lat="47.235638" lon="13.249525">
 <ele>1189.93</ele>
 <time>2010-08-08T09:05:51Z</time>
 </trkpt>
 <trkpt lat="47.235619" lon="13.249442">
 <ele>1189.12</ele>
 <time>2010-08-08T09:05:52Z</time>
 </trkpt>
 <trkpt lat="47.235508" lon="13.248989">
 <ele>1185.65</ele>
 <time>2010-08-08T09:05:57Z</time>
 </trkpt>
 <trkpt lat="47.235432" lon="13.248350">
 <ele>1180.71</ele>
 <time>2010-08-08T09:06:02Z</time>
 </trkpt>
 <trkpt lat="47.235397" lon="13.248062">
 <ele>1179.62</ele>
 <time>2010-08-08T09:06:04Z</time>
 </trkpt>
 <trkpt lat="47.235325" lon="13.247250">
 <ele>1174.08</ele>
 <time>2010-08-08T09:06:10Z</time>
 </trkpt>
 <trkpt lat="47.235229" lon="13.246663">
 <ele>1171.20</ele>
 <time>2010-08-08T09:06:15Z</time>
 </trkpt>
 <trkpt lat="47.235081" lon="13.245930">
 <ele>1167.00</ele>
 <time>2010-08-08T09:06:21Z</time>
 </trkpt>
 <trkpt lat="47.234985" lon="13.245411">
 <ele>1164.71</ele>
 <time>2010-08-08T09:06:26Z</time>
 </trkpt>
 <trkpt lat="47.234985" lon="13.244958">
 <ele>1162.66</ele>
 <time>2010-08-08T09:06:30Z</time>
 </trkpt>
 <trkpt lat="47.235085" lon="13.244338">
 <ele>1158.73</ele>
 <time>2010-08-08T09:06:35Z</time>
 </trkpt>
 <trkpt lat="47.235275" lon="13.243341">
 <ele>1152.90</ele>
 <time>2010-08-08T09:06:42Z</time>
 </trkpt>
 <trkpt lat="47.235371" lon="13.242587">
 <ele>1148.42</ele>
 <time>2010-08-08T09:06:47Z</time>
 </trkpt>
 <trkpt lat="47.235378" lon="13.242290">
 <ele>1148.55</ele>
 <time>2010-08-08T09:06:50Z</time>
 </trkpt>
 <trkpt lat="47.235390" lon="13.241949">
 <ele>1149.22</ele>
 <time>2010-08-08T09:06:55Z</time>
 </trkpt>
 <trkpt lat="47.235409" lon="13.241509">
 <ele>1146.03</ele>
 <time>2010-08-08T09:06:59Z</time>
 </trkpt>
 <trkpt lat="47.235443" lon="13.240799">
 <ele>1139.88</ele>
 <time>2010-08-08T09:07:04Z</time>
 </trkpt>
 <trkpt lat="47.235485" lon="13.239809">
 <ele>1134.49</ele>
 <time>2010-08-08T09:07:11Z</time>
 </trkpt>
 <trkpt lat="47.235516" lon="13.239040">
 <ele>1131.07</ele>
 <time>2010-08-08T09:07:17Z</time>
 </trkpt>
 <trkpt lat="47.235546" lon="13.238246">
 <ele>1128.30</ele>
 <time>2010-08-08T09:07:24Z</time>
 </trkpt>
 <trkpt lat="47.235630" lon="13.237359">
 <ele>1124.08</ele>
 <time>2010-08-08T09:07:31Z</time>
 </trkpt>
 <trkpt lat="47.235737" lon="13.236839">
 <ele>1122.31</ele>
 <time>2010-08-08T09:07:36Z</time>
 </trkpt>
 <trkpt lat="47.236004" lon="13.236217">
 <ele>1117.93</ele>
 <time>2010-08-08T09:07:42Z</time>
 </trkpt>
 <trkpt lat="47.236153" lon="13.235874">
 <ele>1116.05</ele>
 <time>2010-08-08T09:07:45Z</time>
 </trkpt>
 <trkpt lat="47.236324" lon="13.235261">
 <ele>1113.11</ele>
 <time>2010-08-08T09:07:50Z</time>
 </trkpt>
 <trkpt lat="47.236401" lon="13.234782">
 <ele>1110.44</ele>
 <time>2010-08-08T09:07:54Z</time>
 </trkpt>
 <trkpt lat="47.236340" lon="13.234355">
 <ele>1108.94</ele>
 <time>2010-08-08T09:07:58Z</time>
 </trkpt>
 <trkpt lat="47.236317" lon="13.234258">
 <ele>1108.72</ele>
 <time>2010-08-08T09:07:59Z</time>
 </trkpt>
 <trkpt lat="47.236320" lon="13.233858">
 <ele>1107.67</ele>
 <time>2010-08-08T09:08:03Z</time>
 </trkpt>
 <trkpt lat="47.236378" lon="13.233652">
 <ele>1106.58</ele>
 <time>2010-08-08T09:08:05Z</time>
 </trkpt>
 <trkpt lat="47.236687" lon="13.232672">
 <ele>1102.40</ele>
 <time>2010-08-08T09:08:14Z</time>
 </trkpt>
 <trkpt lat="47.236759" lon="13.232498">
 <ele>1102.39</ele>
 <time>2010-08-08T09:08:16Z</time>
 </trkpt>
 <trkpt lat="47.236832" lon="13.232221">
 <ele>1105.86</ele>
 <time>2010-08-08T09:08:21Z</time>
 </trkpt>
 <trkpt lat="47.236847" lon="13.232100">
 <ele>1107.15</ele>
 <time>2010-08-08T09:08:24Z</time>
 </trkpt>
 <trkpt lat="47.236877" lon="13.231821">
 <ele>1108.71</ele>
 <time>2010-08-08T09:08:31Z</time>
 </trkpt>
 <trkpt lat="47.236919" lon="13.231591">
 <ele>1109.72</ele>
 <time>2010-08-08T09:08:37Z</time>
 </trkpt>
 <trkpt lat="47.236950" lon="13.231365">
 <ele>1111.53</ele>
 <time>2010-08-08T09:08:43Z</time>
 </trkpt>
 <trkpt lat="47.236946" lon="13.231091">
 <ele>1112.76</ele>
 <time>2010-08-08T09:08:50Z</time>
 </trkpt>
 <trkpt lat="47.236904" lon="13.230819">
 <ele>1113.99</ele>
 <time>2010-08-08T09:08:57Z</time>
 </trkpt>
 <trkpt lat="47.236843" lon="13.230560">
 <ele>1115.43</ele>
 <time>2010-08-08T09:09:04Z</time>
 </trkpt>
 <trkpt lat="47.236782" lon="13.230265">
 <ele>1116.80</ele>
 <time>2010-08-08T09:09:12Z</time>
 </trkpt>
 <trkpt lat="47.236736" lon="13.229935">
 <ele>1116.78</ele>
 <time>2010-08-08T09:09:20Z</time>
 </trkpt>
 <trkpt lat="47.236740" lon="13.229707">
 <ele>1116.18</ele>
 <time>2010-08-08T09:09:24Z</time>
 </trkpt>
 <trkpt lat="47.236809" lon="13.229164">
 <ele>1114.23</ele>
 <time>2010-08-08T09:09:31Z</time>
 </trkpt>
 <trkpt lat="47.236897" lon="13.228466">
 <ele>1109.88</ele>
 <time>2010-08-08T09:09:38Z</time>
 </trkpt>
 <trkpt lat="47.236992" lon="13.227779">
 <ele>1104.62</ele>
 <time>2010-08-08T09:09:44Z</time>
 </trkpt>
 <trkpt lat="47.237110" lon="13.226975">
 <ele>1099.17</ele>
 <time>2010-08-08T09:09:50Z</time>
 </trkpt>
 <trkpt lat="47.237244" lon="13.226219">
 <ele>1093.61</ele>
 <time>2010-08-08T09:09:56Z</time>
 </trkpt>
 <trkpt lat="47.237370" lon="13.225515">
 <ele>1088.03</ele>
 <time>2010-08-08T09:10:01Z</time>
 </trkpt>
 <trkpt lat="47.237514" lon="13.224665">
 <ele>1081.65</ele>
 <time>2010-08-08T09:10:07Z</time>
 </trkpt>
 <trkpt lat="47.237522" lon="13.224186">
 <ele>1079.36</ele>
 <time>2010-08-08T09:10:11Z</time>
 </trkpt>
 <trkpt lat="47.237495" lon="13.223862">
 <ele>1077.28</ele>
 <time>2010-08-08T09:10:14Z</time>
 </trkpt>
 <trkpt lat="47.237507" lon="13.223658">
 <ele>1076.53</ele>
 <time>2010-08-08T09:10:16Z</time>
 </trkpt>
 <trkpt lat="47.237545" lon="13.223379">
 <ele>1074.59</ele>
 <time>2010-08-08T09:10:19Z</time>
 </trkpt>
 <trkpt lat="47.237507" lon="13.223029">
 <ele>1072.25</ele>
 <time>2010-08-08T09:10:23Z</time>
 </trkpt>
 <trkpt lat="47.237469" lon="13.222944">
 <ele>1071.50</ele>
 <time>2010-08-08T09:10:24Z</time>
 </trkpt>
 <trkpt lat="47.237286" lon="13.222586">
 <ele>1067.75</ele>
 <time>2010-08-08T09:10:28Z</time>
 </trkpt>
 <trkpt lat="47.237221" lon="13.222191">
 <ele>1064.42</ele>
 <time>2010-08-08T09:10:32Z</time>
 </trkpt>
 <trkpt lat="47.237228" lon="13.222082">
 <ele>1063.64</ele>
 <time>2010-08-08T09:10:33Z</time>
 </trkpt>
 <trkpt lat="47.237247" lon="13.221860">
 <ele>1062.12</ele>
 <time>2010-08-08T09:10:35Z</time>
 </trkpt>
 <trkpt lat="47.237221" lon="13.221196">
 <ele>1057.75</ele>
 <time>2010-08-08T09:10:41Z</time>
 </trkpt>
 <trkpt lat="47.237274" lon="13.220563">
 <ele>1052.32</ele>
 <time>2010-08-08T09:10:46Z</time>
 </trkpt>
 <trkpt lat="47.237343" lon="13.220076">
 <ele>1048.56</ele>
 <time>2010-08-08T09:10:50Z</time>
 </trkpt>
 <trkpt lat="47.237282" lon="13.219590">
 <ele>1045.39</ele>
 <time>2010-08-08T09:10:54Z</time>
 </trkpt>
 <trkpt lat="47.237198" lon="13.219341">
 <ele>1043.28</ele>
 <time>2010-08-08T09:10:56Z</time>
 </trkpt>
 <trkpt lat="47.236992" lon="13.218719">
 <ele>1038.24</ele>
 <time>2010-08-08T09:11:01Z</time>
 </trkpt>
 <trkpt lat="47.236897" lon="13.217954">
 <ele>1033.25</ele>
 <time>2010-08-08T09:11:06Z</time>
 </trkpt>
 <trkpt lat="47.236855" lon="13.217478">
 <ele>1029.90</ele>
 <time>2010-08-08T09:11:10Z</time>
 </trkpt>
 <trkpt lat="47.236839" lon="13.217377">
 <ele>1029.38</ele>
 <time>2010-08-08T09:11:11Z</time>
 </trkpt>
 <trkpt lat="47.236893" lon="13.217110">
 <ele>1027.44</ele>
 <time>2010-08-08T09:11:15Z</time>
 </trkpt>
 <trkpt lat="47.237022" lon="13.217155">
 <ele>1026.23</ele>
 <time>2010-08-08T09:11:18Z</time>
 </trkpt>
 <trkpt lat="47.237087" lon="13.217298">
 <ele>1025.49</ele>
 <time>2010-08-08T09:11:20Z</time>
 </trkpt>
 <trkpt lat="47.237282" lon="13.217939">
 <ele>1020.00</ele>
 <time>2010-08-08T09:11:26Z</time>
 </trkpt>
 <trkpt lat="47.237457" lon="13.218561">
 <ele>1016.31</ele>
 <time>2010-08-08T09:11:31Z</time>
 </trkpt>
 <trkpt lat="47.237484" lon="13.218661">
 <ele>1015.71</ele>
 <time>2010-08-08T09:11:32Z</time>
 </trkpt>
 <trkpt lat="47.237617" lon="13.218860">
 <ele>1014.16</ele>
 <time>2010-08-08T09:11:36Z</time>
 </trkpt>
 <trkpt lat="47.237709" lon="13.218732">
 <ele>1013.53</ele>
 <time>2010-08-08T09:11:39Z</time>
 </trkpt>
 <trkpt lat="47.237713" lon="13.218570">
 <ele>1012.88</ele>
 <time>2010-08-08T09:11:41Z</time>
 </trkpt>
 <trkpt lat="47.237675" lon="13.217809">
 <ele>1007.16</ele>
 <time>2010-08-08T09:11:48Z</time>
 </trkpt>
 <trkpt lat="47.237534" lon="13.217213">
 <ele>1002.17</ele>
 <time>2010-08-08T09:11:53Z</time>
 </trkpt>
 <trkpt lat="47.237408" lon="13.216865">
 <ele>999.57</ele>
 <time>2010-08-08T09:11:56Z</time>
 </trkpt>
 <trkpt lat="47.237183" lon="13.216306">
 <ele>993.94</ele>
 <time>2010-08-08T09:12:01Z</time>
 </trkpt>
 <trkpt lat="47.237114" lon="13.216109">
 <ele>992.30</ele>
 <time>2010-08-08T09:12:03Z</time>
 </trkpt>
 <trkpt lat="47.237045" lon="13.215609">
 <ele>989.31</ele>
 <time>2010-08-08T09:12:08Z</time>
 </trkpt>
 <trkpt lat="47.237022" lon="13.215290">
 <ele>986.87</ele>
 <time>2010-08-08T09:12:11Z</time>
 </trkpt>
 <trkpt lat="47.237148" lon="13.214923">
 <ele>983.04</ele>
 <time>2010-08-08T09:12:15Z</time>
 </trkpt>
 <trkpt lat="47.237209" lon="13.214837">
 <ele>982.05</ele>
 <time>2010-08-08T09:12:16Z</time>
 </trkpt>
 <trkpt lat="47.237526" lon="13.214419">
 <ele>978.27</ele>
 <time>2010-08-08T09:12:21Z</time>
 </trkpt>
 <trkpt lat="47.237656" lon="13.214036">
 <ele>975.01</ele>
 <time>2010-08-08T09:12:25Z</time>
 </trkpt>
 <trkpt lat="47.237789" lon="13.213270">
 <ele>969.03</ele>
 <time>2010-08-08T09:12:31Z</time>
 </trkpt>
 <trkpt lat="47.237827" lon="13.213064">
 <ele>967.21</ele>
 <time>2010-08-08T09:12:33Z</time>
 </trkpt>
 <trkpt lat="47.237782" lon="13.212677">
 <ele>964.20</ele>
 <time>2010-08-08T09:12:37Z</time>
 </trkpt>
 <trkpt lat="47.237743" lon="13.212585">
 <ele>963.35</ele>
 <time>2010-08-08T09:12:38Z</time>
 </trkpt>
 <trkpt lat="47.237667" lon="13.212410">
 <ele>961.70</ele>
 <time>2010-08-08T09:12:40Z</time>
 </trkpt>
 <trkpt lat="47.237610" lon="13.211929">
 <ele>957.93</ele>
 <time>2010-08-08T09:12:45Z</time>
 </trkpt>
 <trkpt lat="47.237694" lon="13.211630">
 <ele>956.51</ele>
 <time>2010-08-08T09:12:48Z</time>
 </trkpt>
 <trkpt lat="47.237900" lon="13.211031">
 <ele>952.11</ele>
 <time>2010-08-08T09:12:54Z</time>
 </trkpt>
 <trkpt lat="47.237946" lon="13.210479">
 <ele>949.15</ele>
 <time>2010-08-08T09:12:59Z</time>
 </trkpt>
 <trkpt lat="47.237926" lon="13.210361">
 <ele>948.07</ele>
 <time>2010-08-08T09:13:00Z</time>
 </trkpt>
 <trkpt lat="47.237869" lon="13.210048">
 <ele>945.53</ele>
 <time>2010-08-08T09:13:03Z</time>
 </trkpt>
 <trkpt lat="47.237843" lon="13.209650">
 <ele>942.76</ele>
 <time>2010-08-08T09:13:07Z</time>
 </trkpt>
 <trkpt lat="47.237881" lon="13.209203">
 <ele>939.50</ele>
 <time>2010-08-08T09:13:11Z</time>
 </trkpt>
 <trkpt lat="47.237915" lon="13.208972">
 <ele>937.44</ele>
 <time>2010-08-08T09:13:13Z</time>
 </trkpt>
 <trkpt lat="47.237904" lon="13.208377">
 <ele>934.41</ele>
 <time>2010-08-08T09:13:18Z</time>
 </trkpt>
 <trkpt lat="47.237926" lon="13.207600">
 <ele>932.56</ele>
 <time>2010-08-08T09:13:25Z</time>
 </trkpt>
 <trkpt lat="47.237919" lon="13.207395">
 <ele>931.77</ele>
 <time>2010-08-08T09:13:27Z</time>
 </trkpt>
 <trkpt lat="47.237789" lon="13.206950">
 <ele>929.06</ele>
 <time>2010-08-08T09:13:32Z</time>
 </trkpt>
 <trkpt lat="47.237759" lon="13.206837">
 <ele>928.78</ele>
 <time>2010-08-08T09:13:33Z</time>
 </trkpt>
 <trkpt lat="47.237648" lon="13.206323">
 <ele>927.09</ele>
 <time>2010-08-08T09:13:38Z</time>
 </trkpt>
 <trkpt lat="47.237617" lon="13.206171">
 <ele>926.35</ele>
 <time>2010-08-08T09:13:40Z</time>
 </trkpt>
 <trkpt lat="47.237404" lon="13.205739">
 <ele>923.03</ele>
 <time>2010-08-08T09:13:45Z</time>
 </trkpt>
 <trkpt lat="47.237221" lon="13.205442">
 <ele>919.82</ele>
 <time>2010-08-08T09:13:49Z</time>
 </trkpt>
 <trkpt lat="47.237106" lon="13.205202">
 <ele>918.70</ele>
 <time>2010-08-08T09:13:52Z</time>
 </trkpt>
 <trkpt lat="47.236977" lon="13.204677">
 <ele>916.96</ele>
 <time>2010-08-08T09:13:58Z</time>
 </trkpt>
 <trkpt lat="47.236965" lon="13.204518">
 <ele>916.65</ele>
 <time>2010-08-08T09:14:00Z</time>
 </trkpt>
 <trkpt lat="47.236988" lon="13.204205">
 <ele>916.55</ele>
 <time>2010-08-08T09:14:05Z</time>
 </trkpt>
 <trkpt lat="47.237045" lon="13.203854">
 <ele>915.49</ele>
 <time>2010-08-08T09:14:10Z</time>
 </trkpt>
 <trkpt lat="47.237228" lon="13.203312">
 <ele>913.64</ele>
 <time>2010-08-08T09:14:17Z</time>
 </trkpt>
 <trkpt lat="47.237278" lon="13.203142">
 <ele>913.19</ele>
 <time>2010-08-08T09:14:21Z</time>
 </trkpt>
 <trkpt lat="47.237309" lon="13.202886">
 <ele>913.03</ele>
 <time>2010-08-08T09:14:28Z</time>
 </trkpt>
 <trkpt lat="47.237316" lon="13.202537">
 <ele>912.30</ele>
 <time>2010-08-08T09:14:35Z</time>
 </trkpt>
 <trkpt lat="47.237370" lon="13.201425">
 <ele>912.04</ele>
 <time>2010-08-08T09:14:36Z</time>
 </trkpt>
 <trkpt lat="47.237370" lon="13.201425">
 <ele>910.69</ele>
 <time>2010-08-08T09:14:45Z</time>
 </trkpt>
 <trkpt lat="47.237370" lon="13.201425">
 <ele>908.91</ele>
 <time>2010-08-08T09:14:50Z</time>
 </trkpt>
 <trkpt lat="47.237370" lon="13.201410">
 <ele>907.78</ele>
 <time>2010-08-08T09:14:56Z</time>
 </trkpt>
 <trkpt lat="47.237316" lon="13.201377">
 <ele>907.45</ele>
 <time>2010-08-08T09:15:01Z</time>
 </trkpt>
 <trkpt lat="47.237526" lon="13.201385">
 <ele>907.13</ele>
 <time>2010-08-08T09:15:07Z</time>
 </trkpt>
 <trkpt lat="47.237679" lon="13.201306">
 <ele>906.77</ele>
 <time>2010-08-08T09:15:11Z</time>
 </trkpt>
 <trkpt lat="47.237877" lon="13.201039">
 <ele>905.76</ele>
 <time>2010-08-08T09:15:17Z</time>
 </trkpt>
 <trkpt lat="47.237942" lon="13.200933">
 <ele>905.33</ele>
 <time>2010-08-08T09:15:19Z</time>
 </trkpt>
 <trkpt lat="47.238117" lon="13.200772">
 <ele>904.36</ele>
 <time>2010-08-08T09:15:24Z</time>
 </trkpt>
 <trkpt lat="47.238377" lon="13.200662">
 <ele>903.88</ele>
 <time>2010-08-08T09:15:29Z</time>
 </trkpt>
 <trkpt lat="47.238689" lon="13.200576">
 <ele>903.26</ele>
 <time>2010-08-08T09:15:35Z</time>
 </trkpt>
 <trkpt lat="47.238739" lon="13.200563">
 <ele>902.96</ele>
 <time>2010-08-08T09:15:36Z</time>
 </trkpt>
 <trkpt lat="47.239006" lon="13.200506">
 <ele>902.46</ele>
 <time>2010-08-08T09:15:40Z</time>
 </trkpt>
 <trkpt lat="47.239418" lon="13.200416">
 <ele>901.97</ele>
 <time>2010-08-08T09:15:48Z</time>
 </trkpt>
 <trkpt lat="47.239628" lon="13.200342">
 <ele>900.80</ele>
 <time>2010-08-08T09:15:52Z</time>
 </trkpt>
 <trkpt lat="47.239876" lon="13.200225">
 <ele>899.48</ele>
 <time>2010-08-08T09:15:56Z</time>
 </trkpt>
 <trkpt lat="47.240414" lon="13.200095">
 <ele>895.56</ele>
 <time>2010-08-08T09:16:03Z</time>
 </trkpt>
 <trkpt lat="47.240829" lon="13.200051">
 <ele>893.67</ele>
 <time>2010-08-08T09:16:08Z</time>
 </trkpt>
 <trkpt lat="47.241215" lon="13.199923">
 <ele>892.17</ele>
 <time>2010-08-08T09:16:13Z</time>
 </trkpt>
 <trkpt lat="47.241627" lon="13.199909">
 <ele>890.91</ele>
 <time>2010-08-08T09:16:19Z</time>
 </trkpt>
 <trkpt lat="47.241749" lon="13.199905">
 <ele>890.54</ele>
 <time>2010-08-08T09:16:21Z</time>
 </trkpt>
 <trkpt lat="47.242184" lon="13.199885">
 <ele>888.74</ele>
 <time>2010-08-08T09:16:28Z</time>
 </trkpt>
 <trkpt lat="47.242531" lon="13.199869">
 <ele>888.01</ele>
 <time>2010-08-08T09:16:34Z</time>
 </trkpt>
 <trkpt lat="47.242695" lon="13.199862">
 <ele>887.57</ele>
 <time>2010-08-08T09:16:37Z</time>
 </trkpt>
 <trkpt lat="47.243244" lon="13.199833">
 <ele>887.26</ele>
 <time>2010-08-08T09:16:46Z</time>
 </trkpt>
 <trkpt lat="47.243580" lon="13.199822">
 <ele>886.58</ele>
 <time>2010-08-08T09:16:51Z</time>
 </trkpt>
 <trkpt lat="47.244038" lon="13.199918">
 <ele>886.70</ele>
 <time>2010-08-08T09:16:58Z</time>
 </trkpt>
 <trkpt lat="47.244652" lon="13.199997">
 <ele>886.94</ele>
 <time>2010-08-08T09:17:08Z</time>
 </trkpt>
 <trkpt lat="47.245014" lon="13.200009">
 <ele>887.01</ele>
 <time>2010-08-08T09:17:14Z</time>
 </trkpt>
 <trkpt lat="47.245506" lon="13.200027">
 <ele>886.68</ele>
 <time>2010-08-08T09:17:22Z</time>
 </trkpt>
 <trkpt lat="47.245941" lon="13.199981">
 <ele>886.11</ele>
 <time>2010-08-08T09:17:29Z</time>
 </trkpt>
 <trkpt lat="47.246471" lon="13.199782">
 <ele>886.15</ele>
 <time>2010-08-08T09:17:38Z</time>
 </trkpt>
 <trkpt lat="47.246628" lon="13.199652">
 <ele>886.74</ele>
 <time>2010-08-08T09:17:42Z</time>
 </trkpt>
 <trkpt lat="47.246742" lon="13.199458">
 <ele>887.40</ele>
 <time>2010-08-08T09:17:46Z</time>
 </trkpt>
 <trkpt lat="47.246868" lon="13.199349">
 <ele>887.11</ele>
 <time>2010-08-08T09:17:50Z</time>
 </trkpt>
 <trkpt lat="47.246899" lon="13.199322">
 <ele>887.02</ele>
 <time>2010-08-08T09:17:52Z</time>
 </trkpt>
 <trkpt lat="47.247372" lon="13.199469">
 <ele>886.28</ele>
 <time>2010-08-08T09:18:00Z</time>
 </trkpt>
 <trkpt lat="47.247723" lon="13.199709">
 <ele>884.79</ele>
 <time>2010-08-08T09:18:06Z</time>
 </trkpt>
 <trkpt lat="47.247978" lon="13.199846">
 <ele>883.98</ele>
 <time>2010-08-08T09:18:10Z</time>
 </trkpt>
 <trkpt lat="47.248360" lon="13.199880">
 <ele>884.10</ele>
 <time>2010-08-08T09:18:16Z</time>
 </trkpt>
 <trkpt lat="47.248543" lon="13.199788">
 <ele>884.18</ele>
 <time>2010-08-08T09:18:19Z</time>
 </trkpt>
 <trkpt lat="47.249092" lon="13.199420">
 <ele>883.20</ele>
 <time>2010-08-08T09:18:28Z</time>
 </trkpt>
 <trkpt lat="47.249603" lon="13.199164">
 <ele>881.71</ele>
 <time>2010-08-08T09:18:36Z</time>
 </trkpt>
 <trkpt lat="47.250076" lon="13.199078">
 <ele>881.18</ele>
 <time>2010-08-08T09:18:43Z</time>
 </trkpt>
 <trkpt lat="47.250477" lon="13.198945">
 <ele>880.71</ele>
 <time>2010-08-08T09:18:49Z</time>
 </trkpt>
 <trkpt lat="47.250854" lon="13.198689">
 <ele>879.84</ele>
 <time>2010-08-08T09:18:55Z</time>
 </trkpt>
 <trkpt lat="47.251328" lon="13.198256">
 <ele>878.63</ele>
 <time>2010-08-08T09:19:03Z</time>
 </trkpt>
 <trkpt lat="47.251785" lon="13.197886">
 <ele>878.13</ele>
 <time>2010-08-08T09:19:11Z</time>
 </trkpt>
 <trkpt lat="47.252163" lon="13.197650">
 <ele>878.74</ele>
 <time>2010-08-08T09:19:18Z</time>
 </trkpt>
 <trkpt lat="47.252567" lon="13.197575">
 <ele>878.06</ele>
 <time>2010-08-08T09:19:25Z</time>
 </trkpt>
 <trkpt lat="47.252747" lon="13.197574">
 <ele>877.75</ele>
 <time>2010-08-08T09:19:28Z</time>
 </trkpt>
 <trkpt lat="47.253178" lon="13.197715">
 <ele>877.04</ele>
 <time>2010-08-08T09:19:35Z</time>
 </trkpt>
 <trkpt lat="47.253731" lon="13.198069">
 <ele>877.09</ele>
 <time>2010-08-08T09:19:45Z</time>
 </trkpt>
 <trkpt lat="47.253891" lon="13.198167">
 <ele>876.88</ele>
 <time>2010-08-08T09:19:48Z</time>
 </trkpt>
 <trkpt lat="47.254101" lon="13.198262">
 <ele>876.88</ele>
 <time>2010-08-08T09:19:52Z</time>
 </trkpt>
 <trkpt lat="47.254322" lon="13.198207">
 <ele>876.59</ele>
 <time>2010-08-08T09:19:56Z</time>
 </trkpt>
 <trkpt lat="47.254475" lon="13.198025">
 <ele>877.01</ele>
 <time>2010-08-08T09:20:00Z</time>
 </trkpt>
 <trkpt lat="47.254848" lon="13.197579">
 <ele>877.22</ele>
 <time>2010-08-08T09:20:09Z</time>
 </trkpt>
 <trkpt lat="47.254879" lon="13.197541">
 <ele>877.08</ele>
 <time>2010-08-08T09:20:10Z</time>
 </trkpt>
 <trkpt lat="47.255169" lon="13.197346">
 <ele>876.43</ele>
 <time>2010-08-08T09:20:15Z</time>
 </trkpt>
 <trkpt lat="47.255287" lon="13.197337">
 <ele>876.16</ele>
 <time>2010-08-08T09:20:17Z</time>
 </trkpt>
 <trkpt lat="47.255779" lon="13.197465">
 <ele>875.02</ele>
 <time>2010-08-08T09:20:25Z</time>
 </trkpt>
 <trkpt lat="47.256672" lon="13.197775">
 <ele>873.11</ele>
 <time>2010-08-08T09:20:39Z</time>
 </trkpt>
 <trkpt lat="47.257496" lon="13.198066">
 <ele>872.89</ele>
 <time>2010-08-08T09:20:53Z</time>
 </trkpt>
 <trkpt lat="47.258141" lon="13.198362">
 <ele>871.84</ele>
 <time>2010-08-08T09:21:04Z</time>
 </trkpt>
 <trkpt lat="47.258770" lon="13.198616">
 <ele>871.43</ele>
 <time>2010-08-08T09:21:15Z</time>
 </trkpt>
 <trkpt lat="47.258984" lon="13.198584">
 <ele>871.53</ele>
 <time>2010-08-08T09:21:19Z</time>
 </trkpt>
 <trkpt lat="47.259602" lon="13.198349">
 <ele>871.19</ele>
 <time>2010-08-08T09:21:30Z</time>
 </trkpt>
 <trkpt lat="47.259827" lon="13.198314">
 <ele>871.12</ele>
 <time>2010-08-08T09:21:34Z</time>
 </trkpt>
 <trkpt lat="47.260086" lon="13.198414">
 <ele>870.90</ele>
 <time>2010-08-08T09:21:39Z</time>
 </trkpt>
 <trkpt lat="47.260189" lon="13.198487">
 <ele>871.10</ele>
 <time>2010-08-08T09:21:41Z</time>
 </trkpt>
 <trkpt lat="47.260372" lon="13.198647">
 <ele>871.15</ele>
 <time>2010-08-08T09:21:45Z</time>
 </trkpt>
 <trkpt lat="47.260723" lon="13.198868">
 <ele>870.28</ele>
 <time>2010-08-08T09:21:52Z</time>
 </trkpt>
 <trkpt lat="47.261101" lon="13.198986">
 <ele>868.03</ele>
 <time>2010-08-08T09:21:58Z</time>
 </trkpt>
 <trkpt lat="47.261578" lon="13.199098">
 <ele>864.13</ele>
 <time>2010-08-08T09:22:04Z</time>
 </trkpt>
 <trkpt lat="47.262093" lon="13.199236">
 <ele>861.49</ele>
 <time>2010-08-08T09:22:10Z</time>
 </trkpt>
 <trkpt lat="47.262619" lon="13.199379">
 <ele>861.13</ele>
 <time>2010-08-08T09:22:17Z</time>
 </trkpt>
 <trkpt lat="47.263161" lon="13.199634">
 <ele>860.41</ele>
 <time>2010-08-08T09:22:25Z</time>
 </trkpt>
 <trkpt lat="47.263645" lon="13.200005">
 <ele>859.24</ele>
 <time>2010-08-08T09:22:33Z</time>
 </trkpt>
 <trkpt lat="47.264050" lon="13.200483">
 <ele>859.01</ele>
 <time>2010-08-08T09:22:41Z</time>
 </trkpt>
 <trkpt lat="47.264397" lon="13.201044">
 <ele>858.35</ele>
 <time>2010-08-08T09:22:49Z</time>
 </trkpt>
 <trkpt lat="47.264771" lon="13.201752">
 <ele>858.27</ele>
 <time>2010-08-08T09:22:59Z</time>
 </trkpt>
 <trkpt lat="47.265198" lon="13.202422">
 <ele>857.99</ele>
 <time>2010-08-08T09:23:10Z</time>
 </trkpt>
 <trkpt lat="47.265766" lon="13.203236">
 <ele>859.01</ele>
 <time>2010-08-08T09:23:25Z</time>
 </trkpt>
 <trkpt lat="47.266125" lon="13.203649">
 <ele>859.54</ele>
 <time>2010-08-08T09:23:34Z</time>
 </trkpt>
 <trkpt lat="47.266434" lon="13.203837">
 <ele>859.32</ele>
 <time>2010-08-08T09:23:41Z</time>
 </trkpt>
 <trkpt lat="47.266804" lon="13.203967">
 <ele>860.02</ele>
 <time>2010-08-08T09:23:49Z</time>
 </trkpt>
 <trkpt lat="47.267303" lon="13.204116">
 <ele>859.11</ele>
 <time>2010-08-08T09:23:58Z</time>
 </trkpt>
 <trkpt lat="47.267708" lon="13.204246">
 <ele>857.07</ele>
 <time>2010-08-08T09:24:04Z</time>
 </trkpt>
 <trkpt lat="47.268124" lon="13.204483">
 <ele>855.09</ele>
 <time>2010-08-08T09:24:10Z</time>
 </trkpt>
 <trkpt lat="47.268482" lon="13.204854">
 <ele>853.46</ele>
 <time>2010-08-08T09:24:16Z</time>
 </trkpt>
 <trkpt lat="47.268749" lon="13.205354">
 <ele>852.57</ele>
 <time>2010-08-08T09:24:22Z</time>
 </trkpt>
 <trkpt lat="47.269032" lon="13.206271">
 <ele>851.53</ele>
 <time>2010-08-08T09:24:32Z</time>
 </trkpt>
 <trkpt lat="47.269279" lon="13.206789">
 <ele>851.48</ele>
 <time>2010-08-08T09:24:39Z</time>
 </trkpt>
 <trkpt lat="47.269711" lon="13.207544">
 <ele>851.43</ele>
 <time>2010-08-08T09:24:50Z</time>
 </trkpt>
 <trkpt lat="47.269917" lon="13.208001">
 <ele>850.75</ele>
 <time>2010-08-08T09:24:56Z</time>
 </trkpt>
 <trkpt lat="47.270103" lon="13.208680">
 <ele>849.78</ele>
 <time>2010-08-08T09:25:04Z</time>
 </trkpt>
 <trkpt lat="47.270264" lon="13.209168">
 <ele>849.61</ele>
 <time>2010-08-08T09:25:10Z</time>
 </trkpt>
 <trkpt lat="47.270515" lon="13.209562">
 <ele>849.17</ele>
 <time>2010-08-08T09:25:16Z</time>
 </trkpt>
 <trkpt lat="47.270710" lon="13.209747">
 <ele>849.41</ele>
 <time>2010-08-08T09:25:20Z</time>
 </trkpt>
 <trkpt lat="47.271255" lon="13.210000">
 <ele>848.36</ele>
 <time>2010-08-08T09:25:29Z</time>
 </trkpt>
 <trkpt lat="47.271786" lon="13.210304">
 <ele>847.23</ele>
 <time>2010-08-08T09:25:38Z</time>
 </trkpt>
 <trkpt lat="47.271973" lon="13.210449">
 <ele>845.83</ele>
 <time>2010-08-08T09:25:41Z</time>
 </trkpt>
 <trkpt lat="47.272232" lon="13.210774">
 <ele>845.23</ele>
 <time>2010-08-08T09:25:46Z</time>
 </trkpt>
 <trkpt lat="47.272579" lon="13.211259">
 <ele>843.45</ele>
 <time>2010-08-08T09:25:53Z</time>
 </trkpt>
 <trkpt lat="47.272934" lon="13.211644">
 <ele>842.06</ele>
 <time>2010-08-08T09:25:59Z</time>
 </trkpt>
 <trkpt lat="47.273506" lon="13.212015">
 <ele>841.48</ele>
 <time>2010-08-08T09:26:08Z</time>
 </trkpt>
 <trkpt lat="47.274151" lon="13.212428">
 <ele>840.85</ele>
 <time>2010-08-08T09:26:19Z</time>
 </trkpt>
 <trkpt lat="47.274693" lon="13.212761">
 <ele>839.97</ele>
 <time>2010-08-08T09:26:28Z</time>
 </trkpt>
 <trkpt lat="47.275227" lon="13.213102">
 <ele>839.28</ele>
 <time>2010-08-08T09:26:37Z</time>
 </trkpt>
 <trkpt lat="47.275845" lon="13.213518">
 <ele>838.57</ele>
 <time>2010-08-08T09:26:48Z</time>
 </trkpt>
 <trkpt lat="47.276608" lon="13.213933">
 <ele>837.89</ele>
 <time>2010-08-08T09:27:01Z</time>
 </trkpt>
 <trkpt lat="47.277245" lon="13.214243">
 <ele>837.98</ele>
 <time>2010-08-08T09:27:12Z</time>
 </trkpt>
 <trkpt lat="47.277760" lon="13.214458">
 <ele>837.94</ele>
 <time>2010-08-08T09:27:21Z</time>
 </trkpt>
 <trkpt lat="47.277870" lon="13.214489">
 <ele>837.75</ele>
 <time>2010-08-08T09:27:23Z</time>
 </trkpt>
 <trkpt lat="47.278034" lon="13.214643">
 <ele>838.27</ele>
 <time>2010-08-08T09:27:28Z</time>
 </trkpt>
 <trkpt lat="47.278034" lon="13.214643">
 <ele>838.37</ele>
 <time>2010-08-08T09:27:29Z</time>
 </trkpt>
 <trkpt lat="47.278160" lon="13.215029">
 <ele>839.84</ele>
 <time>2010-08-08T09:27:39Z</time>
 </trkpt>
 <trkpt lat="47.278507" lon="13.215669">
 <ele>841.31</ele>
 <time>2010-08-08T09:27:47Z</time>
 </trkpt>
 <trkpt lat="47.278706" lon="13.215992">
 <ele>842.41</ele>
 <time>2010-08-08T09:27:56Z</time>
 </trkpt>
 <trkpt lat="47.278881" lon="13.216311">
 <ele>843.10</ele>
 <time>2010-08-08T09:28:05Z</time>
 </trkpt>
 <trkpt lat="47.279041" lon="13.216625">
 <ele>844.65</ele>
 <time>2010-08-08T09:28:14Z</time>
 </trkpt>
 <trkpt lat="47.279175" lon="13.216944">
 <ele>845.76</ele>
 <time>2010-08-08T09:28:23Z</time>
 </trkpt>
 <trkpt lat="47.279266" lon="13.217204">
 <ele>847.29</ele>
 <time>2010-08-08T09:28:31Z</time>
 </trkpt>
 <trkpt lat="47.279354" lon="13.217475">
 <ele>848.03</ele>
 <time>2010-08-08T09:28:39Z</time>
 </trkpt>
 <trkpt lat="47.279461" lon="13.217794">
 <ele>849.93</ele>
 <time>2010-08-08T09:28:49Z</time>
 </trkpt>
 <trkpt lat="47.279537" lon="13.218033">
 <ele>850.82</ele>
 <time>2010-08-08T09:28:57Z</time>
 </trkpt>
 <trkpt lat="47.279625" lon="13.218309">
 <ele>852.21</ele>
 <time>2010-08-08T09:29:07Z</time>
 </trkpt>
 <trkpt lat="47.279705" lon="13.218557">
 <ele>853.59</ele>
 <time>2010-08-08T09:29:16Z</time>
 </trkpt>
 <trkpt lat="47.279823" lon="13.218806">
 <ele>855.13</ele>
 <time>2010-08-08T09:29:26Z</time>
 </trkpt>
 <trkpt lat="47.279930" lon="13.218967">
 <ele>856.18</ele>
 <time>2010-08-08T09:29:33Z</time>
 </trkpt>
 <trkpt lat="47.280064" lon="13.219164">
 <ele>856.84</ele>
 <time>2010-08-08T09:29:41Z</time>
 </trkpt>
 <trkpt lat="47.280262" lon="13.219394">
 <ele>857.74</ele>
 <time>2010-08-08T09:29:51Z</time>
 </trkpt>
 <trkpt lat="47.280491" lon="13.219601">
 <ele>858.24</ele>
 <time>2010-08-08T09:30:01Z</time>
 </trkpt>
 <trkpt lat="47.280609" lon="13.219707">
 <ele>859.36</ele>
 <time>2010-08-08T09:30:08Z</time>
 </trkpt>
 <trkpt lat="47.280834" lon="13.219683">
 <ele>859.52</ele>
 <time>2010-08-08T09:30:15Z</time>
 </trkpt>
 <trkpt lat="47.281036" lon="13.219600">
 <ele>859.78</ele>
 <time>2010-08-08T09:30:22Z</time>
 </trkpt>
 <trkpt lat="47.281036" lon="13.219600">
 <ele>860.24</ele>
 <time>2010-08-08T09:30:28Z</time>
 </trkpt>
 <trkpt lat="47.281330" lon="13.219009">
 <ele>860.46</ele>
 <time>2010-08-08T09:30:37Z</time>
 </trkpt>
 <trkpt lat="47.281502" lon="13.218756">
 <ele>860.69</ele>
 <time>2010-08-08T09:30:43Z</time>
 </trkpt>
 <trkpt lat="47.281761" lon="13.218750">
 <ele>860.98</ele>
 <time>2010-08-08T09:30:49Z</time>
 </trkpt>
 <trkpt lat="47.282066" lon="13.218864">
 <ele>861.40</ele>
 <time>2010-08-08T09:30:58Z</time>
 </trkpt>
 <trkpt lat="47.282364" lon="13.219056">
 <ele>862.33</ele>
 <time>2010-08-08T09:31:07Z</time>
 </trkpt>
 <trkpt lat="47.282551" lon="13.219252">
 <ele>863.19</ele>
 <time>2010-08-08T09:31:14Z</time>
 </trkpt>
 <trkpt lat="47.282604" lon="13.219441">
 <ele>863.70</ele>
 <time>2010-08-08T09:31:19Z</time>
 </trkpt>
 <trkpt lat="47.282604" lon="13.219819">
 <ele>865.06</ele>
 <time>2010-08-08T09:31:27Z</time>
 </trkpt>
 <trkpt lat="47.282604" lon="13.220116">
 <ele>865.68</ele>
 <time>2010-08-08T09:31:34Z</time>
 </trkpt>
 <trkpt lat="47.282604" lon="13.220351">
 <ele>866.34</ele>
 <time>2010-08-08T09:31:40Z</time>
 </trkpt>
 <trkpt lat="47.282612" lon="13.220396">
 <ele>866.74</ele>
 <time>2010-08-08T09:31:43Z</time>
 </trkpt>
 <trkpt lat="47.282619" lon="13.220422">
 <ele>866.93</ele>
 <time>2010-08-08T09:33:04Z</time>
 </trkpt>
 <trkpt lat="47.282654" lon="13.220598">
 <ele>866.65</ele>
 <time>2010-08-08T09:33:09Z</time>
 </trkpt>
 <trkpt lat="47.282803" lon="13.220935">
 <ele>867.88</ele>
 <time>2010-08-08T09:33:18Z</time>
 </trkpt>
 <trkpt lat="47.282951" lon="13.221040">
 <ele>869.32</ele>
 <time>2010-08-08T09:33:24Z</time>
 </trkpt>
 <trkpt lat="47.283112" lon="13.221057">
 <ele>870.89</ele>
 <time>2010-08-08T09:33:30Z</time>
 </trkpt>
 <trkpt lat="47.283279" lon="13.220981">
 <ele>872.33</ele>
 <time>2010-08-08T09:33:36Z</time>
 </trkpt>
 <trkpt lat="47.283401" lon="13.220806">
 <ele>873.19</ele>
 <time>2010-08-08T09:33:42Z</time>
 </trkpt>
 <trkpt lat="47.283657" lon="13.220564">
 <ele>874.98</ele>
 <time>2010-08-08T09:33:52Z</time>
 </trkpt>
 <trkpt lat="47.283813" lon="13.220446">
 <ele>875.76</ele>
 <time>2010-08-08T09:33:58Z</time>
 </trkpt>
 <trkpt lat="47.284130" lon="13.220437">
 <ele>877.29</ele>
 <time>2010-08-08T09:34:08Z</time>
 </trkpt>
 <trkpt lat="47.284409" lon="13.220444">
 <ele>878.26</ele>
 <time>2010-08-08T09:34:17Z</time>
 </trkpt>
 <trkpt lat="47.284733" lon="13.220464">
 <ele>880.68</ele>
 <time>2010-08-08T09:34:28Z</time>
 </trkpt>
 <trkpt lat="47.284939" lon="13.220477">
 <ele>881.26</ele>
 <time>2010-08-08T09:34:35Z</time>
 </trkpt>
 <trkpt lat="47.285213" lon="13.220494">
 <ele>882.26</ele>
 <time>2010-08-08T09:34:44Z</time>
 </trkpt>
 <trkpt lat="47.285534" lon="13.220511">
 <ele>882.52</ele>
 <time>2010-08-08T09:34:53Z</time>
 </trkpt>
 <trkpt lat="47.285824" lon="13.220525">
 <ele>882.76</ele>
 <time>2010-08-08T09:35:00Z</time>
 </trkpt>
 <trkpt lat="47.286243" lon="13.220542">
 <ele>883.07</ele>
 <time>2010-08-08T09:35:09Z</time>
 </trkpt>
 <trkpt lat="47.286545" lon="13.220487">
 <ele>882.65</ele>
 <time>2010-08-08T09:35:14Z</time>
 </trkpt>
 <trkpt lat="47.286812" lon="13.220251">
 <ele>881.58</ele>
 <time>2010-08-08T09:35:19Z</time>
 </trkpt>
 <trkpt lat="47.286869" lon="13.220198">
 <ele>881.41</ele>
 <time>2010-08-08T09:35:20Z</time>
 </trkpt>
 <trkpt lat="47.287033" lon="13.219852">
 <ele>881.11</ele>
 <time>2010-08-08T09:35:24Z</time>
 </trkpt>
 <trkpt lat="47.287189" lon="13.219386">
 <ele>880.24</ele>
 <time>2010-08-08T09:35:29Z</time>
 </trkpt>
 <trkpt lat="47.287304" lon="13.218989">
 <ele>878.51</ele>
 <time>2010-08-08T09:35:33Z</time>
 </trkpt>
 <trkpt lat="47.287457" lon="13.218690">
 <ele>876.74</ele>
 <time>2010-08-08T09:35:36Z</time>
 </trkpt>
 <trkpt lat="47.287716" lon="13.218485">
 <ele>874.95</ele>
 <time>2010-08-08T09:35:40Z</time>
 </trkpt>
 <trkpt lat="47.287937" lon="13.218533">
 <ele>873.61</ele>
 <time>2010-08-08T09:35:43Z</time>
 </trkpt>
 <trkpt lat="47.288315" lon="13.218832">
 <ele>871.44</ele>
 <time>2010-08-08T09:35:48Z</time>
 </trkpt>
 <trkpt lat="47.288670" lon="13.218961">
 <ele>869.34</ele>
 <time>2010-08-08T09:35:52Z</time>
 </trkpt>
 <trkpt lat="47.288998" lon="13.218935">
 <ele>866.53</ele>
 <time>2010-08-08T09:35:56Z</time>
 </trkpt>
 <trkpt lat="47.289127" lon="13.218806">
 <ele>864.19</ele>
 <time>2010-08-08T09:35:59Z</time>
 </trkpt>
 <trkpt lat="47.289200" lon="13.218311">
 <ele>862.15</ele>
 <time>2010-08-08T09:36:02Z</time>
 </trkpt>
 <trkpt lat="47.289196" lon="13.217536">
 <ele>858.94</ele>
 <time>2010-08-08T09:36:07Z</time>
 </trkpt>
 <trkpt lat="47.289310" lon="13.216985">
 <ele>856.88</ele>
 <time>2010-08-08T09:36:11Z</time>
 </trkpt>
 <trkpt lat="47.289413" lon="13.216794">
 <ele>856.70</ele>
 <time>2010-08-08T09:36:13Z</time>
 </trkpt>
 <trkpt lat="47.290001" lon="13.215978">
 <ele>855.47</ele>
 <time>2010-08-08T09:36:22Z</time>
 </trkpt>
 <trkpt lat="47.290230" lon="13.215749">
 <ele>855.01</ele>
 <time>2010-08-08T09:36:25Z</time>
 </trkpt>
 <trkpt lat="47.290634" lon="13.215425">
 <ele>852.28</ele>
 <time>2010-08-08T09:36:30Z</time>
 </trkpt>
 <trkpt lat="47.291080" lon="13.215071">
 <ele>851.89</ele>
 <time>2010-08-08T09:36:36Z</time>
 </trkpt>
 <trkpt lat="47.291149" lon="13.215001">
 <ele>851.89</ele>
 <time>2010-08-08T09:36:37Z</time>
 </trkpt>
 <trkpt lat="47.291462" lon="13.214847">
 <ele>851.50</ele>
 <time>2010-08-08T09:36:41Z</time>
 </trkpt>
 <trkpt lat="47.291653" lon="13.214899">
 <ele>852.57</ele>
 <time>2010-08-08T09:36:44Z</time>
 </trkpt>
 <trkpt lat="47.291885" lon="13.215130">
 <ele>854.95</ele>
 <time>2010-08-08T09:36:49Z</time>
 </trkpt>
 <trkpt lat="47.292023" lon="13.215180">
 <ele>857.03</ele>
 <time>2010-08-08T09:36:54Z</time>
 </trkpt>
 <trkpt lat="47.292152" lon="13.215137">
 <ele>858.20</ele>
 <time>2010-08-08T09:36:58Z</time>
 </trkpt>
 <trkpt lat="47.292152" lon="13.215137">
 <ele>858.52</ele>
 <time>2010-08-08T09:36:59Z</time>
 </trkpt>
 <trkpt lat="47.292362" lon="13.214727">
 <ele>859.28</ele>
 <time>2010-08-08T09:37:04Z</time>
 </trkpt>
 <trkpt lat="47.292412" lon="13.214625">
 <ele>859.65</ele>
 <time>2010-08-08T09:37:06Z</time>
 </trkpt>
 <trkpt lat="47.292599" lon="13.214399">
 <ele>861.01</ele>
 <time>2010-08-08T09:37:12Z</time>
 </trkpt>
 <trkpt lat="47.292633" lon="13.214373">
 <ele>861.22</ele>
 <time>2010-08-08T09:37:13Z</time>
 </trkpt>
 <trkpt lat="47.292866" lon="13.214294">
 <ele>862.93</ele>
 <time>2010-08-08T09:37:20Z</time>
 </trkpt>
 <trkpt lat="47.293072" lon="13.214285">
 <ele>864.11</ele>
 <time>2010-08-08T09:37:27Z</time>
 </trkpt>
 <trkpt lat="47.293270" lon="13.214301">
 <ele>865.16</ele>
 <time>2010-08-08T09:37:34Z</time>
 </trkpt>
 <trkpt lat="47.293476" lon="13.214364">
 <ele>866.90</ele>
 <time>2010-08-08T09:37:41Z</time>
 </trkpt>
 <trkpt lat="47.293655" lon="13.214278">
 <ele>868.20</ele>
 <time>2010-08-08T09:37:49Z</time>
 </trkpt>
 <trkpt lat="47.293652" lon="13.213576">
 <ele>869.20</ele>
 <time>2010-08-08T09:37:57Z</time>
 </trkpt>
 <trkpt lat="47.293781" lon="13.213308">
 <ele>870.59</ele>
 <time>2010-08-08T09:38:05Z</time>
 </trkpt>
 <trkpt lat="47.293938" lon="13.213138">
 <ele>871.80</ele>
 <time>2010-08-08T09:38:13Z</time>
 </trkpt>
 <trkpt lat="47.294121" lon="13.212935">
 <ele>873.03</ele>
 <time>2010-08-08T09:38:23Z</time>
 </trkpt>
 <trkpt lat="47.294308" lon="13.212757">
 <ele>874.69</ele>
 <time>2010-08-08T09:38:32Z</time>
 </trkpt>
 <trkpt lat="47.294491" lon="13.212594">
 <ele>876.33</ele>
 <time>2010-08-08T09:38:41Z</time>
 </trkpt>
 <trkpt lat="47.294624" lon="13.212471">
 <ele>877.57</ele>
 <time>2010-08-08T09:38:49Z</time>
 </trkpt>
 <trkpt lat="47.294735" lon="13.212368">
 <ele>878.90</ele>
 <time>2010-08-08T09:38:56Z</time>
 </trkpt>
 <trkpt lat="47.294899" lon="13.212219">
 <ele>880.31</ele>
 <time>2010-08-08T09:39:04Z</time>
 </trkpt>
 <trkpt lat="47.295086" lon="13.212048">
 <ele>881.73</ele>
 <time>2010-08-08T09:39:13Z</time>
 </trkpt>
 <trkpt lat="47.295288" lon="13.211789">
 <ele>883.70</ele>
 <time>2010-08-08T09:39:24Z</time>
 </trkpt>
 <trkpt lat="47.295464" lon="13.211544">
 <ele>885.30</ele>
 <time>2010-08-08T09:39:34Z</time>
 </trkpt>
 <trkpt lat="47.295616" lon="13.211331">
 <ele>886.91</ele>
 <time>2010-08-08T09:39:43Z</time>
 </trkpt>
 <trkpt lat="47.295692" lon="13.211107">
 <ele>888.28</ele>
 <time>2010-08-08T09:39:51Z</time>
 </trkpt>
 <trkpt lat="47.295788" lon="13.210793">
 <ele>889.43</ele>
 <time>2010-08-08T09:40:01Z</time>
 </trkpt>
 <trkpt lat="47.295902" lon="13.210423">
 <ele>891.32</ele>
 <time>2010-08-08T09:40:13Z</time>
 </trkpt>
 <trkpt lat="47.295998" lon="13.210146">
 <ele>892.79</ele>
 <time>2010-08-08T09:40:22Z</time>
 </trkpt>
 <trkpt lat="47.296143" lon="13.209837">
 <ele>894.61</ele>
 <time>2010-08-08T09:40:33Z</time>
 </trkpt>
 <trkpt lat="47.296272" lon="13.209560">
 <ele>896.15</ele>
 <time>2010-08-08T09:40:43Z</time>
 </trkpt>
 <trkpt lat="47.296272" lon="13.209558">
 <ele>896.94</ele>
 <time>2010-08-08T09:40:51Z</time>
 </trkpt>
 <trkpt lat="47.296566" lon="13.208963">
 <ele>899.66</ele>
 <time>2010-08-08T09:41:05Z</time>
 </trkpt>
 <trkpt lat="47.296700" lon="13.208690">
 <ele>900.83</ele>
 <time>2010-08-08T09:41:15Z</time>
 </trkpt>
 <trkpt lat="47.296818" lon="13.208448">
 <ele>902.15</ele>
 <time>2010-08-08T09:41:24Z</time>
 </trkpt>
 <trkpt lat="47.296925" lon="13.208231">
 <ele>903.38</ele>
 <time>2010-08-08T09:41:32Z</time>
 </trkpt>
 <trkpt lat="47.296936" lon="13.208206">
 <ele>905.01</ele>
 <time>2010-08-08T09:41:42Z</time>
 </trkpt>
 <trkpt lat="47.297215" lon="13.207841">
 <ele>906.26</ele>
 <time>2010-08-08T09:41:49Z</time>
 </trkpt>
 <trkpt lat="47.297215" lon="13.207841">
 <ele>906.61</ele>
 <time>2010-08-08T09:41:51Z</time>
 </trkpt>
 <trkpt lat="47.297451" lon="13.207560">
 <ele>913.01</ele>
 <time>2010-08-08T09:42:22Z</time>
 </trkpt>
 <trkpt lat="47.297455" lon="13.207552">
 <ele>913.25</ele>
 <time>2010-08-08T09:42:23Z</time>
 </trkpt>
 <trkpt lat="47.298119" lon="13.206811">
 <ele>915.63</ele>
 <time>2010-08-08T09:42:37Z</time>
 </trkpt>
 <trkpt lat="47.298119" lon="13.206811">
 <ele>917.45</ele>
 <time>2010-08-08T09:42:45Z</time>
 </trkpt>
 <trkpt lat="47.298386" lon="13.206560">
 <ele>918.28</ele>
 <time>2010-08-08T09:42:52Z</time>
 </trkpt>
 <trkpt lat="47.298508" lon="13.206392">
 <ele>919.19</ele>
 <time>2010-08-08T09:42:59Z</time>
 </trkpt>
 <trkpt lat="47.298607" lon="13.206219">
 <ele>919.51</ele>
 <time>2010-08-08T09:43:06Z</time>
 </trkpt>
 <trkpt lat="47.298725" lon="13.206017">
 <ele>920.80</ele>
 <time>2010-08-08T09:43:15Z</time>
 </trkpt>
 <trkpt lat="47.298840" lon="13.205893">
 <ele>921.47</ele>
 <time>2010-08-08T09:43:22Z</time>
 </trkpt>
 <trkpt lat="47.299015" lon="13.205757">
 <ele>922.37</ele>
 <time>2010-08-08T09:43:31Z</time>
 </trkpt>
 <trkpt lat="47.299164" lon="13.205705">
 <ele>923.11</ele>
 <time>2010-08-08T09:43:38Z</time>
 </trkpt>
 <trkpt lat="47.299301" lon="13.205669">
 <ele>924.29</ele>
 <time>2010-08-08T09:43:45Z</time>
 </trkpt>
 <trkpt lat="47.299442" lon="13.205670">
 <ele>925.18</ele>
 <time>2010-08-08T09:43:52Z</time>
 </trkpt>
 <trkpt lat="47.299595" lon="13.205702">
 <ele>926.29</ele>
 <time>2010-08-08T09:43:59Z</time>
 </trkpt>
 <trkpt lat="47.299786" lon="13.205744">
 <ele>927.39</ele>
 <time>2010-08-08T09:44:07Z</time>
 </trkpt>
 <trkpt lat="47.299950" lon="13.205779">
 <ele>928.11</ele>
 <time>2010-08-08T09:44:14Z</time>
 </trkpt>
 <trkpt lat="47.300117" lon="13.205814">
 <ele>928.84</ele>
 <time>2010-08-08T09:44:21Z</time>
 </trkpt>
 <trkpt lat="47.300270" lon="13.205842">
 <ele>929.70</ele>
 <time>2010-08-08T09:44:28Z</time>
 </trkpt>
 <trkpt lat="47.300446" lon="13.205767">
 <ele>929.70</ele>
 <time>2010-08-08T09:44:34Z</time>
 </trkpt>
 <trkpt lat="47.300655" lon="13.205555">
 <ele>929.52</ele>
 <time>2010-08-08T09:44:40Z</time>
 </trkpt>
 <trkpt lat="47.300880" lon="13.205163">
 <ele>929.68</ele>
 <time>2010-08-08T09:44:48Z</time>
 </trkpt>
 <trkpt lat="47.300938" lon="13.205065">
 <ele>929.77</ele>
 <time>2010-08-08T09:44:50Z</time>
 </trkpt>
 <trkpt lat="47.301262" lon="13.204504">
 <ele>930.00</ele>
 <time>2010-08-08T09:45:02Z</time>
 </trkpt>
 <trkpt lat="47.301453" lon="13.204168">
 <ele>929.86</ele>
 <time>2010-08-08T09:45:09Z</time>
 </trkpt>
 <trkpt lat="47.301601" lon="13.203909">
 <ele>929.58</ele>
 <time>2010-08-08T09:45:14Z</time>
 </trkpt>
 <trkpt lat="47.301689" lon="13.203754">
 <ele>929.12</ele>
 <time>2010-08-08T09:45:17Z</time>
 </trkpt>
 <trkpt lat="47.301891" lon="13.203568">
 <ele>928.37</ele>
 <time>2010-08-08T09:45:22Z</time>
 </trkpt>
 <trkpt lat="47.301975" lon="13.203499">
 <ele>928.09</ele>
 <time>2010-08-08T09:45:24Z</time>
 </trkpt>
 <trkpt lat="47.302395" lon="13.203481">
 <ele>926.22</ele>
 <time>2010-08-08T09:45:31Z</time>
 </trkpt>
 <trkpt lat="47.302956" lon="13.203669">
 <ele>923.28</ele>
 <time>2010-08-08T09:45:41Z</time>
 </trkpt>
 <trkpt lat="47.303288" lon="13.203796">
 <ele>922.56</ele>
 <time>2010-08-08T09:45:45Z</time>
 </trkpt>
 <trkpt lat="47.303890" lon="13.204144">
 <ele>920.94</ele>
 <time>2010-08-08T09:45:54Z</time>
 </trkpt>
 <trkpt lat="47.303951" lon="13.204185">
 <ele>920.83</ele>
 <time>2010-08-08T09:45:55Z</time>
 </trkpt>
 <trkpt lat="47.304340" lon="13.204330">
 <ele>919.91</ele>
 <time>2010-08-08T09:46:01Z</time>
 </trkpt>
 <trkpt lat="47.304405" lon="13.204348">
 <ele>919.76</ele>
 <time>2010-08-08T09:46:02Z</time>
 </trkpt>
 <trkpt lat="47.304688" lon="13.204470">
 <ele>919.31</ele>
 <time>2010-08-08T09:46:06Z</time>
 </trkpt>
 <trkpt lat="47.304886" lon="13.204654">
 <ele>919.82</ele>
 <time>2010-08-08T09:46:10Z</time>
 </trkpt>
 <trkpt lat="47.305050" lon="13.204751">
 <ele>920.11</ele>
 <time>2010-08-08T09:46:14Z</time>
 </trkpt>
 <trkpt lat="47.305294" lon="13.204591">
 <ele>920.16</ele>
 <time>2010-08-08T09:46:18Z</time>
 </trkpt>
 <trkpt lat="47.305344" lon="13.204542">
 <ele>920.08</ele>
 <time>2010-08-08T09:46:19Z</time>
 </trkpt>
 <trkpt lat="47.305641" lon="13.203972">
 <ele>917.28</ele>
 <time>2010-08-08T09:46:26Z</time>
 </trkpt>
 <trkpt lat="47.305965" lon="13.203581">
 <ele>912.72</ele>
 <time>2010-08-08T09:46:31Z</time>
 </trkpt>
 <trkpt lat="47.306213" lon="13.203477">
 <ele>909.74</ele>
 <time>2010-08-08T09:46:34Z</time>
 </trkpt>
 <trkpt lat="47.306557" lon="13.203282">
 <ele>905.82</ele>
 <time>2010-08-08T09:46:38Z</time>
 </trkpt>
 <trkpt lat="47.306572" lon="13.203271">
 <ele>904.92</ele>
 <time>2010-08-08T09:46:40Z</time>
 </trkpt>
 <trkpt lat="47.306763" lon="13.202783">
 <ele>903.04</ele>
 <time>2010-08-08T09:46:43Z</time>
 </trkpt>
 <trkpt lat="47.306744" lon="13.202401">
 <ele>899.99</ele>
 <time>2010-08-08T09:46:46Z</time>
 </trkpt>
 <trkpt lat="47.306686" lon="13.201808">
 <ele>896.37</ele>
 <time>2010-08-08T09:46:51Z</time>
 </trkpt>
 <trkpt lat="47.306759" lon="13.201429">
 <ele>893.89</ele>
 <time>2010-08-08T09:46:54Z</time>
 </trkpt>
 <trkpt lat="47.306911" lon="13.201193">
 <ele>892.15</ele>
 <time>2010-08-08T09:46:56Z</time>
 </trkpt>
 <trkpt lat="47.307419" lon="13.200585">
 <ele>889.42</ele>
 <time>2010-08-08T09:47:03Z</time>
 </trkpt>
 <trkpt lat="47.307621" lon="13.200364">
 <ele>889.26</ele>
 <time>2010-08-08T09:47:06Z</time>
 </trkpt>
 <trkpt lat="47.307835" lon="13.200026">
 <ele>888.89</ele>
 <time>2010-08-08T09:47:10Z</time>
 </trkpt>
 <trkpt lat="47.308090" lon="13.199437">
 <ele>886.52</ele>
 <time>2010-08-08T09:47:16Z</time>
 </trkpt>
 <trkpt lat="47.308334" lon="13.198958">
 <ele>884.85</ele>
 <time>2010-08-08T09:47:21Z</time>
 </trkpt>
 <trkpt lat="47.308723" lon="13.198337">
 <ele>883.09</ele>
 <time>2010-08-08T09:47:28Z</time>
 </trkpt>
 <trkpt lat="47.308941" lon="13.197813">
 <ele>881.80</ele>
 <time>2010-08-08T09:47:33Z</time>
 </trkpt>
 <trkpt lat="47.309113" lon="13.196939">
 <ele>878.93</ele>
 <time>2010-08-08T09:47:40Z</time>
 </trkpt>
 <trkpt lat="47.309143" lon="13.196304">
 <ele>876.65</ele>
 <time>2010-08-08T09:47:45Z</time>
 </trkpt>
 <trkpt lat="47.309223" lon="13.195814">
 <ele>875.44</ele>
 <time>2010-08-08T09:47:49Z</time>
 </trkpt>
 <trkpt lat="47.309334" lon="13.195491">
 <ele>874.42</ele>
 <time>2010-08-08T09:47:52Z</time>
 </trkpt>
 <trkpt lat="47.309708" lon="13.194852">
 <ele>873.23</ele>
 <time>2010-08-08T09:47:59Z</time>
 </trkpt>
 <trkpt lat="47.309830" lon="13.194536">
 <ele>871.83</ele>
 <time>2010-08-08T09:48:02Z</time>
 </trkpt>
 <trkpt lat="47.309990" lon="13.194230">
 <ele>871.25</ele>
 <time>2010-08-08T09:48:06Z</time>
 </trkpt>
 <trkpt lat="47.310215" lon="13.193905">
 <ele>870.62</ele>
 <time>2010-08-08T09:48:12Z</time>
 </trkpt>
 <trkpt lat="47.310326" lon="13.193743">
 <ele>867.53</ele>
 <time>2010-08-08T09:48:19Z</time>
 </trkpt>
 <trkpt lat="47.310661" lon="13.193178">
 <ele>866.40</ele>
 <time>2010-08-08T09:48:22Z</time>
 </trkpt>
 <trkpt lat="47.310936" lon="13.192765">
 <ele>862.98</ele>
 <time>2010-08-08T09:48:27Z</time>
 </trkpt>
 <trkpt lat="47.311283" lon="13.192618">
 <ele>859.44</ele>
 <time>2010-08-08T09:48:31Z</time>
 </trkpt>
 <trkpt lat="47.311680" lon="13.192906">
 <ele>855.58</ele>
 <time>2010-08-08T09:48:35Z</time>
 </trkpt>
 <trkpt lat="47.311844" lon="13.193228">
 <ele>852.77</ele>
 <time>2010-08-08T09:48:38Z</time>
 </trkpt>
 <trkpt lat="47.311928" lon="13.193495">
 <ele>850.66</ele>
 <time>2010-08-08T09:48:40Z</time>
 </trkpt>
 <trkpt lat="47.312157" lon="13.194213">
 <ele>846.67</ele>
 <time>2010-08-08T09:48:45Z</time>
 </trkpt>
 <trkpt lat="47.312389" lon="13.194940">
 <ele>841.61</ele>
 <time>2010-08-08T09:48:50Z</time>
 </trkpt>
 <trkpt lat="47.312576" lon="13.195653">
 <ele>837.42</ele>
 <time>2010-08-08T09:48:55Z</time>
 </trkpt>
 <trkpt lat="47.312695" lon="13.196217">
 <ele>834.22</ele>
 <time>2010-08-08T09:48:59Z</time>
 </trkpt>
 <trkpt lat="47.312756" lon="13.196507">
 <ele>832.92</ele>
 <time>2010-08-08T09:49:02Z</time>
 </trkpt>
 <trkpt lat="47.312832" lon="13.196710">
 <ele>832.06</ele>
 <time>2010-08-08T09:49:05Z</time>
 </trkpt>
 <trkpt lat="47.312950" lon="13.197046">
 <ele>829.61</ele>
 <time>2010-08-08T09:49:09Z</time>
 </trkpt>
 <trkpt lat="47.313156" lon="13.197514">
 <ele>826.91</ele>
 <time>2010-08-08T09:49:14Z</time>
 </trkpt>
 <trkpt lat="47.313522" lon="13.198069">
 <ele>822.14</ele>
 <time>2010-08-08T09:49:20Z</time>
 </trkpt>
 <trkpt lat="47.313869" lon="13.198436">
 <ele>818.16</ele>
 <time>2010-08-08T09:49:25Z</time>
 </trkpt>
 <trkpt lat="47.314384" lon="13.198764">
 <ele>812.77</ele>
 <time>2010-08-08T09:49:31Z</time>
 </trkpt>
 <trkpt lat="47.314747" lon="13.199016">
 <ele>810.35</ele>
 <time>2010-08-08T09:49:35Z</time>
 </trkpt>
 <trkpt lat="47.314968" lon="13.199174">
 <ele>808.97</ele>
 <time>2010-08-08T09:49:38Z</time>
 </trkpt>
 <trkpt lat="47.315273" lon="13.199301">
 <ele>807.08</ele>
 <time>2010-08-08T09:49:42Z</time>
 </trkpt>
 <trkpt lat="47.315544" lon="13.199280">
 <ele>804.56</ele>
 <time>2010-08-08T09:49:45Z</time>
 </trkpt>
 <trkpt lat="47.315838" lon="13.199031">
 <ele>801.70</ele>
 <time>2010-08-08T09:49:49Z</time>
 </trkpt>
 <trkpt lat="47.316032" lon="13.198639">
 <ele>797.94</ele>
 <time>2010-08-08T09:49:53Z</time>
 </trkpt>
 <trkpt lat="47.316086" lon="13.198176">
 <ele>794.61</ele>
 <time>2010-08-08T09:49:57Z</time>
 </trkpt>
 <trkpt lat="47.316097" lon="13.198058">
 <ele>793.66</ele>
 <time>2010-08-08T09:49:58Z</time>
 </trkpt>
 <trkpt lat="47.316078" lon="13.197794">
 <ele>792.62</ele>
 <time>2010-08-08T09:50:00Z</time>
 </trkpt>
 <trkpt lat="47.316059" lon="13.197517">
 <ele>790.38</ele>
 <time>2010-08-08T09:50:02Z</time>
 </trkpt>
 <trkpt lat="47.316116" lon="13.197009">
 <ele>786.58</ele>
 <time>2010-08-08T09:50:06Z</time>
 </trkpt>
 <trkpt lat="47.316235" lon="13.196793">
 <ele>785.52</ele>
 <time>2010-08-08T09:50:08Z</time>
 </trkpt>
 <trkpt lat="47.316475" lon="13.196499">
 <ele>784.85</ele>
 <time>2010-08-08T09:50:12Z</time>
 </trkpt>
 <trkpt lat="47.316643" lon="13.196407">
 <ele>784.89</ele>
 <time>2010-08-08T09:50:17Z</time>
 </trkpt>
 <trkpt lat="47.316658" lon="13.196397">
 <ele>784.78</ele>
 <time>2010-08-08T09:50:20Z</time>
 </trkpt>
 <trkpt lat="47.316692" lon="13.196378">
 <ele>784.65</ele>
 <time>2010-08-08T09:51:25Z</time>
 </trkpt>
 <trkpt lat="47.316738" lon="13.196351">
 <ele>784.33</ele>
 <time>2010-08-08T09:51:27Z</time>
 </trkpt>
 <trkpt lat="47.317024" lon="13.196287">
 <ele>781.68</ele>
 <time>2010-08-08T09:51:32Z</time>
 </trkpt>
 <trkpt lat="47.317097" lon="13.196307">
 <ele>780.94</ele>
 <time>2010-08-08T09:51:33Z</time>
 </trkpt>
 <trkpt lat="47.317310" lon="13.196391">
 <ele>778.93</ele>
 <time>2010-08-08T09:51:36Z</time>
 </trkpt>
 <trkpt lat="47.317612" lon="13.196613">
 <ele>775.17</ele>
 <time>2010-08-08T09:51:40Z</time>
 </trkpt>
 <trkpt lat="47.317741" lon="13.196606">
 <ele>775.16</ele>
 <time>2010-08-08T09:51:41Z</time>
 </trkpt>
 <trkpt lat="47.317913" lon="13.196497">
 <ele>772.92</ele>
 <time>2010-08-08T09:51:43Z</time>
 </trkpt>
 <trkpt lat="47.318153" lon="13.196170">
 <ele>769.26</ele>
 <time>2010-08-08T09:51:46Z</time>
 </trkpt>
 <trkpt lat="47.318630" lon="13.195736">
 <ele>762.22</ele>
 <time>2010-08-08T09:51:51Z</time>
 </trkpt>
 <trkpt lat="47.318752" lon="13.195673">
 <ele>760.86</ele>
 <time>2010-08-08T09:51:52Z</time>
 </trkpt>
 <trkpt lat="47.319366" lon="13.195323">
 <ele>752.45</ele>
 <time>2010-08-08T09:51:57Z</time>
 </trkpt>
 <trkpt lat="47.319927" lon="13.194936">
 <ele>745.90</ele>
 <time>2010-08-08T09:52:02Z</time>
 </trkpt>
 <trkpt lat="47.320396" lon="13.194789">
 <ele>742.03</ele>
 <time>2010-08-08T09:52:06Z</time>
 </trkpt>
 <trkpt lat="47.320644" lon="13.194756">
 <ele>739.02</ele>
 <time>2010-08-08T09:52:08Z</time>
 </trkpt>
 <trkpt lat="47.321060" lon="13.194603">
 <ele>734.97</ele>
 <time>2010-08-08T09:52:12Z</time>
 </trkpt>
 <trkpt lat="47.321308" lon="13.194370">
 <ele>732.77</ele>
 <time>2010-08-08T09:52:15Z</time>
 </trkpt>
 <trkpt lat="47.321495" lon="13.194011">
 <ele>731.02</ele>
 <time>2010-08-08T09:52:18Z</time>
 </trkpt>
 <trkpt lat="47.321732" lon="13.193514">
 <ele>728.16</ele>
 <time>2010-08-08T09:52:22Z</time>
 </trkpt>
 <trkpt lat="47.321980" lon="13.193358">
 <ele>726.59</ele>
 <time>2010-08-08T09:52:25Z</time>
 </trkpt>
 <trkpt lat="47.322186" lon="13.193387">
 <ele>725.15</ele>
 <time>2010-08-08T09:52:27Z</time>
 </trkpt>
 <trkpt lat="47.322594" lon="13.193612">
 <ele>722.06</ele>
 <time>2010-08-08T09:52:31Z</time>
 </trkpt>
 <trkpt lat="47.323124" lon="13.193943">
 <ele>715.99</ele>
 <time>2010-08-08T09:52:36Z</time>
 </trkpt>
 <trkpt lat="47.323833" lon="13.194384">
 <ele>710.05</ele>
 <time>2010-08-08T09:52:42Z</time>
 </trkpt>
 <trkpt lat="47.324429" lon="13.194756">
 <ele>705.08</ele>
 <time>2010-08-08T09:52:47Z</time>
 </trkpt>
 <trkpt lat="47.325012" lon="13.195147">
 <ele>700.33</ele>
 <time>2010-08-08T09:52:52Z</time>
 </trkpt>
 <trkpt lat="47.325447" lon="13.195574">
 <ele>697.69</ele>
 <time>2010-08-08T09:52:56Z</time>
 </trkpt>
 <trkpt lat="47.326202" lon="13.196294">
 <ele>691.81</ele>
 <time>2010-08-08T09:53:03Z</time>
 </trkpt>
 <trkpt lat="47.326782" lon="13.196671">
 <ele>687.02</ele>
 <time>2010-08-08T09:53:08Z</time>
 </trkpt>
 <trkpt lat="47.327206" lon="13.196944">
 <ele>684.06</ele>
 <time>2010-08-08T09:53:12Z</time>
 </trkpt>
 <trkpt lat="47.327888" lon="13.197060">
 <ele>678.81</ele>
 <time>2010-08-08T09:53:18Z</time>
 </trkpt>
 <trkpt lat="47.328236" lon="13.197093">
 <ele>676.88</ele>
 <time>2010-08-08T09:53:21Z</time>
 </trkpt>
 <trkpt lat="47.328800" lon="13.197182">
 <ele>673.72</ele>
 <time>2010-08-08T09:53:26Z</time>
 </trkpt>
 <trkpt lat="47.329418" lon="13.197289">
 <ele>669.98</ele>
 <time>2010-08-08T09:53:31Z</time>
 </trkpt>
 <trkpt lat="47.330021" lon="13.197447">
 <ele>665.98</ele>
 <time>2010-08-08T09:53:36Z</time>
 </trkpt>
 <trkpt lat="47.330486" lon="13.197569">
 <ele>661.82</ele>
 <time>2010-08-08T09:53:40Z</time>
 </trkpt>
 <trkpt lat="47.330719" lon="13.197626">
 <ele>659.97</ele>
 <time>2010-08-08T09:53:42Z</time>
 </trkpt>
 <trkpt lat="47.331200" lon="13.197732">
 <ele>657.55</ele>
 <time>2010-08-08T09:53:46Z</time>
 </trkpt>
 <trkpt lat="47.331665" lon="13.197860">
 <ele>654.25</ele>
 <time>2010-08-08T09:53:50Z</time>
 </trkpt>
 <trkpt lat="47.332329" lon="13.198136">
 <ele>649.05</ele>
 <time>2010-08-08T09:53:56Z</time>
 </trkpt>
 <trkpt lat="47.332733" lon="13.198182">
 <ele>646.64</ele>
 <time>2010-08-08T09:54:00Z</time>
 </trkpt>
 <trkpt lat="47.333042" lon="13.198214">
 <ele>644.13</ele>
 <time>2010-08-08T09:54:03Z</time>
 </trkpt>
 <trkpt lat="47.333462" lon="13.198245">
 <ele>640.76</ele>
 <time>2010-08-08T09:54:07Z</time>
 </trkpt>
 <trkpt lat="47.334030" lon="13.198208">
 <ele>637.22</ele>
 <time>2010-08-08T09:54:12Z</time>
 </trkpt>
 <trkpt lat="47.334381" lon="13.198185">
 <ele>632.99</ele>
 <time>2010-08-08T09:54:16Z</time>
 </trkpt>
 <trkpt lat="47.334381" lon="13.198185">
 <ele>632.31</ele>
 <time>2010-08-08T09:54:17Z</time>
 </trkpt>
 <trkpt lat="47.335049" lon="13.198542">
 <ele>628.79</ele>
 <time>2010-08-08T09:54:22Z</time>
 </trkpt>
 <trkpt lat="47.335213" lon="13.198752">
 <ele>627.03</ele>
 <time>2010-08-08T09:54:24Z</time>
 </trkpt>
 <trkpt lat="47.335835" lon="13.199507">
 <ele>621.20</ele>
 <time>2010-08-08T09:54:31Z</time>
 </trkpt>
 <trkpt lat="47.336224" lon="13.199958">
 <ele>616.50</ele>
 <time>2010-08-08T09:54:35Z</time>
 </trkpt>
 <trkpt lat="47.336452" lon="13.200098">
 <ele>615.53</ele>
 <time>2010-08-08T09:54:37Z</time>
 </trkpt>
 <trkpt lat="47.336922" lon="13.200296">
 <ele>610.79</ele>
 <time>2010-08-08T09:54:41Z</time>
 </trkpt>
 <trkpt lat="47.337418" lon="13.200330">
 <ele>606.02</ele>
 <time>2010-08-08T09:54:45Z</time>
 </trkpt>
 <trkpt lat="47.337662" lon="13.200253">
 <ele>603.80</ele>
 <time>2010-08-08T09:54:47Z</time>
 </trkpt>
 <trkpt lat="47.338085" lon="13.199969">
 <ele>599.58</ele>
 <time>2010-08-08T09:54:51Z</time>
 </trkpt>
 <trkpt lat="47.338192" lon="13.199879">
 <ele>598.58</ele>
 <time>2010-08-08T09:54:52Z</time>
 </trkpt>
 <trkpt lat="47.338741" lon="13.199233">
 <ele>593.27</ele>
 <time>2010-08-08T09:54:58Z</time>
 </trkpt>
 <trkpt lat="47.339031" lon="13.198691">
 <ele>590.97</ele>
 <time>2010-08-08T09:55:02Z</time>
 </trkpt>
 <trkpt lat="47.339367" lon="13.197986">
 <ele>586.91</ele>
 <time>2010-08-08T09:55:07Z</time>
 </trkpt>
 <trkpt lat="47.339565" lon="13.197206">
 <ele>582.75</ele>
 <time>2010-08-08T09:55:12Z</time>
 </trkpt>
 <trkpt lat="47.339684" lon="13.196571">
 <ele>580.49</ele>
 <time>2010-08-08T09:55:16Z</time>
 </trkpt>
 <trkpt lat="47.339870" lon="13.195555">
 <ele>579.89</ele>
 <time>2010-08-08T09:55:23Z</time>
 </trkpt>
 <trkpt lat="47.339970" lon="13.194801">
 <ele>580.65</ele>
 <time>2010-08-08T09:55:29Z</time>
 </trkpt>
 <trkpt lat="47.339981" lon="13.194344">
 <ele>581.09</ele>
 <time>2010-08-08T09:55:34Z</time>
 </trkpt>
 <trkpt lat="47.339890" lon="13.193380">
 <ele>580.73</ele>
 <time>2010-08-08T09:55:42Z</time>
 </trkpt>
 <trkpt lat="47.339874" lon="13.193228">
 <ele>580.29</ele>
 <time>2010-08-08T09:55:48Z</time>
 </trkpt>
 <trkpt lat="47.339825" lon="13.192606">
 <ele>580.22</ele>
 <time>2010-08-08T09:55:52Z</time>
 </trkpt>
 <trkpt lat="47.339531" lon="13.192649">
 <ele>580.12</ele>
 <time>2010-08-08T09:55:54Z</time>
 </trkpt>
 <trkpt lat="47.340343" lon="13.191807">
 <ele>579.86</ele>
 <time>2010-08-08T09:55:56Z</time>
 </trkpt>
 <trkpt lat="47.340511" lon="13.191941">
 <ele>579.34</ele>
 <time>2010-08-08T09:56:00Z</time>
 </trkpt>
 <trkpt lat="47.340900" lon="13.192256">
 <ele>579.28</ele>
 <time>2010-08-08T09:56:10Z</time>
 </trkpt>
 <trkpt lat="47.341236" lon="13.192527">
 <ele>579.72</ele>
 <time>2010-08-08T09:56:18Z</time>
 </trkpt>
 <trkpt lat="47.341602" lon="13.192819">
 <ele>580.04</ele>
 <time>2010-08-08T09:56:26Z</time>
 </trkpt>
 <trkpt lat="47.342030" lon="13.193164">
 <ele>580.38</ele>
 <time>2010-08-08T09:56:35Z</time>
 </trkpt>
 <trkpt lat="47.342506" lon="13.193567">
 <ele>580.52</ele>
 <time>2010-08-08T09:56:45Z</time>
 </trkpt>
 <trkpt lat="47.342899" lon="13.193900">
 <ele>580.13</ele>
 <time>2010-08-08T09:56:53Z</time>
 </trkpt>
 <trkpt lat="47.343334" lon="13.194270">
 <ele>579.85</ele>
 <time>2010-08-08T09:57:02Z</time>
 </trkpt>
 <trkpt lat="47.343842" lon="13.194526">
 <ele>579.80</ele>
 <time>2010-08-08T09:57:12Z</time>
 </trkpt>
 <trkpt lat="47.344311" lon="13.194734">
 <ele>579.23</ele>
 <time>2010-08-08T09:57:20Z</time>
 </trkpt>
 <trkpt lat="47.344421" lon="13.194816">
 <ele>579.06</ele>
 <time>2010-08-08T09:57:23Z</time>
 </trkpt>
 <trkpt lat="47.344692" lon="13.194824">
 <ele>579.57</ele>
 <time>2010-08-08T09:57:27Z</time>
 </trkpt>
 <trkpt lat="47.345001" lon="13.194775">
 <ele>581.47</ele>
 <time>2010-08-08T09:57:34Z</time>
 </trkpt>
 <trkpt lat="47.345337" lon="13.194803">
 <ele>581.12</ele>
 <time>2010-08-08T09:57:41Z</time>
 </trkpt>
 <trkpt lat="47.345821" lon="13.194848">
 <ele>581.00</ele>
 <time>2010-08-08T09:57:50Z</time>
 </trkpt>
 <trkpt lat="47.346329" lon="13.194897">
 <ele>580.86</ele>
 <time>2010-08-08T09:57:59Z</time>
 </trkpt>
 <trkpt lat="47.346611" lon="13.194924">
 <ele>580.93</ele>
 <time>2010-08-08T09:58:08Z</time>
 </trkpt>
 <trkpt lat="47.347279" lon="13.195087">
 <ele>580.84</ele>
 <time>2010-08-08T09:58:16Z</time>
 </trkpt>
 <trkpt lat="47.347668" lon="13.195214">
 <ele>580.58</ele>
 <time>2010-08-08T09:58:23Z</time>
 </trkpt>
 <trkpt lat="47.347717" lon="13.195237">
 <ele>580.58</ele>
 <time>2010-08-08T09:58:24Z</time>
 </trkpt>
 <trkpt lat="47.348114" lon="13.195407">
 <ele>581.09</ele>
 <time>2010-08-08T09:58:32Z</time>
 </trkpt>
 <trkpt lat="47.348473" lon="13.195473">
 <ele>581.11</ele>
 <time>2010-08-08T09:58:39Z</time>
 </trkpt>
 <trkpt lat="47.348850" lon="13.195495">
 <ele>580.81</ele>
 <time>2010-08-08T09:58:46Z</time>
 </trkpt>
 <trkpt lat="47.349247" lon="13.195528">
 <ele>580.53</ele>
 <time>2010-08-08T09:58:53Z</time>
 </trkpt>
 <trkpt lat="47.349716" lon="13.195660">
 <ele>580.02</ele>
 <time>2010-08-08T09:59:01Z</time>
 </trkpt>
 <trkpt lat="47.350147" lon="13.195909">
 <ele>579.40</ele>
 <time>2010-08-08T09:59:09Z</time>
 </trkpt>
 <trkpt lat="47.350601" lon="13.196313">
 <ele>578.84</ele>
 <time>2010-08-08T09:59:17Z</time>
 </trkpt>
 <trkpt lat="47.351006" lon="13.196915">
 <ele>578.33</ele>
 <time>2010-08-08T09:59:26Z</time>
 </trkpt>
 <trkpt lat="47.351467" lon="13.197582">
 <ele>578.27</ele>
 <time>2010-08-08T09:59:37Z</time>
 </trkpt>
 <trkpt lat="47.352024" lon="13.198063">
 <ele>577.68</ele>
 <time>2010-08-08T09:59:46Z</time>
 </trkpt>
 <trkpt lat="47.352341" lon="13.198700">
 <ele>575.84</ele>
 <time>2010-08-08T09:59:54Z</time>
 </trkpt>
 <trkpt lat="47.352783" lon="13.199232">
 <ele>575.55</ele>
 <time>2010-08-08T10:00:03Z</time>
 </trkpt>
 <trkpt lat="47.353275" lon="13.199732">
 <ele>574.49</ele>
 <time>2010-08-08T10:00:12Z</time>
 </trkpt>
 <trkpt lat="47.353745" lon="13.200118">
 <ele>574.01</ele>
 <time>2010-08-08T10:00:20Z</time>
 </trkpt>
 <trkpt lat="47.354218" lon="13.200471">
 <ele>573.69</ele>
 <time>2010-08-08T10:00:28Z</time>
 </trkpt>
 <trkpt lat="47.354668" lon="13.200722">
 <ele>573.83</ele>
 <time>2010-08-08T10:00:36Z</time>
 </trkpt>
 <trkpt lat="47.355183" lon="13.200975">
 <ele>573.82</ele>
 <time>2010-08-08T10:00:45Z</time>
 </trkpt>
 <trkpt lat="47.355648" lon="13.201169">
 <ele>574.02</ele>
 <time>2010-08-08T10:00:54Z</time>
 </trkpt>
 <trkpt lat="47.355946" lon="13.201254">
 <ele>574.52</ele>
 <time>2010-08-08T10:01:01Z</time>
 </trkpt>
 <trkpt lat="47.356018" lon="13.201261">
 <ele>575.42</ele>
 <time>2010-08-08T10:01:05Z</time>
 </trkpt>
 <trkpt lat="47.356155" lon="13.201274">
 <ele>575.23</ele>
 <time>2010-08-08T10:01:18Z</time>
 </trkpt>
 <trkpt lat="47.356159" lon="13.201275">
 <ele>575.19</ele>
 <time>2010-08-08T10:01:19Z</time>
 </trkpt>
 <trkpt lat="47.356159" lon="13.201275">
 <ele>574.85</ele>
 <time>2010-08-08T10:01:21Z</time>
 </trkpt>
 <trkpt lat="47.356827" lon="13.201731">
 <ele>573.98</ele>
 <time>2010-08-08T10:01:32Z</time>
 </trkpt>
 <trkpt lat="47.357117" lon="13.201931">
 <ele>574.87</ele>
 <time>2010-08-08T10:01:39Z</time>
 </trkpt>
 <trkpt lat="47.357342" lon="13.202091">
 <ele>575.54</ele>
 <time>2010-08-08T10:01:46Z</time>
 </trkpt>
 <trkpt lat="47.357544" lon="13.202244">
 <ele>574.97</ele>
 <time>2010-08-08T10:01:52Z</time>
 </trkpt>
 <trkpt lat="47.357742" lon="13.202380">
 <ele>574.59</ele>
 <time>2010-08-08T10:01:58Z</time>
 </trkpt>
 <trkpt lat="47.357815" lon="13.202429">
 <ele>574.86</ele>
 <time>2010-08-08T10:02:01Z</time>
 </trkpt>
 <trkpt lat="47.357841" lon="13.202447">
 <ele>575.52</ele>
 <time>2010-08-08T10:02:06Z</time>
 </trkpt>
 <trkpt lat="47.357807" lon="13.202424">
 <ele>575.38</ele>
 <time>2010-08-08T10:02:20Z</time>
 </trkpt>
 <trkpt lat="47.357639" lon="13.202550">
 <ele>575.18</ele>
 <time>2010-08-08T10:02:24Z</time>
 </trkpt>
 <trkpt lat="47.357826" lon="13.202435">
 <ele>574.98</ele>
 <time>2010-08-08T10:02:27Z</time>
 </trkpt>
 <trkpt lat="47.357857" lon="13.202455">
 <ele>574.89</ele>
 <time>2010-08-08T10:02:28Z</time>
 </trkpt>
 <trkpt lat="47.358147" lon="13.202599">
 <ele>575.67</ele>
 <time>2010-08-08T10:02:36Z</time>
 </trkpt>
 <trkpt lat="47.358501" lon="13.202754">
 <ele>575.91</ele>
 <time>2010-08-08T10:02:45Z</time>
 </trkpt>
 <trkpt lat="47.358803" lon="13.202887">
 <ele>575.72</ele>
 <time>2010-08-08T10:02:52Z</time>
 </trkpt>
 <trkpt lat="47.359291" lon="13.203100">
 <ele>574.79</ele>
 <time>2010-08-08T10:03:02Z</time>
 </trkpt>
 <trkpt lat="47.359795" lon="13.203320">
 <ele>574.53</ele>
 <time>2010-08-08T10:03:11Z</time>
 </trkpt>
 <trkpt lat="47.360416" lon="13.203594">
 <ele>573.87</ele>
 <time>2010-08-08T10:03:22Z</time>
 </trkpt>
 <trkpt lat="47.361156" lon="13.203935">
 <ele>573.67</ele>
 <time>2010-08-08T10:03:35Z</time>
 </trkpt>
 <trkpt lat="47.361732" lon="13.204189">
 <ele>573.66</ele>
 <time>2010-08-08T10:03:45Z</time>
 </trkpt>
 <trkpt lat="47.362202" lon="13.204389">
 <ele>573.61</ele>
 <time>2010-08-08T10:03:53Z</time>
 </trkpt>
 <trkpt lat="47.363022" lon="13.204737">
 <ele>573.01</ele>
 <time>2010-08-08T10:04:07Z</time>
 </trkpt>
 <trkpt lat="47.363602" lon="13.204983">
 <ele>572.31</ele>
 <time>2010-08-08T10:04:17Z</time>
 </trkpt>
 <trkpt lat="47.364235" lon="13.205322">
 <ele>572.55</ele>
 <time>2010-08-08T10:04:28Z</time>
 </trkpt>
 <trkpt lat="47.364582" lon="13.205517">
 <ele>572.43</ele>
 <time>2010-08-08T10:04:34Z</time>
 </trkpt>
 <trkpt lat="47.364811" lon="13.205678">
 <ele>572.40</ele>
 <time>2010-08-08T10:04:38Z</time>
 </trkpt>
 <trkpt lat="47.364975" lon="13.205960">
 <ele>572.14</ele>
 <time>2010-08-08T10:04:42Z</time>
 </trkpt>
 <trkpt lat="47.365215" lon="13.206052">
 <ele>571.97</ele>
 <time>2010-08-08T10:04:46Z</time>
 </trkpt>
 <trkpt lat="47.365334" lon="13.206009">
 <ele>571.82</ele>
 <time>2010-08-08T10:04:48Z</time>
 </trkpt>
 <trkpt lat="47.365570" lon="13.206039">
 <ele>571.61</ele>
 <time>2010-08-08T10:04:52Z</time>
 </trkpt>
 <trkpt lat="47.366158" lon="13.206317">
 <ele>571.61</ele>
 <time>2010-08-08T10:05:02Z</time>
 </trkpt>
 <trkpt lat="47.366745" lon="13.206611">
 <ele>571.25</ele>
 <time>2010-08-08T10:05:12Z</time>
 </trkpt>
 <trkpt lat="47.367229" lon="13.206756">
 <ele>570.94</ele>
 <time>2010-08-08T10:05:20Z</time>
 </trkpt>
 <trkpt lat="47.367405" lon="13.206832">
 <ele>571.07</ele>
 <time>2010-08-08T10:05:23Z</time>
 </trkpt>
 <trkpt lat="47.367630" lon="13.206886">
 <ele>571.08</ele>
 <time>2010-08-08T10:05:27Z</time>
 </trkpt>
 <trkpt lat="47.367947" lon="13.206881">
 <ele>570.84</ele>
 <time>2010-08-08T10:05:32Z</time>
 </trkpt>
 <trkpt lat="47.368759" lon="13.207098">
 <ele>570.60</ele>
 <time>2010-08-08T10:05:45Z</time>
 </trkpt>
 <trkpt lat="47.369270" lon="13.207205">
 <ele>570.28</ele>
 <time>2010-08-08T10:05:53Z</time>
 </trkpt>
 <trkpt lat="47.369709" lon="13.207355">
 <ele>569.84</ele>
 <time>2010-08-08T10:06:00Z</time>
 </trkpt>
 <trkpt lat="47.370216" lon="13.207352">
 <ele>569.55</ele>
 <time>2010-08-08T10:06:08Z</time>
 </trkpt>
 <trkpt lat="47.370853" lon="13.207483">
 <ele>569.91</ele>
 <time>2010-08-08T10:06:18Z</time>
 </trkpt>
 <trkpt lat="47.371288" lon="13.207572">
 <ele>569.26</ele>
 <time>2010-08-08T10:06:25Z</time>
 </trkpt>
 <trkpt lat="47.371880" lon="13.207692">
 <ele>568.87</ele>
 <time>2010-08-08T10:06:34Z</time>
 </trkpt>
 <trkpt lat="47.372570" lon="13.207834">
 <ele>568.80</ele>
 <time>2010-08-08T10:06:45Z</time>
 </trkpt>
 <trkpt lat="47.373028" lon="13.207927">
 <ele>568.72</ele>
 <time>2010-08-08T10:06:58Z</time>
 </trkpt>
 <trkpt lat="47.373028" lon="13.207927">
 <ele>568.52</ele>
 <time>2010-08-08T10:07:05Z</time>
 </trkpt>
 <trkpt lat="47.374207" lon="13.207463">
 <ele>568.80</ele>
 <time>2010-08-08T10:07:12Z</time>
 </trkpt>
 <trkpt lat="47.374386" lon="13.207543">
 <ele>568.82</ele>
 <time>2010-08-08T10:07:19Z</time>
 </trkpt>
 <trkpt lat="47.374447" lon="13.207570">
 <ele>568.93</ele>
 <time>2010-08-08T10:07:22Z</time>
 </trkpt>
 <trkpt lat="47.374443" lon="13.209086">
 <ele>568.39</ele>
 <time>2010-08-08T10:07:28Z</time>
 </trkpt>
 <trkpt lat="47.374443" lon="13.209086">
 <ele>568.23</ele>
 <time>2010-08-08T10:07:29Z</time>
 </trkpt>
 <trkpt lat="47.374214" lon="13.209018">
 <ele>568.32</ele>
 <time>2010-08-08T10:07:35Z</time>
 </trkpt>
 <trkpt lat="47.374100" lon="13.209016">
 <ele>568.71</ele>
 <time>2010-08-08T10:07:41Z</time>
 </trkpt>
 <trkpt lat="47.374443" lon="13.209086">
 <ele>568.88</ele>
 <time>2010-08-08T10:07:45Z</time>
 </trkpt>
 <trkpt lat="47.374443" lon="13.209086">
 <ele>568.90</ele>
 <time>2010-08-08T10:07:46Z</time>
 </trkpt>
 <trkpt lat="47.374237" lon="13.209019">
 <ele>570.27</ele>
 <time>2010-08-08T10:07:52Z</time>
 </trkpt>
 <trkpt lat="47.374363" lon="13.209021">
 <ele>572.00</ele>
 <time>2010-08-08T10:07:57Z</time>
 </trkpt>
 <trkpt lat="47.374420" lon="13.209043">
 <ele>573.02</ele>
 <time>2010-08-08T10:08:01Z</time>
 </trkpt>
 <trkpt lat="47.374443" lon="13.209086">
 <ele>574.18</ele>
 <time>2010-08-08T10:08:06Z</time>
 </trkpt>
 <trkpt lat="47.374443" lon="13.209086">
 <ele>574.96</ele>
 <time>2010-08-08T10:08:13Z</time>
 </trkpt>
 <trkpt lat="47.374451" lon="13.209529">
 <ele>575.25</ele>
 <time>2010-08-08T10:08:18Z</time>
 </trkpt>
 <trkpt lat="47.374458" lon="13.209981">
 <ele>574.89</ele>
 <time>2010-08-08T10:08:27Z</time>
 </trkpt>
 <trkpt lat="47.374462" lon="13.210129">
 <ele>574.87</ele>
 <time>2010-08-08T10:08:30Z</time>
 </trkpt>
 <trkpt lat="47.374527" lon="13.210502">
 <ele>575.04</ele>
 <time>2010-08-08T10:08:35Z</time>
 </trkpt>
 <trkpt lat="47.374493" lon="13.210409">
 <ele>574.13</ele>
 <time>2010-08-08T10:08:40Z</time>
 </trkpt>
 <trkpt lat="47.374527" lon="13.210502">
 <ele>572.86</ele>
 <time>2010-08-08T10:08:43Z</time>
 </trkpt>
 <trkpt lat="47.374630" lon="13.210522">
 <ele>571.61</ele>
 <time>2010-08-08T10:08:46Z</time>
 </trkpt>
 <trkpt lat="47.374931" lon="13.210510">
 <ele>569.52</ele>
 <time>2010-08-08T10:08:51Z</time>
 </trkpt>
 <trkpt lat="47.375172" lon="13.210502">
 <ele>567.93</ele>
 <time>2010-08-08T10:08:54Z</time>
 </trkpt>
 <trkpt lat="47.375343" lon="13.210529">
 <ele>567.28</ele>
 <time>2010-08-08T10:08:56Z</time>
 </trkpt>
 <trkpt lat="47.375584" lon="13.210606">
 <ele>566.73</ele>
 <time>2010-08-08T10:08:59Z</time>
 </trkpt>
 <trkpt lat="47.375713" lon="13.210683">
 <ele>566.63</ele>
 <time>2010-08-08T10:09:01Z</time>
 </trkpt>
 <trkpt lat="47.375961" lon="13.211044">
 <ele>566.22</ele>
 <time>2010-08-08T10:09:06Z</time>
 </trkpt>
 <trkpt lat="47.375973" lon="13.211129">
 <ele>566.16</ele>
 <time>2010-08-08T10:09:07Z</time>
 </trkpt>
 <trkpt lat="47.375938" lon="13.211565">
 <ele>566.09</ele>
 <time>2010-08-08T10:09:13Z</time>
 </trkpt>
 <trkpt lat="47.375740" lon="13.212196">
 <ele>566.08</ele>
 <time>2010-08-08T10:09:22Z</time>
 </trkpt>
 <trkpt lat="47.375553" lon="13.212706">
 <ele>567.28</ele>
 <time>2010-08-08T10:09:30Z</time>
 </trkpt>
 <trkpt lat="47.375534" lon="13.212763">
 <ele>567.37</ele>
 <time>2010-08-08T10:09:31Z</time>
 </trkpt>
 <trkpt lat="47.375385" lon="13.213144">
 <ele>568.66</ele>
 <time>2010-08-08T10:09:39Z</time>
 </trkpt>
 <trkpt lat="47.375340" lon="13.213259">
 <ele>568.65</ele>
 <time>2010-08-08T10:09:43Z</time>
 </trkpt>
 <trkpt lat="47.375443" lon="13.213506">
 <ele>568.98</ele>
 <time>2010-08-08T10:09:47Z</time>
 </trkpt>
 <trkpt lat="47.375645" lon="13.213612">
 <ele>569.06</ele>
 <time>2010-08-08T10:09:53Z</time>
 </trkpt>
 <trkpt lat="47.375996" lon="13.213805">
 <ele>569.96</ele>
 <time>2010-08-08T10:10:03Z</time>
 </trkpt>
 <trkpt lat="47.376381" lon="13.214016">
 <ele>572.11</ele>
 <time>2010-08-08T10:10:14Z</time>
 </trkpt>
 <trkpt lat="47.376644" lon="13.214123">
 <ele>572.67</ele>
 <time>2010-08-08T10:10:22Z</time>
 </trkpt>
 <trkpt lat="47.376797" lon="13.214148">
 <ele>573.08</ele>
 <time>2010-08-08T10:10:26Z</time>
 </trkpt>
 <trkpt lat="47.377167" lon="13.214297">
 <ele>573.31</ele>
 <time>2010-08-08T10:10:35Z</time>
 </trkpt>
 <trkpt lat="47.377491" lon="13.214566">
 <ele>573.55</ele>
 <time>2010-08-08T10:10:43Z</time>
 </trkpt>
 <trkpt lat="47.377617" lon="13.214678">
 <ele>573.37</ele>
 <time>2010-08-08T10:10:46Z</time>
 </trkpt>
 <trkpt lat="47.378029" lon="13.215012">
 <ele>573.16</ele>
 <time>2010-08-08T10:10:55Z</time>
 </trkpt>
 <trkpt lat="47.378487" lon="13.215313">
 <ele>572.33</ele>
 <time>2010-08-08T10:11:04Z</time>
 </trkpt>
 <trkpt lat="47.378952" lon="13.215584">
 <ele>571.18</ele>
 <time>2010-08-08T10:11:12Z</time>
 </trkpt>
 <trkpt lat="47.379276" lon="13.215773">
 <ele>570.52</ele>
 <time>2010-08-08T10:11:17Z</time>
 </trkpt>
 <trkpt lat="47.379723" lon="13.216221">
 <ele>569.59</ele>
 <time>2010-08-08T10:11:24Z</time>
 </trkpt>
 <trkpt lat="47.380116" lon="13.216590">
 <ele>568.18</ele>
 <time>2010-08-08T10:11:30Z</time>
 </trkpt>
 <trkpt lat="47.380482" lon="13.216818">
 <ele>567.45</ele>
 <time>2010-08-08T10:11:35Z</time>
 </trkpt>
 <trkpt lat="47.380882" lon="13.216837">
 <ele>566.51</ele>
 <time>2010-08-08T10:11:40Z</time>
 </trkpt>
 <trkpt lat="47.381268" lon="13.216730">
 <ele>565.64</ele>
 <time>2010-08-08T10:11:45Z</time>
 </trkpt>
 <trkpt lat="47.381748" lon="13.216429">
 <ele>564.79</ele>
 <time>2010-08-08T10:11:52Z</time>
 </trkpt>
 <trkpt lat="47.382519" lon="13.215956">
 <ele>564.27</ele>
 <time>2010-08-08T10:12:03Z</time>
 </trkpt>
 <trkpt lat="47.383289" lon="13.215542">
 <ele>563.81</ele>
 <time>2010-08-08T10:12:14Z</time>
 </trkpt>
 <trkpt lat="47.383888" lon="13.215284">
 <ele>563.64</ele>
 <time>2010-08-08T10:12:23Z</time>
 </trkpt>
 <trkpt lat="47.384602" lon="13.214984">
 <ele>563.85</ele>
 <time>2010-08-08T10:12:34Z</time>
 </trkpt>
 <trkpt lat="47.385197" lon="13.214774">
 <ele>563.35</ele>
 <time>2010-08-08T10:12:43Z</time>
 </trkpt>
 <trkpt lat="47.385674" lon="13.214606">
 <ele>562.88</ele>
 <time>2010-08-08T10:12:50Z</time>
 </trkpt>
 <trkpt lat="47.386269" lon="13.214440">
 <ele>563.11</ele>
 <time>2010-08-08T10:12:59Z</time>
 </trkpt>
 <trkpt lat="47.386662" lon="13.214278">
 <ele>564.48</ele>
 <time>2010-08-08T10:13:06Z</time>
 </trkpt>
 <trkpt lat="47.386696" lon="13.214257">
 <ele>564.90</ele>
 <time>2010-08-08T10:13:08Z</time>
 </trkpt>
 <trkpt lat="47.386982" lon="13.214097">
 <ele>565.34</ele>
 <time>2010-08-08T10:13:12Z</time>
 </trkpt>
 <trkpt lat="47.387081" lon="13.214042">
 <ele>565.22</ele>
 <time>2010-08-08T10:13:15Z</time>
 </trkpt>
 <trkpt lat="47.387497" lon="13.214770">
 <ele>563.73</ele>
 <time>2010-08-08T10:13:23Z</time>
 </trkpt>
 <trkpt lat="47.387829" lon="13.215184">
 <ele>563.73</ele>
 <time>2010-08-08T10:13:30Z</time>
 </trkpt>
 <trkpt lat="47.388187" lon="13.215629">
 <ele>563.68</ele>
 <time>2010-08-08T10:13:38Z</time>
 </trkpt>
 <trkpt lat="47.388592" lon="13.216132">
 <ele>563.70</ele>
 <time>2010-08-08T10:13:47Z</time>
 </trkpt>
 <trkpt lat="47.388981" lon="13.216508">
 <ele>563.81</ele>
 <time>2010-08-08T10:13:55Z</time>
 </trkpt>
 <trkpt lat="47.389320" lon="13.216839">
 <ele>563.51</ele>
 <time>2010-08-08T10:14:02Z</time>
 </trkpt>
 <trkpt lat="47.389568" lon="13.217069">
 <ele>563.61</ele>
 <time>2010-08-08T10:14:07Z</time>
 </trkpt>
 <trkpt lat="47.389771" lon="13.217256">
 <ele>563.86</ele>
 <time>2010-08-08T10:14:12Z</time>
 </trkpt>
 <trkpt lat="47.389858" lon="13.217336">
 <ele>564.15</ele>
 <time>2010-08-08T10:14:17Z</time>
 </trkpt>
 <trkpt lat="47.390076" lon="13.217540">
 <ele>563.52</ele>
 <time>2010-08-08T10:14:23Z</time>
 </trkpt>
 <trkpt lat="47.390381" lon="13.217821">
 <ele>563.69</ele>
 <time>2010-08-08T10:14:30Z</time>
 </trkpt>
 <trkpt lat="47.390728" lon="13.218062">
 <ele>563.51</ele>
 <time>2010-08-08T10:14:37Z</time>
 </trkpt>
 <trkpt lat="47.391106" lon="13.218282">
 <ele>563.22</ele>
 <time>2010-08-08T10:14:44Z</time>
 </trkpt>
 <trkpt lat="47.391457" lon="13.218484">
 <ele>562.05</ele>
 <time>2010-08-08T10:14:50Z</time>
 </trkpt>
 <trkpt lat="47.391830" lon="13.218707">
 <ele>560.82</ele>
 <time>2010-08-08T10:14:56Z</time>
 </trkpt>
 <trkpt lat="47.392254" lon="13.218957">
 <ele>561.16</ele>
 <time>2010-08-08T10:15:03Z</time>
 </trkpt>
 <trkpt lat="47.392601" lon="13.219164">
 <ele>562.97</ele>
 <time>2010-08-08T10:15:10Z</time>
 </trkpt>
 <trkpt lat="47.392933" lon="13.219362">
 <ele>563.25</ele>
 <time>2010-08-08T10:15:17Z</time>
 </trkpt>
 <trkpt lat="47.393242" lon="13.219545">
 <ele>561.09</ele>
 <time>2010-08-08T10:15:22Z</time>
 </trkpt>
 <trkpt lat="47.393436" lon="13.219784">
 <ele>560.89</ele>
 <time>2010-08-08T10:15:26Z</time>
 </trkpt>
 <trkpt lat="47.393669" lon="13.220084">
 <ele>560.73</ele>
 <time>2010-08-08T10:15:31Z</time>
 </trkpt>
 <trkpt lat="47.393887" lon="13.220365">
 <ele>560.85</ele>
 <time>2010-08-08T10:15:36Z</time>
 </trkpt>
 <trkpt lat="47.394024" lon="13.220703">
 <ele>560.35</ele>
 <time>2010-08-08T10:15:41Z</time>
 </trkpt>
 <trkpt lat="47.394169" lon="13.221128">
 <ele>560.83</ele>
 <time>2010-08-08T10:15:47Z</time>
 </trkpt>
 <trkpt lat="47.394218" lon="13.221416">
 <ele>560.48</ele>
 <time>2010-08-08T10:15:51Z</time>
 </trkpt>
 <trkpt lat="47.394184" lon="13.222176">
 <ele>560.61</ele>
 <time>2010-08-08T10:16:01Z</time>
 </trkpt>
 <trkpt lat="47.394180" lon="13.222251">
 <ele>560.55</ele>
 <time>2010-08-08T10:16:02Z</time>
 </trkpt>
 <trkpt lat="47.394173" lon="13.222707">
 <ele>560.37</ele>
 <time>2010-08-08T10:16:08Z</time>
 </trkpt>
 <trkpt lat="47.394165" lon="13.223094">
 <ele>560.61</ele>
 <time>2010-08-08T10:16:13Z</time>
 </trkpt>
 <trkpt lat="47.394287" lon="13.223568">
 <ele>560.83</ele>
 <time>2010-08-08T10:16:20Z</time>
 </trkpt>
 <trkpt lat="47.394665" lon="13.224429">
 <ele>560.66</ele>
 <time>2010-08-08T10:16:33Z</time>
 </trkpt>
 <trkpt lat="47.394970" lon="13.224938">
 <ele>560.72</ele>
 <time>2010-08-08T10:16:42Z</time>
 </trkpt>
 <trkpt lat="47.395267" lon="13.225255">
 <ele>560.82</ele>
 <time>2010-08-08T10:16:50Z</time>
 </trkpt>
 <trkpt lat="47.395496" lon="13.225504">
 <ele>560.96</ele>
 <time>2010-08-08T10:16:57Z</time>
 </trkpt>
 <trkpt lat="47.395771" lon="13.225713">
 <ele>560.49</ele>
 <time>2010-08-08T10:17:03Z</time>
 </trkpt>
 <trkpt lat="47.395821" lon="13.225748">
 <ele>560.52</ele>
 <time>2010-08-08T10:17:04Z</time>
 </trkpt>
 <trkpt lat="47.396008" lon="13.225882">
 <ele>561.18</ele>
 <time>2010-08-08T10:17:08Z</time>
 </trkpt>
 <trkpt lat="47.396133" lon="13.225974">
 <ele>561.86</ele>
 <time>2010-08-08T10:17:11Z</time>
 </trkpt>
 <trkpt lat="47.396305" lon="13.226066">
 <ele>562.06</ele>
 <time>2010-08-08T10:17:15Z</time>
 </trkpt>
 <trkpt lat="47.396576" lon="13.226161">
 <ele>560.91</ele>
 <time>2010-08-08T10:17:20Z</time>
 </trkpt>
 <trkpt lat="47.396633" lon="13.226180">
 <ele>560.55</ele>
 <time>2010-08-08T10:17:21Z</time>
 </trkpt>
 <trkpt lat="47.397190" lon="13.226362">
 <ele>560.06</ele>
 <time>2010-08-08T10:17:31Z</time>
 </trkpt>
 <trkpt lat="47.397491" lon="13.226382">
 <ele>561.10</ele>
 <time>2010-08-08T10:17:37Z</time>
 </trkpt>
 <trkpt lat="47.397732" lon="13.226397">
 <ele>561.53</ele>
 <time>2010-08-08T10:17:42Z</time>
 </trkpt>
 <trkpt lat="47.398018" lon="13.226416">
 <ele>561.85</ele>
 <time>2010-08-08T10:17:48Z</time>
 </trkpt>
 <trkpt lat="47.398312" lon="13.226423">
 <ele>561.82</ele>
 <time>2010-08-08T10:17:54Z</time>
 </trkpt>
 <trkpt lat="47.398365" lon="13.226423">
 <ele>561.58</ele>
 <time>2010-08-08T10:17:55Z</time>
 </trkpt>
 <trkpt lat="47.398777" lon="13.226423">
 <ele>560.14</ele>
 <time>2010-08-08T10:18:02Z</time>
 </trkpt>
 <trkpt lat="47.399258" lon="13.226423">
 <ele>559.94</ele>
 <time>2010-08-08T10:18:10Z</time>
 </trkpt>
 <trkpt lat="47.399715" lon="13.226397">
 <ele>559.90</ele>
 <time>2010-08-08T10:18:18Z</time>
 </trkpt>
 <trkpt lat="47.400021" lon="13.226372">
 <ele>560.51</ele>
 <time>2010-08-08T10:18:24Z</time>
 </trkpt>
 <trkpt lat="47.400593" lon="13.226291">
 <ele>559.76</ele>
 <time>2010-08-08T10:18:34Z</time>
 </trkpt>
 <trkpt lat="47.400986" lon="13.226180">
 <ele>559.59</ele>
 <time>2010-08-08T10:18:41Z</time>
 </trkpt>
 <trkpt lat="47.401421" lon="13.226028">
 <ele>559.91</ele>
 <time>2010-08-08T10:18:49Z</time>
 </trkpt>
 <trkpt lat="47.401848" lon="13.225826">
 <ele>559.51</ele>
 <time>2010-08-08T10:18:57Z</time>
 </trkpt>
 <trkpt lat="47.402157" lon="13.225681">
 <ele>559.99</ele>
 <time>2010-08-08T10:19:03Z</time>
 </trkpt>
 <trkpt lat="47.402420" lon="13.225556">
 <ele>559.36</ele>
 <time>2010-08-08T10:19:08Z</time>
 </trkpt>
 <trkpt lat="47.402683" lon="13.225431">
 <ele>559.66</ele>
 <time>2010-08-08T10:19:14Z</time>
 </trkpt>
 <trkpt lat="47.402889" lon="13.225284">
 <ele>560.18</ele>
 <time>2010-08-08T10:19:20Z</time>
 </trkpt>
 <trkpt lat="47.402924" lon="13.225250">
 <ele>560.29</ele>
 <time>2010-08-08T10:19:21Z</time>
 </trkpt>
 <trkpt lat="47.403049" lon="13.225111">
 <ele>560.56</ele>
 <time>2010-08-08T10:19:25Z</time>
 </trkpt>
 <trkpt lat="47.403114" lon="13.225040">
 <ele>560.82</ele>
 <time>2010-08-08T10:19:27Z</time>
 </trkpt>
 <trkpt lat="47.403374" lon="13.224762">
 <ele>561.75</ele>
 <time>2010-08-08T10:19:35Z</time>
 </trkpt>
 <trkpt lat="47.403542" lon="13.224580">
 <ele>560.80</ele>
 <time>2010-08-08T10:19:40Z</time>
 </trkpt>
 <trkpt lat="47.403645" lon="13.224461">
 <ele>560.20</ele>
 <time>2010-08-08T10:19:43Z</time>
 </trkpt>
 <trkpt lat="47.403900" lon="13.224164">
 <ele>559.27</ele>
 <time>2010-08-08T10:19:49Z</time>
 </trkpt>
 <trkpt lat="47.404194" lon="13.223827">
 <ele>559.04</ele>
 <time>2010-08-08T10:19:56Z</time>
 </trkpt>
 <trkpt lat="47.404350" lon="13.223643">
 <ele>559.36</ele>
 <time>2010-08-08T10:20:01Z</time>
 </trkpt>
 <trkpt lat="47.404369" lon="13.223622">
 <ele>559.47</ele>
 <time>2010-08-08T10:20:02Z</time>
 </trkpt>
 <trkpt lat="47.404396" lon="13.223591">
 <ele>559.49</ele>
 <time>2010-08-08T10:20:08Z</time>
 </trkpt>
 <trkpt lat="47.404396" lon="13.223591">
 <ele>559.51</ele>
 <time>2010-08-08T10:20:09Z</time>
 </trkpt>
 <trkpt lat="47.404396" lon="13.223591">
 <ele>559.59</ele>
 <time>2010-08-08T10:20:20Z</time>
 </trkpt>
 <trkpt lat="47.404396" lon="13.223591">
 <ele>559.58</ele>
 <time>2010-08-08T10:20:21Z</time>
 </trkpt>
 <trkpt lat="47.404396" lon="13.223591">
 <ele>559.79</ele>
 <time>2010-08-08T10:20:31Z</time>
 </trkpt>
 <trkpt lat="47.404510" lon="13.223544">
 <ele>559.36</ele>
 <time>2010-08-08T10:21:03Z</time>
 </trkpt>
 <trkpt lat="47.404526" lon="13.223538">
 <ele>559.47</ele>
 <time>2010-08-08T10:21:07Z</time>
 </trkpt>
 <trkpt lat="47.404526" lon="13.223538">
 <ele>558.66</ele>
 <time>2010-08-08T10:39:48Z</time>
 </trkpt>
 <trkpt lat="47.404526" lon="13.223538">
 <ele>558.72</ele>
 <time>2010-08-08T10:39:49Z</time>
 </trkpt>
 <trkpt lat="47.404903" lon="13.223130">
 <ele>558.99</ele>
 <time>2010-08-08T10:39:56Z</time>
 </trkpt>
 <trkpt lat="47.404613" lon="13.223501">
 <ele>558.77</ele>
 <time>2010-08-08T10:40:05Z</time>
 </trkpt>
 <trkpt lat="47.404716" lon="13.223458">
 <ele>558.77</ele>
 <time>2010-08-08T10:40:18Z</time>
 </trkpt>
 <trkpt lat="47.404716" lon="13.223458">
 <ele>558.83</ele>
 <time>2010-08-08T10:40:22Z</time>
 </trkpt>
 <trkpt lat="47.404724" lon="13.223454">
 <ele>555.08</ele>
 <time>2010-08-08T11:05:19Z</time>
 </trkpt>
 <trkpt lat="47.404671" lon="13.223477">
 <ele>555.01</ele>
 <time>2010-08-08T11:05:27Z</time>
 </trkpt>
 <trkpt lat="47.404598" lon="13.223507">
 <ele>554.97</ele>
 <time>2010-08-08T11:05:36Z</time>
 </trkpt>
 <trkpt lat="47.404564" lon="13.223522">
 <ele>555.28</ele>
 <time>2010-08-08T11:05:44Z</time>
 </trkpt>
 <trkpt lat="47.404526" lon="13.223537">
 <ele>555.26</ele>
 <time>2010-08-08T11:05:51Z</time>
 </trkpt>
 <trkpt lat="47.404549" lon="13.223528">
 <ele>555.06</ele>
 <time>2010-08-08T11:06:00Z</time>
 </trkpt>
 <trkpt lat="47.404617" lon="13.223499">
 <ele>554.97</ele>
 <time>2010-08-08T11:06:04Z</time>
 </trkpt>
 <trkpt lat="47.404823" lon="13.223413">
 <ele>554.91</ele>
 <time>2010-08-08T11:06:11Z</time>
 </trkpt>
 <trkpt lat="47.404938" lon="13.223335">
 <ele>554.81</ele>
 <time>2010-08-08T11:06:15Z</time>
 </trkpt>
 <trkpt lat="47.405029" lon="13.223186">
 <ele>554.93</ele>
 <time>2010-08-08T11:06:19Z</time>
 </trkpt>
 <trkpt lat="47.405190" lon="13.222930">
 <ele>555.14</ele>
 <time>2010-08-08T11:06:25Z</time>
 </trkpt>
 <trkpt lat="47.405373" lon="13.222638">
 <ele>554.67</ele>
 <time>2010-08-08T11:06:32Z</time>
 </trkpt>
 <trkpt lat="47.405575" lon="13.222443">
 <ele>554.85</ele>
 <time>2010-08-08T11:06:38Z</time>
 </trkpt>
 <trkpt lat="47.405895" lon="13.222135">
 <ele>555.14</ele>
 <time>2010-08-08T11:06:47Z</time>
 </trkpt>
 <trkpt lat="47.406223" lon="13.221821">
 <ele>555.23</ele>
 <time>2010-08-08T11:06:56Z</time>
 </trkpt>
 <trkpt lat="47.406593" lon="13.221469">
 <ele>555.00</ele>
 <time>2010-08-08T11:07:06Z</time>
 </trkpt>
 <trkpt lat="47.406769" lon="13.221300">
 <ele>555.74</ele>
 <time>2010-08-08T11:07:12Z</time>
 </trkpt>
 <trkpt lat="47.406796" lon="13.221273">
 <ele>555.72</ele>
 <time>2010-08-08T11:07:14Z</time>
 </trkpt>
 <trkpt lat="47.406929" lon="13.221145">
 <ele>554.36</ele>
 <time>2010-08-08T11:07:19Z</time>
 </trkpt>
 <trkpt lat="47.407131" lon="13.220946">
 <ele>552.33</ele>
 <time>2010-08-08T11:07:23Z</time>
 </trkpt>
 <trkpt lat="47.407471" lon="13.220614">
 <ele>548.81</ele>
 <time>2010-08-08T11:07:28Z</time>
 </trkpt>
 <trkpt lat="47.407795" lon="13.220292">
 <ele>548.41</ele>
 <time>2010-08-08T11:07:33Z</time>
 </trkpt>
 <trkpt lat="47.408195" lon="13.219899">
 <ele>548.46</ele>
 <time>2010-08-08T11:07:40Z</time>
 </trkpt>
 <trkpt lat="47.408634" lon="13.219731">
 <ele>548.76</ele>
 <time>2010-08-08T11:07:47Z</time>
 </trkpt>
 <trkpt lat="47.409065" lon="13.219628">
 <ele>548.35</ele>
 <time>2010-08-08T11:07:54Z</time>
 </trkpt>
 <trkpt lat="47.409187" lon="13.219648">
 <ele>548.25</ele>
 <time>2010-08-08T11:07:56Z</time>
 </trkpt>
 <trkpt lat="47.409615" lon="13.219772">
 <ele>548.19</ele>
 <time>2010-08-08T11:08:03Z</time>
 </trkpt>
 <trkpt lat="47.409916" lon="13.219861">
 <ele>548.04</ele>
 <time>2010-08-08T11:08:08Z</time>
 </trkpt>
 <trkpt lat="47.410480" lon="13.220426">
 <ele>547.97</ele>
 <time>2010-08-08T11:08:19Z</time>
 </trkpt>
 <trkpt lat="47.410831" lon="13.220810">
 <ele>547.30</ele>
 <time>2010-08-08T11:08:26Z</time>
 </trkpt>
 <trkpt lat="47.411266" lon="13.221123">
 <ele>547.74</ele>
 <time>2010-08-08T11:08:34Z</time>
 </trkpt>
 <trkpt lat="47.411636" lon="13.221343">
 <ele>548.63</ele>
 <time>2010-08-08T11:08:41Z</time>
 </trkpt>
 <trkpt lat="47.411968" lon="13.221528">
 <ele>549.27</ele>
 <time>2010-08-08T11:08:48Z</time>
 </trkpt>
 <trkpt lat="47.412109" lon="13.221500">
 <ele>549.22</ele>
 <time>2010-08-08T11:08:51Z</time>
 </trkpt>
 <trkpt lat="47.412449" lon="13.221434">
 <ele>549.57</ele>
 <time>2010-08-08T11:08:57Z</time>
 </trkpt>
 <trkpt lat="47.412670" lon="13.221390">
 <ele>549.72</ele>
 <time>2010-08-08T11:09:02Z</time>
 </trkpt>
 <trkpt lat="47.413048" lon="13.221315">
 <ele>548.88</ele>
 <time>2010-08-08T11:09:09Z</time>
 </trkpt>
 <trkpt lat="47.413456" lon="13.221310">
 <ele>548.35</ele>
 <time>2010-08-08T11:09:16Z</time>
 </trkpt>
 <trkpt lat="47.413822" lon="13.221329">
 <ele>548.47</ele>
 <time>2010-08-08T11:09:23Z</time>
 </trkpt>
 <trkpt lat="47.414196" lon="13.221338">
 <ele>548.58</ele>
 <time>2010-08-08T11:09:30Z</time>
 </trkpt>
 <trkpt lat="47.414478" lon="13.221338">
 <ele>548.97</ele>
 <time>2010-08-08T11:09:36Z</time>
 </trkpt>
 <trkpt lat="47.414482" lon="13.221338">
 <ele>549.40</ele>
 <time>2010-08-08T11:09:40Z</time>
 </trkpt>
 <trkpt lat="47.414482" lon="13.221338">
 <ele>549.01</ele>
 <time>2010-08-08T11:09:45Z</time>
 </trkpt>
 <trkpt lat="47.414780" lon="13.221359">
 <ele>548.72</ele>
 <time>2010-08-08T11:09:47Z</time>
 </trkpt>
 <trkpt lat="47.415165" lon="13.221359">
 <ele>547.84</ele>
 <time>2010-08-08T11:09:55Z</time>
 </trkpt>
 <trkpt lat="47.415524" lon="13.221359">
 <ele>547.63</ele>
 <time>2010-08-08T11:10:02Z</time>
 </trkpt>
 <trkpt lat="47.415844" lon="13.221354">
 <ele>547.77</ele>
 <time>2010-08-08T11:10:09Z</time>
 </trkpt>
 <trkpt lat="47.416180" lon="13.221348">
 <ele>547.70</ele>
 <time>2010-08-08T11:10:16Z</time>
 </trkpt>
 <trkpt lat="47.416386" lon="13.221344">
 <ele>547.20</ele>
 <time>2010-08-08T11:10:20Z</time>
 </trkpt>
 <trkpt lat="47.416679" lon="13.221339">
 <ele>547.53</ele>
 <time>2010-08-08T11:10:26Z</time>
 </trkpt>
 <trkpt lat="47.417015" lon="13.221381">
 <ele>547.18</ele>
 <time>2010-08-08T11:10:33Z</time>
 </trkpt>
 <trkpt lat="47.417221" lon="13.221413">
 <ele>547.31</ele>
 <time>2010-08-08T11:10:37Z</time>
 </trkpt>
 <trkpt lat="47.417660" lon="13.221480">
 <ele>546.97</ele>
 <time>2010-08-08T11:10:46Z</time>
 </trkpt>
 <trkpt lat="47.418095" lon="13.221522">
 <ele>547.13</ele>
 <time>2010-08-08T11:10:54Z</time>
 </trkpt>
 <trkpt lat="47.418190" lon="13.221527">
 <ele>547.28</ele>
 <time>2010-08-08T11:10:56Z</time>
 </trkpt>
 <trkpt lat="47.418274" lon="13.221436">
 <ele>547.60</ele>
 <time>2010-08-08T11:11:00Z</time>
 </trkpt>
 <trkpt lat="47.418339" lon="13.221038">
 <ele>548.63</ele>
 <time>2010-08-08T11:11:09Z</time>
 </trkpt>
 <trkpt lat="47.418377" lon="13.220782">
 <ele>549.05</ele>
 <time>2010-08-08T11:11:15Z</time>
 </trkpt>
 <trkpt lat="47.418388" lon="13.220716">
 <ele>549.49</ele>
 <time>2010-08-08T11:11:20Z</time>
 </trkpt>
 <trkpt lat="47.418388" lon="13.220716">
 <ele>549.83</ele>
 <time>2010-08-08T11:11:26Z</time>
 </trkpt>
 <trkpt lat="47.418388" lon="13.220716">
 <ele>549.84</ele>
 <time>2010-08-08T11:11:31Z</time>
 </trkpt>
 <trkpt lat="47.418259" lon="13.221531">
 <ele>549.78</ele>
 <time>2010-08-08T11:11:35Z</time>
 </trkpt>
 <trkpt lat="47.418259" lon="13.221531">
 <ele>549.95</ele>
 <time>2010-08-08T11:11:41Z</time>
 </trkpt>
 <trkpt lat="47.418732" lon="13.221681">
 <ele>549.84</ele>
 <time>2010-08-08T11:11:47Z</time>
 </trkpt>
 <trkpt lat="47.419144" lon="13.220551">
 <ele>549.54</ele>
 <time>2010-08-08T11:11:54Z</time>
 </trkpt>
 <trkpt lat="47.419224" lon="13.220536">
 <ele>549.27</ele>
 <time>2010-08-08T11:11:56Z</time>
 </trkpt>
 <trkpt lat="47.419441" lon="13.220604">
 <ele>549.09</ele>
 <time>2010-08-08T11:12:01Z</time>
 </trkpt>
 <trkpt lat="47.419765" lon="13.220682">
 <ele>549.11</ele>
 <time>2010-08-08T11:12:08Z</time>
 </trkpt>
 <trkpt lat="47.420139" lon="13.220801">
 <ele>549.20</ele>
 <time>2010-08-08T11:12:16Z</time>
 </trkpt>
 <trkpt lat="47.420315" lon="13.220855">
 <ele>549.20</ele>
 <time>2010-08-08T11:12:20Z</time>
 </trkpt>
 <trkpt lat="47.420574" lon="13.220798">
 <ele>549.85</ele>
 <time>2010-08-08T11:12:26Z</time>
 </trkpt>
 <trkpt lat="47.420753" lon="13.220810">
 <ele>549.80</ele>
 <time>2010-08-08T11:12:30Z</time>
 </trkpt>
 <trkpt lat="47.420895" lon="13.220848">
 <ele>549.57</ele>
 <time>2010-08-08T11:12:33Z</time>
 </trkpt>
 <trkpt lat="47.421082" lon="13.220796">
 <ele>549.36</ele>
 <time>2010-08-08T11:12:37Z</time>
 </trkpt>
 <trkpt lat="47.421265" lon="13.219557">
 <ele>549.22</ele>
 <time>2010-08-08T11:12:41Z</time>
 </trkpt>
 <trkpt lat="47.421417" lon="13.220517">
 <ele>548.77</ele>
 <time>2010-08-08T11:12:44Z</time>
 </trkpt>
 <trkpt lat="47.421413" lon="13.220268">
 <ele>546.70</ele>
 <time>2010-08-08T11:12:48Z</time>
 </trkpt>
 <trkpt lat="47.421413" lon="13.219855">
 <ele>543.79</ele>
 <time>2010-08-08T11:12:52Z</time>
 </trkpt>
 <trkpt lat="47.421413" lon="13.219755">
 <ele>543.49</ele>
 <time>2010-08-08T11:12:53Z</time>
 </trkpt>
 <trkpt lat="47.421413" lon="13.219536">
 <ele>543.58</ele>
 <time>2010-08-08T11:12:56Z</time>
 </trkpt>
 <trkpt lat="47.421413" lon="13.219536">
 <ele>543.83</ele>
 <time>2010-08-08T11:12:58Z</time>
 </trkpt>
 <trkpt lat="47.421413" lon="13.219536">
 <ele>545.36</ele>
 <time>2010-08-08T11:13:05Z</time>
 </trkpt>
 <trkpt lat="47.421825" lon="13.219474">
 <ele>546.41</ele>
 <time>2010-08-08T11:13:11Z</time>
 </trkpt>
 <trkpt lat="47.421871" lon="13.219469">
 <ele>546.44</ele>
 <time>2010-08-08T11:13:13Z</time>
 </trkpt>
 <trkpt lat="47.421421" lon="13.219230">
 <ele>546.63</ele>
 <time>2010-08-08T11:13:18Z</time>
 </trkpt>
 <trkpt lat="47.421421" lon="13.219230">
 <ele>546.72</ele>
 <time>2010-08-08T11:13:23Z</time>
 </trkpt>
 </trkseg>
 </trk>
</gpx>
